GFSNGP_925_rhum_000.txt.gz
RH
94 94 99 88 80 78 94 74 76 59 68 56 48 40 46 52 55 58 60 66 69 70 70 64 60 49 40 31 26 25 25 25 24 25 25 26 25 23 22 22 23 26 30 33
99 85 87 94 85 81 82 88 88 85 90 38 39 44 55 57 56 56 58 63 66 66 68 65 61 49 38 31 27 25 26 26 26 27 26 26 25 23 22 22 27 32 35 34
100 88 84 95 79 84 92 89 88 97 66 46 44 44 56 63 53 54 56 64 67 66 65 63 57 45 36 30 28 27 28 28 28 27 27 26 24 23 22 27 33 35 34 34
100 94 84 47 57 72 84 78 82 48 47 49 58 74 76 74 60 62 63 69 69 67 65 58 51 42 36 30 28 28 29 28 28 27 26 25 24 24 27 33 36 36 35 35
90 86 60 43 43 61 62 62 48 49 64 66 66 60 72 80 74 75 78 75 69 62 59 52 46 38 33 29 28 29 29 28 27 26 25 25 25 26 33 37 37 37 36 36
91 83 68 45 41 38 38 61 43 55 60 63 58 59 75 78 73 70 64 61 59 54 49 44 40 36 33 31 31 30 28 27 27 26 26 26 27 33 37 38 38 37 39 40
89 95 78 54 42 41 54 55 44 53 53 62 56 64 78 76 73 66 60 56 49 46 43 40 36 34 32 32 31 29 27 27 26 26 26 28 33 36 40 39 39 41 44 48
81 93 92 49 38 37 46 52 61 67 71 84 82 79 78 72 70 66 64 56 47 42 38 34 33 34 32 31 29 27 27 26 27 27 27 34 36 40 40 42 46 49 53 55
83 79 58 52 47 53 52 61 64 71 75 74 77 76 72 74 70 66 57 49 44 40 39 36 34 34 33 31 28 28 27 27 27 27 36 37 42 42 43 48 52 57 60 60
66 57 54 53 52 52 51 62 67 68 69 66 73 68 71 69 67 62 50 45 40 40 40 36 34 36 36 30 29 27 27 28 29 32 44 42 44 45 52 56 58 64 63 64
66 58 55 54 52 61 68 66 67 68 64 65 65 69 68 69 67 62 54 45 41 41 38 36 33 33 33 30 28 28 28 29 31 39 44 45 46 51 58 58 61 62 63 64
76 56 55 56 63 63 64 68 68 69 73 72 65 71 71 73 67 62 60 49 48 43 36 33 33 33 32 30 28 28 28 31 40 45 46 48 51 52 49 61 62 62 63 64
52 57 65 68 66 61 69 70 67 69 69 77 77 74 74 78 73 62 60 55 53 45 41 36 36 36 33 31 29 28 30 40 44 47 51 53 56 57 63 58 63 63 62 65
64 60 66 60 69 68 67 68 68 69 70 72 76 76 78 83 78 72 72 62 54 44 40 35 35 35 34 32 30 30 35 45 49 53 53 56 59 60 63 68 68 66 63 64
68 63 65 69 67 69 64 62 68 72 73 75 73 75 74 79 80 74 65 53 46 41 36 35 35 35 35 33 31 35 43 48 55 54 55 62 63 62 62 66 66 66 63 62
79 70 66 65 66 63 61 62 67 72 72 74 77 74 71 68 64 57 49 43 41 41 37 35 34 36 35 33 36 44 46 44 62 62 63 67 66 62 65 64 64 63 64 67
77 86 81 78 72 68 62 60 64 70 77 76 79 74 65 60 54 50 46 44 42 39 37 35 36 37 35 40 45 47 46 50 67 64 68 68 59 63 59 61 64 66 69 71
64 65 62 59 60 62 68 68 70 73 76 84 79 70 67 62 61 56 48 46 42 41 39 38 37 37 41 47 51 51 55 58 61 67 67 58 60 57 59 64 68 71 74 77
68 66 58 54 57 63 69 76 79 86 88 84 81 80 72 65 59 53 45 43 43 44 44 44 42 44 48 52 62 62 61 55 60 63 58 59 58 60 66 69 72 76 81 85
61 59 62 71 65 65 79 83 87 91 86 80 80 76 74 66 57 50 45 47 44 42 44 46 46 48 51 53 74 65 49 55 59 56 58 63 63 69 70 74 77 84 87 86
66 66 71 74 83 80 82 83 84 89 85 76 73 68 60 54 49 46 50 57 55 49 49 50 53 55 59 74 71 49 50 55 58 62 64 67 70 73 78 83 89 90 93 96
67 66 72 74 77 88 78 75 77 78 76 72 65 58 53 53 50 50 47 51 62 53 51 52 55 67 69 76 56 50 56 60 62 65 68 72 78 83 87 89 93 98 99 99
59 63 67 71 76 81 72 68 66 63 61 55 53 52 53 52 51 58 68 64 62 53 44 47 63 68 77 57 50 55 59 65 69 70 75 81 86 87 89 94 99 99 100 100
62 64 70 71 68 66 70 66 59 55 53 52 50 49 51 61 63 59 61 67 67 42 39 61 68 71 72 52 55 62 70 70 68 74 82 83 83 90 93 94 99 100 100 100
66 69 68 67 69 70 74 65 60 59 57 57 55 53 52 53 52 51 47 53 60 39 38 50 59 70 52 56 62 71 67 64 74 82 81 87 92 93 90 94 95 98 100 96
66 66 69 63 66 66 64 61 65 64 60 61 57 52 47 44 42 40 41 39 42 43 45 45 48 54 55 58 68 63 66 73 78 84 93 93 92 91 95 95 95 96 99 100
80 75 72 71 69 66 63 64 64 66 59 54 52 47 43 40 42 42 42 43 46 49 49 48 47 52 54 64 65 71 77 82 90 96 95 92 93 94 94 96 98 99 97 94

GFSNGP_925_rhum_003.txt.gz
RH
93 85 97 95 81 76 74 62 66 54 68 60 52 46 45 54 62 68 73 78 76 76 74 68 59 48 40 33 29 27 26 25 25 25 26 27 27 24 22 22 26 32 34 32
100 96 96 94 92 85 64 64 60 73 68 52 46 48 54 58 60 64 68 72 74 71 71 68 58 46 36 32 28 27 26 27 26 27 28 28 26 23 23 26 33 35 34 34
95 93 96 100 86 84 70 66 70 93 68 51 57 45 53 60 55 59 62 70 72 71 69 67 53 42 34 30 28 27 28 28 29 28 29 27 25 24 25 33 36 36 35 35
100 99 98 74 65 62 68 75 75 79 78 66 54 68 75 70 58 62 65 70 71 72 69 58 47 40 33 30 28 29 30 30 30 29 27 26 25 26 33 37 37 37 36 37
100 93 67 77 90 89 94 88 76 82 75 64 66 68 75 86 70 72 77 72 71 67 62 52 44 37 32 30 31 32 32 31 29 28 26 27 28 34 37 38 38 37 39 40
85 94 66 48 66 56 72 77 67 75 76 69 67 63 76 79 71 73 71 66 64 58 53 46 40 35 32 32 32 32 31 29 28 27 28 29 33 38 39 39 39 41 41 46
88 90 80 55 45 49 82 62 54 62 59 60 60 77 85 70 68 61 59 56 53 50 47 41 36 34 33 33 33 31 29 29 28 29 30 34 37 39 40 40 42 44 49 52
88 91 85 53 43 50 49 63 57 63 73 88 86 76 72 67 64 59 57 50 47 45 43 38 36 34 35 35 31 29 29 29 29 30 34 35 36 40 42 46 48 54 60 62
73 76 60 54 52 56 56 66 66 75 80 78 77 75 71 71 63 57 51 48 45 44 40 36 34 36 36 32 30 30 29 29 30 34 37 38 42 43 44 49 57 64 67 65
69 60 58 53 56 59 63 70 78 76 74 69 76 73 74 68 60 53 49 48 45 41 41 38 36 37 37 31 30 29 30 30 31 31 41 44 45 46 52 59 64 69 69 69
72 60 58 55 56 70 75 73 72 72 68 69 70 71 68 66 59 53 50 48 42 42 40 39 38 36 33 31 29 29 29 29 31 40 44 46 48 53 58 61 65 66 67 67
80 60 54 58 68 70 71 74 70 68 67 64 60 65 65 65 58 52 53 47 43 40 38 38 36 35 32 30 29 28 27 31 43 46 48 50 54 54 52 65 67 66 65 67
60 63 72 75 70 65 74 73 68 70 65 73 71 65 65 68 65 55 52 49 43 39 37 36 36 35 32 30 28 26 30 42 47 50 52 54 60 62 65 46 53 61 64 67
70 64 68 63 72 74 73 74 72 75 74 73 77 74 73 77 74 64 61 52 46 41 38 38 38 36 33 31 28 30 38 54 51 52 55 61 65 64 60 68 73 65 55 67
76 69 66 74 74 75 70 67 72 77 78 80 78 80 78 80 83 76 64 53 46 41 39 38 37 36 34 32 31 39 45 47 56 57 60 69 64 55 61 63 66 66 66 67
80 75 72 72 73 70 69 69 73 76 75 76 79 80 78 75 70 59 51 46 43 42 38 37 35 35 35 33 38 45 46 49 70 62 62 63 58 59 64 62 64 67 70 73
77 86 84 82 77 72 66 62 60 64 73 73 81 73 67 61 54 50 45 43 40 38 37 34 35 37 36 41 46 49 49 53 66 55 60 63 55 64 59 64 68 71 75 77
64 66 62 62 64 65 70 70 70 67 69 75 72 65 61 58 59 55 50 44 41 40 38 37 38 37 42 49 54 54 57 49 49 58 61 53 62 61 62 66 72 77 80 84
66 65 63 59 58 64 70 76 79 82 79 73 68 68 60 56 53 52 47 44 43 44 43 41 41 44 50 64 64 63 54 43 50 55 53 62 63 60 68 71 78 81 86 86
65 61 62 71 65 65 80 86 87 88 80 69 70 74 70 61 50 47 45 45 42 40 44 49 48 49 52 55 70 62 44 48 54 56 59 67 63 71 72 78 81 86 87 88
68 68 72 72 82 81 85 86 85 88 80 73 75 75 69 59 51 48 49 55 52 49 50 51 52 55 61 73 72 49 48 54 58 61 65 69 72 76 83 88 92 91 93 98
73 73 80 79 80 92 88 84 83 83 76 69 66 62 57 56 51 49 48 50 62 56 51 52 54 64 75 77 54 48 53 57 63 67 68 75 82 89 90 91 97 97 100 100
67 68 68 70 77 85 82 81 80 74 69 63 58 55 56 54 51 62 72 66 58 48 45 53 67 75 78 53 48 53 60 67 67 66 73 82 90 90 94 95 99 98 99 100
67 68 75 75 73 72 75 71 68 64 59 56 52 50 51 56 58 55 57 68 66 42 47 66 69 79 62 48 53 63 68 64 64 72 84 88 85 93 93 92 95 97 97 97
69 73 74 72 74 76 77 68 62 58 56 56 54 52 51 52 52 63 58 63 50 36 38 55 59 60 49 54 60 67 64 68 78 89 82 87 93 93 93 94 93 98 100 96
67 68 70 65 69 68 65 61 63 62 61 63 58 54 52 50 46 40 38 40 40 42 43 43 45 52 50 54 66 67 73 77 78 81 94 91 93 94 94 91 90 91 92 93
72 68 68 68 65 63 61 60 59 62 58 55 54 47 41 40 42 40 40 41 46 48 46 43 42 46 56 67 69 74 79 79 80 87 88 92 93 94 93 90 91 92 93 92

GFSNGP_925_rhum_006.txt.gz
RH
93 80 99 100 97 89 95 78 77 55 51 50 51 62 62 69 81 85 85 81 74 76 73 65 55 44 38 32 29 27 26 25 25 26 26 27 27 24 23 24 30 34 33 32
98 98 97 100 96 96 95 75 67 59 58 48 60 52 57 59 73 80 81 77 75 72 70 63 52 44 36 30 28 26 26 26 27 27 29 28 26 24 24 30 34 35 34 34
94 96 97 99 91 81 78 81 63 74 58 46 62 62 57 62 65 70 76 80 75 72 68 62 49 40 35 30 28 27 28 28 29 30 30 28 26 26 29 33 36 36 36 36
97 100 98 81 76 70 73 70 65 54 69 64 70 61 73 73 63 67 73 76 76 74 68 54 44 38 34 30 29 29 30 31 31 30 29 28 26 29 33 36 36 36 37 37
100 99 82 82 84 77 80 77 60 60 56 63 63 63 70 76 73 71 76 75 75 69 60 49 42 36 32 31 31 32 32 32 31 29 28 28 29 33 36 36 37 38 39 39
92 99 77 58 85 82 75 93 68 67 66 75 61 72 71 78 77 79 76 72 69 60 52 45 39 34 33 35 34 34 33 31 30 28 28 29 34 35 37 38 40 40 37 43
88 85 81 59 58 72 90 65 61 67 68 75 71 77 81 70 67 66 67 63 58 53 48 42 37 34 36 35 35 33 31 30 29 29 31 34 35 37 39 40 40 40 48 49
89 93 74 56 59 72 59 57 62 68 71 85 84 76 72 66 65 64 64 55 51 48 45 40 36 34 36 36 34 31 30 30 30 33 34 34 36 39 41 42 44 50 58 58
80 73 58 56 57 58 60 64 65 75 81 77 78 76 69 66 59 55 53 51 47 45 43 38 36 35 37 35 32 30 30 30 34 36 34 36 38 42 45 48 52 63 70 70
72 59 64 55 58 63 70 69 73 80 75 69 76 73 66 59 55 54 51 48 44 43 44 42 38 37 34 32 31 30 31 32 33 40 36 41 44 46 48 52 59 68 72 73
75 67 61 57 60 73 82 80 77 75 72 70 68 67 62 60 57 54 50 48 45 45 46 43 37 35 33 31 30 30 30 30 35 38 42 46 47 48 50 54 67 68 68 68
80 64 59 59 72 74 77 78 72 72 72 68 64 66 61 61 55 53 52 48 47 46 43 40 36 34 32 31 30 28 29 34 45 45 48 46 47 49 48 55 67 66 65 67
64 62 76 78 73 68 78 75 71 70 65 68 62 58 58 59 57 54 50 46 46 45 41 38 36 34 32 30 28 26 30 41 47 47 46 50 57 62 64 42 52 61 64 68
68 69 68 67 71 76 75 78 76 76 70 67 68 64 62 66 61 57 53 46 42 40 39 38 36 34 32 30 27 30 46 54 46 48 51 58 66 66 58 66 68 58 48 68
71 69 65 79 81 81 75 70 73 76 75 79 74 74 70 70 71 70 51 43 40 41 41 40 38 37 33 30 30 38 44 46 54 55 55 71 67 55 60 59 60 64 66 68
83 80 78 78 82 77 71 69 71 78 79 81 80 80 80 73 67 58 50 45 45 46 42 39 37 36 34 33 38 43 45 50 69 58 57 62 60 56 64 59 64 68 72 76
80 90 88 86 82 76 69 65 67 71 76 77 82 76 68 62 58 53 48 46 43 40 39 37 37 38 36 40 44 48 48 50 57 50 56 60 51 65 61 64 68 72 75 79
62 68 66 67 72 71 71 71 71 70 75 76 72 66 62 59 59 55 48 42 41 40 38 37 38 38 43 48 52 54 56 48 46 52 53 50 64 67 60 68 72 78 82 85
66 70 69 65 62 64 69 70 73 74 72 68 65 66 61 57 54 50 46 44 43 44 45 42 43 44 51 68 62 62 52 42 46 50 52 63 63 59 69 73 80 83 87 88
72 69 66 72 67 66 77 77 72 71 69 64 65 64 64 57 52 49 46 47 44 41 46 55 48 49 52 61 68 60 44 44 50 54 57 69 63 74 75 80 84 90 90 90
74 72 75 76 84 80 80 76 72 76 74 66 67 66 62 53 49 47 47 53 55 50 50 50 52 58 62 69 68 48 44 48 52 61 63 66 72 77 85 91 92 94 95 99
80 78 83 81 84 91 85 77 78 78 75 71 66 62 58 57 52 50 47 49 63 57 52 54 56 73 79 70 49 44 47 53 62 63 64 71 82 90 94 94 98 97 100 97
75 74 76 79 82 90 87 82 77 72 71 67 64 60 59 56 51 62 75 68 59 51 49 58 73 84 72 47 42 45 54 62 62 64 72 84 92 92 96 96 98 94 90 94
73 74 79 81 79 77 82 76 70 66 64 61 57 54 51 56 58 55 59 68 66 44 51 60 74 85 48 42 45 52 61 62 66 74 87 93 88 94 92 93 91 87 90 94
73 76 76 74 77 80 82 75 68 64 61 60 57 53 50 51 54 71 64 63 44 35 42 60 57 48 40 42 49 61 65 70 76 93 85 87 91 91 92 91 87 93 100 95
70 69 71 67 73 73 68 63 65 65 62 64 59 55 54 57 60 56 49 41 39 40 39 38 37 38 41 50 64 68 73 77 80 79 92 86 89 92 91 91 91 90 91 92
73 70 69 69 66 64 62 62 60 63 59 57 59 55 49 43 42 38 38 41 43 42 36 34 34 39 51 66 70 74 78 79 82 85 82 86 89 89 91 93 94 92 90 90

GFSNGP_925_rhum_009.txt.gz
RH
90 77 91 100 97 95 98 82 82 56 56 46 40 46 58 59 55 73 86 82 76 73 64 56 51 47 44 42 38 34 30 27 26 26 26 27 27 25 25 26 29 31 32 32
96 92 97 98 98 96 90 81 74 64 65 44 42 47 67 80 63 68 86 80 74 68 59 52 51 44 39 36 32 29 28 27 27 28 29 28 27 26 27 30 32 33 33 33
91 74 100 99 94 95 91 82 80 86 64 52 56 78 84 72 66 70 84 76 72 64 56 49 43 38 36 33 30 28 28 29 30 31 30 28 27 27 30 32 34 34 34 35
97 98 98 95 77 73 78 67 70 66 56 52 64 68 68 66 72 72 80 75 71 64 55 47 41 38 34 31 30 30 32 32 32 31 29 28 27 30 32 33 34 34 37 38
100 100 92 61 71 81 81 78 61 71 64 53 67 66 64 73 72 70 77 72 70 62 51 44 40 36 33 35 34 33 34 34 32 30 28 28 30 33 34 34 35 38 39 40
100 98 96 56 78 66 70 81 62 59 62 62 70 79 72 75 78 82 77 71 63 55 47 43 40 37 37 38 36 38 36 33 31 28 28 30 33 33 34 36 39 38 38 44
97 96 80 63 61 74 80 70 67 68 62 78 76 75 74 70 70 70 69 63 56 50 44 42 39 35 39 39 41 36 32 30 29 29 31 32 32 33 37 41 39 37 43 44
88 94 79 58 74 82 63 62 64 74 77 81 79 73 70 69 69 65 63 55 50 46 44 41 38 37 41 42 36 32 30 30 33 33 32 32 33 39 42 42 40 44 53 60
82 73 58 58 60 59 65 68 64 72 80 73 75 73 67 65 60 57 54 51 47 44 45 42 39 36 40 37 32 31 32 34 34 33 34 37 40 43 44 43 47 64 68 67
73 61 68 66 57 63 78 73 75 77 74 71 73 65 62 59 57 53 50 47 45 44 44 44 39 37 34 33 32 32 35 37 38 35 39 43 44 45 45 51 60 70 69 67
79 70 68 62 61 70 84 82 79 74 72 70 65 65 60 59 54 50 48 46 45 46 45 44 37 34 33 32 32 33 33 34 38 40 44 44 44 47 55 53 65 67 68 69
77 64 64 62 71 76 79 81 77 72 72 66 60 62 58 57 53 51 50 49 48 46 44 40 35 34 33 32 33 31 35 43 43 44 45 45 48 46 44 48 65 64 67 69
66 62 72 77 73 71 79 78 74 73 68 65 57 55 54 55 52 52 49 49 47 46 41 37 35 34 33 32 29 29 34 43 50 46 47 49 55 57 62 39 44 57 65 68
66 71 68 70 70 75 74 76 73 71 65 60 58 55 55 57 52 50 50 49 44 42 40 37 35 34 32 29 29 42 52 48 47 48 48 54 60 60 55 68 62 57 39 69
74 68 71 81 81 82 74 70 73 74 70 70 63 60 56 58 56 55 47 44 43 41 40 37 36 36 33 31 34 42 46 54 52 49 46 60 59 53 58 64 62 63 64 62
82 82 82 81 82 77 72 71 72 74 71 69 69 67 68 63 57 50 45 43 45 48 42 39 37 36 34 36 41 44 48 66 59 46 48 53 54 53 66 62 64 66 69 73
82 93 91 89 85 77 71 65 65 68 71 72 76 70 64 61 56 52 47 46 45 43 41 38 39 38 39 42 43 47 48 46 51 43 49 51 51 68 65 64 69 72 75 79
60 66 66 68 72 71 72 71 73 72 74 75 69 65 62 57 57 56 50 45 44 44 41 40 40 41 43 47 50 53 51 41 41 47 49 51 67 61 58 69 75 80 81 84
63 70 71 69 66 66 71 74 75 76 74 69 65 66 62 58 55 51 46 45 46 48 48 47 43 45 55 60 58 53 46 40 45 48 50 64 57 58 70 78 82 84 84 86
75 74 71 75 69 66 74 72 71 72 70 66 64 62 63 57 51 48 46 47 43 42 54 50 46 47 53 67 58 54 42 44 48 51 55 68 61 76 77 81 84 86 87 87
77 76 78 77 81 76 72 69 66 67 67 62 60 61 61 53 49 48 49 60 61 56 51 47 49 55 59 63 60 42 43 46 52 58 60 64 69 78 87 91 91 91 92 96
83 83 86 82 80 85 75 67 70 70 66 63 60 58 57 56 51 50 47 52 67 58 51 54 57 70 72 61 41 41 47 53 58 59 62 70 83 93 94 94 98 97 100 99
80 80 81 79 78 84 78 74 72 68 66 62 60 58 59 58 54 63 77 70 56 52 51 60 84 84 61 38 40 45 52 56 58 64 70 81 91 96 95 94 98 98 90 91
80 80 85 86 79 74 78 77 70 67 64 61 57 55 54 59 60 55 56 59 65 48 53 64 81 76 36 40 42 46 54 59 64 70 81 94 86 90 91 94 94 92 90 86
81 84 82 75 73 78 80 76 72 68 65 62 58 55 51 51 52 68 62 66 62 48 53 69 58 40 38 39 45 54 60 64 71 87 84 82 86 89 92 93 93 94 97 90
79 74 73 68 74 75 72 68 69 68 66 67 62 56 55 58 63 60 50 40 37 36 35 35 35 34 36 44 55 61 66 72 76 77 86 87 87 90 91 91 91 88 86 84
76 73 73 74 72 70 67 66 64 65 62 61 65 63 62 59 52 42 38 38 38 35 33 32 32 36 44 56 63 70 74 76 79 82 84 84 86 88 88 88 88 86 85 83

GFSNGP_925_rhum_012.txt.gz
RH
77 66 77 89 85 93 99 79 80 55 47 38 33 33 31 32 40 55 50 52 62 64 61 62 61 55 54 50 44 40 37 34 32 30 30 31 32 32 33 34 36 36 36 36
96 79 78 97 88 94 97 94 69 60 60 42 41 47 53 58 72 64 56 53 64 62 59 59 51 49 49 43 42 36 33 34 34 34 34 35 34 35 38 39 38 38 38 38
88 63 72 96 96 96 95 92 75 82 59 47 78 83 84 85 70 62 56 65 64 59 56 52 47 46 46 45 38 34 34 35 35 36 36 35 36 37 39 38 38 37 38 38
97 90 96 84 78 82 83 79 71 62 54 52 60 68 74 63 61 60 67 67 61 55 50 45 44 42 39 35 34 34 35 36 36 36 35 35 35 37 38 36 37 37 38 40
99 98 69 68 75 86 78 64 52 60 55 51 54 60 55 63 63 61 64 59 56 52 42 38 36 34 34 34 34 35 36 36 35 34 34 36 37 37 37 36 37 39 41 42
100 98 91 66 54 60 59 65 52 57 54 56 61 65 64 65 70 69 66 59 50 43 38 35 34 34 33 34 34 36 36 36 34 34 36 38 39 37 40 39 40 41 42 43
96 93 64 53 54 69 65 56 54 60 52 51 60 59 66 64 70 65 59 53 45 40 36 35 34 34 33 34 36 37 36 35 36 37 37 38 37 38 40 41 41 38 40 41
78 76 78 51 58 58 53 52 54 62 71 65 62 64 66 65 65 61 56 49 43 40 38 36 35 35 36 37 37 36 36 38 39 38 38 37 38 41 44 42 38 37 39 38
60 54 46 49 52 48 55 57 57 61 65 63 66 66 64 63 58 54 49 46 42 40 38 36 36 37 38 37 36 38 39 40 40 39 40 41 40 43 41 42 39 41 42 41
65 49 54 50 50 53 60 62 62 64 61 57 61 60 60 57 54 49 46 44 42 39 38 37 37 37 36 37 38 39 39 39 39 38 41 44 45 46 42 41 42 45 44 44
63 53 50 51 52 57 65 63 63 60 56 57 57 58 55 53 50 46 44 42 41 40 40 39 37 36 37 38 39 40 42 42 41 42 43 43 46 49 48 48 56 52 47 49
48 52 50 50 57 61 63 63 60 60 60 56 54 55 51 50 46 45 44 44 43 41 39 38 37 37 38 38 37 37 37 38 42 44 45 45 44 42 44 37 48 62 64 66
48 52 54 59 59 60 62 64 58 57 55 57 52 50 48 46 45 47 44 43 42 41 40 38 37 38 38 36 35 36 41 46 50 46 44 44 48 45 38 37 50 54 62 65
56 55 59 61 56 60 61 62 59 53 52 51 50 48 48 50 47 45 44 44 42 40 39 38 37 36 37 38 41 44 51 48 47 48 46 50 52 48 41 41 41 36 42 56
57 59 61 60 63 65 62 59 59 57 54 53 52 50 48 46 47 47 45 43 43 41 40 38 38 39 41 44 45 47 51 53 53 51 53 52 50 44 43 47 41 40 42 46
68 66 66 64 67 67 63 60 59 59 55 53 50 49 48 47 46 46 46 45 42 41 41 39 39 43 44 39 44 54 63 70 60 47 47 47 45 43 48 44 42 43 46 51
75 91 95 93 86 69 66 56 55 56 53 51 55 52 48 47 47 47 46 46 45 44 42 42 45 42 37 40 50 54 53 52 40 46 46 46 44 51 48 45 47 50 54 59
56 58 60 60 63 62 60 58 57 55 54 57 55 50 48 45 45 48 48 47 47 46 46 45 42 42 44 48 56 58 50 46 47 47 47 46 52 51 48 53 56 60 62 65
57 60 59 60 57 57 61 60 58 62 61 57 53 50 49 49 49 49 47 45 44 44 50 52 44 50 57 57 54 51 47 45 47 46 49 57 51 50 58 60 62 65 67 68
68 66 63 65 64 60 63 64 63 61 59 58 56 53 52 51 50 48 45 44 43 45 61 63 52 62 80 66 54 46 45 49 48 50 54 56 53 58 61 67 72 70 71 70
70 69 74 72 71 68 67 66 62 62 61 56 53 52 52 51 50 50 48 46 64 66 57 47 52 61 65 61 49 43 50 50 53 55 58 58 61 64 69 71 74 76 78 77
74 74 75 74 66 71 70 63 61 61 58 56 55 54 54 54 54 55 52 53 70 66 57 61 59 61 69 51 39 48 52 58 60 60 61 65 69 73 75 76 84 92 91 91
68 70 69 67 65 68 66 62 60 59 57 56 54 54 53 55 54 54 63 74 71 54 56 72 91 79 53 36 38 43 57 63 63 64 67 74 81 80 84 93 96 96 98 98
73 70 70 71 67 64 65 65 62 58 57 57 56 57 58 61 63 57 61 60 69 54 65 78 88 70 34 34 36 46 64 67 69 72 80 90 87 92 98 98 100 100 100 100
77 82 78 70 66 65 74 73 70 65 62 63 61 57 55 56 60 71 71 75 72 52 69 80 72 34 32 35 44 60 70 72 77 88 85 94 99 100 100 100 100 100 100 100
78 74 70 64 66 69 68 62 62 62 61 62 66 60 58 60 60 62 63 48 40 36 34 33 32 32 35 44 64 66 70 74 79 86 96 98 98 94 95 94 94 97 97 92
79 74 71 70 68 66 64 64 61 62 60 59 67 72 67 63 58 45 37 35 34 32 30 29 29 34 45 60 65 69 72 73 73 81 90 89 85 87 90 91 92 90 89 86

GFSNGP_925_rhum_015.txt.gz
RH
65 59 66 74 72 71 98 94 97 65 56 42 38 40 50 41 35 30 35 46 44 54 52 53 62 59 58 58 52 48 46 44 40 33 30 30 30 30 31 32 33 34 34 34
93 68 68 82 64 72 95 94 95 94 93 59 46 54 53 58 57 67 60 54 47 55 54 64 57 54 52 48 44 45 47 44 35 32 32 33 32 34 36 36 36 36 35 34
80 55 62 84 95 96 95 88 93 97 80 55 60 74 78 76 70 78 71 57 55 57 57 54 51 50 45 48 50 52 50 43 39 36 36 36 37 38 38 37 36 35 35 34
100 82 91 69 65 75 85 68 56 56 58 59 54 65 78 79 75 67 58 62 58 55 52 48 49 53 50 58 49 50 50 46 38 39 39 38 37 37 36 35 35 34 34 35
100 80 58 66 58 77 91 74 48 64 66 48 47 64 82 77 70 62 63 56 52 47 50 57 65 74 81 81 66 53 46 40 39 38 35 37 36 36 35 34 34 33 36 38
98 97 82 62 46 53 58 67 48 53 57 56 58 68 80 79 83 72 58 52 44 44 48 53 53 46 48 60 56 52 52 37 34 35 37 38 38 36 35 36 36 38 39 38
97 96 68 48 46 52 69 57 51 59 53 49 60 68 66 65 63 61 64 72 73 68 70 60 47 48 37 34 34 34 33 34 36 37 36 36 35 35 34 38 38 35 35 34
80 95 81 42 45 60 51 47 46 48 77 60 62 64 64 64 60 53 48 40 36 34 33 32 33 34 35 35 34 35 37 37 37 36 34 34 35 36 39 38 35 32 32 32
53 50 38 40 46 42 47 50 48 52 58 57 64 66 62 68 57 50 42 39 37 35 35 35 36 36 36 36 37 38 38 38 37 36 36 35 38 40 39 37 34 34 36 37
57 41 42 41 40 46 50 53 53 54 56 52 58 58 58 56 52 47 44 39 37 36 36 37 37 37 38 38 38 38 38 38 37 36 36 41 42 41 38 36 34 37 36 38
53 45 40 44 46 50 54 53 56 56 51 52 54 55 54 53 49 45 42 40 38 39 39 37 36 37 37 38 39 39 38 38 40 40 38 40 42 42 42 41 45 49 46 49
48 45 46 46 50 51 53 55 54 53 55 53 53 53 49 49 45 43 42 42 42 40 38 36 36 37 38 39 39 37 35 36 38 41 42 42 40 38 40 35 32 44 64 65
42 45 46 51 52 51 53 54 52 52 53 54 50 48 51 46 43 44 41 41 41 40 38 37 38 38 37 38 37 36 36 41 46 42 40 39 40 38 34 34 38 47 48 51
44 48 52 54 51 54 54 54 52 50 49 50 52 47 46 46 44 42 42 42 39 38 37 37 36 36 36 37 37 39 45 45 44 44 41 42 42 40 35 34 36 33 34 42
49 48 53 51 54 58 56 52 53 52 51 50 48 48 46 45 46 44 42 41 40 38 37 37 37 40 44 44 45 46 47 49 47 44 46 43 41 38 36 38 37 34 35 39
56 55 56 57 59 60 56 54 53 54 51 49 47 46 46 46 44 44 43 42 41 40 38 37 39 42 43 46 50 56 64 53 45 39 39 38 37 36 39 38 36 37 41 45
74 89 98 97 82 62 59 51 50 51 49 47 47 46 46 46 45 44 44 43 42 41 40 42 46 48 46 46 47 50 48 50 38 38 38 39 39 42 42 39 42 46 49 53
51 51 59 56 59 59 56 52 51 49 49 49 46 44 44 44 44 46 45 44 43 44 45 46 48 47 46 50 55 51 43 41 41 40 40 38 43 48 43 47 50 52 55 58
53 53 54 53 52 54 54 54 51 49 51 47 45 43 43 45 47 47 46 44 44 44 47 53 46 50 56 56 56 47 40 39 39 38 42 46 44 44 48 51 56 60 61 60
60 58 57 59 56 56 56 53 53 51 50 47 46 47 46 47 47 46 44 42 40 43 51 48 60 70 73 55 49 45 41 41 40 40 45 52 47 50 55 58 61 62 63 64
65 64 71 68 66 61 60 56 51 51 52 50 48 48 49 48 46 45 48 48 54 58 56 53 59 69 71 60 47 44 44 42 43 45 49 51 53 55 59 62 65 67 73 76
71 73 72 71 65 68 64 56 55 56 53 49 50 50 48 49 48 47 44 55 64 64 56 60 66 68 65 46 44 45 47 48 49 50 52 56 59 64 68 69 76 88 90 93
63 65 66 62 64 64 61 57 55 53 52 51 51 50 49 53 53 54 58 65 68 63 60 70 87 75 43 39 41 45 50 53 54 55 58 63 69 74 75 89 92 94 96 96
66 64 63 62 62 57 58 57 55 54 52 53 51 52 53 56 59 58 64 69 67 63 72 95 90 41 32 35 38 47 56 60 61 64 68 78 83 88 94 95 96 97 97 96
69 74 72 67 65 62 66 64 63 57 55 57 57 56 54 54 57 66 66 71 75 70 79 87 64 29 31 34 44 57 64 66 69 80 84 86 93 97 97 98 98 97 99 100
78 71 68 63 61 66 65 57 56 56 57 59 63 62 59 60 66 69 71 71 62 58 44 37 35 33 33 43 54 63 66 69 74 78 87 92 95 96 96 95 93 92 93 94
76 69 66 65 64 62 57 56 56 58 56 58 65 67 67 66 64 60 54 46 37 33 30 28 26 30 40 53 59 63 68 72 81 87 87 86 87 90 93 94 94 93 93 90

GFSNGP_925_rhum_018.txt.gz
RH
75 64 65 72 74 71 94 94 98 79 79 66 61 68 67 58 57 52 65 61 56 55 58 65 79 80 76 60 56 50 45 42 39 37 36 32 30 30 30 30 32 32 33 32
89 75 75 82 72 71 75 95 96 95 94 68 63 61 62 64 67 72 71 68 63 56 63 68 63 61 63 58 54 50 44 40 36 35 35 33 32 32 33 33 34 33 34 35
90 66 73 87 75 85 84 78 88 98 86 77 65 66 71 78 74 72 72 70 66 60 65 54 52 53 53 51 51 49 46 49 51 58 60 58 40 39 37 38 36 34 32 31
98 90 92 70 68 69 80 78 71 60 75 79 76 75 84 83 81 71 70 64 61 56 52 53 49 55 59 60 63 72 73 80 85 86 81 58 41 38 36 35 34 33 31 32
100 96 67 63 71 66 82 80 59 60 61 57 72 87 88 84 73 72 66 54 51 53 56 58 65 63 65 71 78 80 90 97 86 74 64 53 48 38 35 33 31 33 33 36
99 98 90 60 54 62 62 95 55 66 71 58 62 78 92 94 76 56 47 48 59 64 76 81 87 88 83 84 90 88 89 78 70 62 42 36 35 34 34 34 33 30 37 37
97 98 79 49 46 53 92 70 61 56 80 69 78 79 73 80 93 81 76 76 76 74 81 85 97 96 96 98 99 97 86 58 45 40 37 36 34 33 33 30 35 35 34 33
91 98 94 44 49 65 62 57 56 57 72 73 74 72 70 74 66 87 93 90 91 92 94 95 92 77 47 37 38 39 38 38 36 36 35 33 32 32 36 37 34 32 32 34
69 71 47 47 52 46 53 59 59 60 67 71 72 73 72 67 51 45 40 39 39 42 45 45 41 37 40 40 39 38 38 36 34 34 34 34 37 39 37 35 34 36 37 38
60 47 48 49 48 53 56 60 59 60 63 63 69 68 65 58 53 46 40 41 40 39 39 39 38 39 40 40 39 38 37 35 34 35 36 38 39 38 36 35 37 40 41 44
65 58 50 55 56 56 58 57 64 57 58 62 62 62 58 55 52 47 44 42 40 40 40 40 40 39 40 39 39 36 36 38 39 40 40 40 40 39 39 42 34 33 46 52
73 53 55 60 56 53 59 61 59 62 65 61 59 57 54 52 48 46 45 43 42 41 40 40 40 41 41 40 39 38 38 39 40 41 41 40 39 37 37 37 33 35 38 56
51 49 53 58 57 53 60 59 59 62 61 60 56 53 52 49 46 46 45 47 45 42 40 40 39 38 37 36 36 37 40 43 44 40 40 40 39 38 37 34 44 56 46 42
46 52 56 57 63 60 60 59 56 56 54 55 54 49 48 48 46 46 45 42 40 40 39 38 37 37 37 37 37 41 47 44 43 41 41 41 41 40 36 36 39 37 34 40
56 54 59 61 63 64 58 57 60 61 57 55 51 50 48 50 48 44 42 40 39 38 38 39 41 42 41 40 41 44 45 46 44 41 38 37 39 37 36 39 38 36 38 42
66 62 62 65 68 65 60 59 59 58 56 54 52 51 49 47 46 45 42 41 42 43 40 42 42 42 39 40 45 47 50 51 41 37 37 37 36 36 41 40 38 42 46 50
73 87 89 87 81 70 64 56 54 55 54 54 53 50 49 49 48 46 45 42 39 40 41 41 43 41 42 44 46 50 49 37 40 37 38 37 38 43 44 42 46 50 53 56
66 60 71 69 70 69 64 58 55 53 53 51 50 49 48 48 50 50 45 43 43 44 44 41 38 39 43 48 50 46 40 37 35 37 37 38 45 48 44 47 52 54 59 62
61 56 62 62 63 64 62 58 54 53 51 49 48 48 48 50 50 48 45 46 47 49 49 44 46 44 48 54 45 39 36 36 37 37 39 45 47 46 49 54 58 61 63 63
66 60 58 68 60 58 60 54 54 51 49 47 48 50 52 51 48 46 46 47 45 45 46 51 51 55 51 48 43 36 34 36 36 39 43 50 49 52 56 58 62 64 66 70
73 74 76 79 72 61 61 66 54 50 49 49 50 52 53 49 47 46 48 52 48 50 48 60 60 63 61 46 38 36 36 36 40 44 47 51 54 57 60 66 68 71 78 86
76 77 77 75 73 72 60 52 53 54 52 52 53 52 51 50 48 47 47 54 59 58 51 52 57 63 54 41 35 36 36 40 44 49 52 55 59 64 71 74 76 85 90 92
68 70 70 70 69 67 58 57 55 53 54 53 52 52 52 54 54 60 69 60 60 54 53 57 66 59 39 32 32 32 38 44 51 55 59 62 69 77 81 83 90 94 91 91
68 67 67 66 64 59 61 59 55 54 53 52 52 52 54 55 53 50 56 61 61 62 65 82 74 34 29 29 29 34 44 53 58 61 66 80 82 83 86 92 94 91 90 90
76 69 67 65 73 72 66 62 59 56 56 56 54 53 52 52 53 65 62 63 71 75 85 92 48 28 27 27 33 45 54 59 65 76 77 76 82 87 89 89 88 92 98 94
81 78 73 67 66 68 67 59 59 59 59 62 63 57 55 52 60 62 64 70 68 65 59 50 32 28 27 32 43 54 59 62 63 68 82 81 82 85 88 89 91 93 92 90
76 72 69 69 67 64 60 59 58 60 60 63 75 65 61 63 65 66 66 61 52 36 31 28 25 26 31 43 54 58 59 63 68 79 83 84 88 93 95 95 94 94 90 86

GFSNGP_925_rhum_021.txt.gz
RH
80 75 77 77 76 73 84 78 97 68 71 65 62 69 68 64 63 65 73 77 75 71 72 88 92 84 75 73 78 72 61 56 53 44 44 41 38 35 35 35 35 31 30 31
98 76 81 91 78 72 72 71 78 81 83 64 64 73 68 64 66 69 68 71 72 71 74 76 85 88 82 78 68 78 57 52 47 46 45 48 48 52 54 34 31 34 32 31
96 74 85 93 79 70 78 80 82 97 77 64 75 85 94 93 87 82 73 68 70 71 62 65 78 94 99 87 68 48 47 48 55 61 67 62 53 47 51 42 35 34 34 32
99 89 90 68 71 70 84 73 74 77 65 57 62 87 87 87 69 84 71 67 63 58 55 63 70 84 82 85 76 74 76 78 78 76 72 62 69 74 71 65 53 50 34 33
100 96 74 63 75 78 86 74 64 66 71 76 62 85 89 85 63 66 59 57 58 61 66 68 72 81 85 88 88 90 91 92 94 86 91 94 94 84 70 74 52 33 35 38
98 99 96 60 59 65 70 87 56 66 77 79 72 82 86 90 68 67 65 70 73 78 83 78 81 85 89 96 98 100 100 100 96 95 92 83 74 72 42 33 35 35 37 36
98 98 82 60 52 65 88 65 62 59 75 71 78 83 78 87 85 80 81 76 83 90 96 99 99 97 98 98 100 100 95 92 93 88 78 67 44 35 35 32 35 34 33 34
97 99 93 49 60 69 58 59 59 61 71 81 82 78 81 86 90 91 89 90 94 97 100 100 100 96 99 100 100 97 92 86 66 46 37 34 35 35 36 34 33 33 33 35
79 75 51 49 52 54 58 63 61 64 70 74 82 79 69 58 63 85 87 90 97 96 96 92 77 70 58 48 46 43 40 37 36 35 34 33 35 36 34 33 34 36 39 40
65 56 54 51 58 57 58 60 61 65 72 69 80 67 61 54 50 49 45 44 48 48 46 44 45 42 41 39 38 37 37 36 37 38 40 39 37 35 33 34 37 40 42 45
76 65 60 59 58 57 60 66 61 64 66 70 72 66 57 56 54 49 45 42 41 42 43 42 41 41 39 38 37 36 35 38 41 40 39 39 37 35 33 35 29 31 43 47
82 58 60 62 58 56 62 65 64 67 68 67 63 60 57 56 50 48 45 43 43 43 42 43 41 40 39 38 37 37 40 40 40 40 40 38 37 41 45 40 41 44 46 51
57 52 58 58 59 56 63 64 64 66 65 66 60 54 53 52 50 51 52 55 62 52 44 43 41 40 39 39 37 36 40 43 43 41 40 38 38 36 34 33 37 42 44 44
57 54 60 63 66 62 63 64 60 60 59 58 56 51 51 52 51 50 49 50 47 42 42 41 39 38 37 37 37 41 43 41 40 41 40 39 36 35 34 38 40 36 36 48
69 63 60 68 69 68 64 60 62 61 58 58 53 53 51 51 48 46 44 45 41 40 40 39 40 42 40 40 42 44 43 42 40 34 36 35 34 34 38 41 38 40 44 48
67 67 68 69 73 69 66 64 62 61 59 57 56 54 52 49 48 47 44 41 43 47 44 44 45 45 43 42 45 49 52 45 32 31 32 33 34 38 43 41 42 48 52 55
77 82 85 85 84 74 69 60 57 58 56 65 54 51 50 50 49 48 44 42 42 44 44 42 45 48 48 47 45 44 35 36 37 33 33 35 37 45 44 44 49 53 57 61
76 78 70 70 76 74 70 62 58 64 65 54 52 50 49 48 51 52 46 43 44 46 44 43 42 43 44 44 43 39 32 30 30 32 33 36 50 47 45 50 54 58 62 63
69 77 67 69 71 68 66 63 58 55 55 52 51 50 51 53 51 50 46 47 50 52 48 44 42 42 44 46 39 32 29 30 32 34 37 47 46 48 52 56 60 64 65 67
74 71 62 66 66 63 62 60 58 62 63 51 53 54 54 53 49 48 47 51 48 45 47 46 43 44 49 48 34 28 29 31 33 37 42 51 49 56 57 63 68 69 70 76
79 80 80 78 78 69 64 59 61 72 65 52 52 53 54 53 49 48 51 54 49 46 48 48 49 52 51 40 29 29 31 31 35 41 46 50 54 58 64 71 74 76 81 87
81 79 80 85 85 93 86 80 76 56 53 53 53 55 56 56 51 50 49 50 53 53 52 56 56 57 50 32 30 30 30 34 40 47 51 55 60 66 73 78 81 83 90 90
72 72 71 72 74 72 64 56 55 54 55 55 55 55 54 55 53 56 64 57 59 52 49 53 66 58 40 28 28 28 33 40 48 52 57 62 76 80 83 84 87 89 88 88
78 71 70 70 65 61 63 61 56 55 54 53 52 51 53 58 55 52 51 58 58 51 53 74 70 46 25 25 26 31 40 48 53 58 66 77 72 75 78 83 85 87 88 91
82 73 72 68 74 76 68 62 59 56 54 55 54 53 51 52 52 58 56 59 73 58 73 84 41 30 25 26 30 41 50 54 57 74 71 71 78 80 82 86 88 93 100 97
89 84 77 71 68 67 66 61 61 60 60 62 64 54 53 50 52 57 58 68 72 77 77 62 31 26 25 30 41 50 53 55 59 64 76 82 84 88 93 94 92 93 91 89
80 78 76 75 70 66 62 61 62 62 61 63 70 62 60 62 60 63 68 71 68 65 48 31 26 24 28 40 49 52 54 58 66 76 82 87 91 93 93 90 89 92 90 89

GFSNGP_925_rhum_024.txt.gz
RH
82 77 79 80 78 77 88 74 93 66 68 60 56 55 60 77 76 64 65 70 78 76 72 85 90 81 79 82 76 78 76 74 66 59 52 50 49 50 55 58 60 67 82 70
95 82 87 92 81 77 73 67 68 68 73 52 56 58 69 84 86 83 79 69 64 74 79 92 91 86 82 85 78 71 68 62 58 54 56 61 63 61 61 63 67 63 53 51
97 77 86 96 86 79 73 70 74 91 72 67 75 67 89 94 77 76 75 75 71 69 78 90 98 99 98 93 84 78 75 67 72 73 72 72 69 67 66 69 70 66 64 47
98 86 92 65 60 62 69 75 78 81 74 73 72 82 90 77 70 73 65 64 59 64 72 90 100 100 100 99 99 93 93 100 93 85 80 76 80 83 79 69 64 66 58 65
94 90 75 64 72 79 88 75 67 79 70 70 74 88 92 72 62 72 73 72 74 72 78 91 97 100 100 99 100 100 98 95 90 83 90 92 97 94 93 93 96 96 88 70
100 99 96 57 62 65 66 94 67 65 70 81 71 82 87 83 72 72 74 78 84 81 83 88 91 91 94 98 99 100 100 100 100 100 100 100 97 95 96 95 77 46 40 36
99 97 85 60 54 66 83 66 63 62 71 69 75 79 90 81 84 83 82 87 94 97 99 100 99 98 99 100 100 100 100 99 100 99 96 96 96 88 58 44 38 37 35 38
99 100 92 53 67 73 58 61 59 61 72 76 84 83 95 87 88 86 88 92 97 98 99 100 100 99 100 100 100 99 96 93 86 77 65 50 39 38 36 35 34 35 37 39
84 78 52 48 54 54 60 66 62 64 71 80 84 80 70 91 91 90 91 94 97 96 89 75 87 95 98 97 86 69 58 52 46 39 36 35 34 36 35 34 35 38 40 42
70 59 61 59 58 57 58 61 65 67 75 77 82 72 56 56 52 52 61 69 68 64 59 47 46 52 51 45 42 40 39 37 36 35 36 37 36 34 33 36 39 41 41 41
74 69 63 59 57 58 59 64 61 68 71 76 71 61 54 53 48 46 51 45 46 46 46 44 42 41 41 40 38 37 37 38 41 41 39 38 37 35 32 30 30 33 38 40
76 61 61 61 56 57 62 64 62 70 71 73 65 62 56 57 50 48 46 45 48 46 44 43 41 40 38 37 37 36 40 41 41 40 39 39 39 52 53 52 48 48 54 56
66 56 60 61 59 58 61 64 64 67 68 72 62 58 56 56 51 47 46 58 61 52 46 43 40 40 38 37 38 38 41 45 44 40 37 35 34 32 32 39 45 49 49 50
74 66 68 66 65 65 63 65 64 62 62 61 59 55 53 54 56 54 58 61 46 45 43 42 41 41 40 38 36 39 41 40 39 39 38 34 34 33 34 38 38 34 38 57
66 67 66 70 70 69 68 65 67 67 62 61 56 57 57 58 55 52 56 45 43 42 43 42 41 41 40 38 37 40 40 40 39 34 34 34 34 34 40 40 39 43 48 49
74 72 69 68 73 72 68 68 68 66 60 62 61 57 54 51 49 51 58 55 45 47 43 42 42 43 41 41 42 42 41 37 34 34 34 32 33 39 41 41 46 51 54 57
94 88 89 85 87 76 74 67 65 64 60 57 59 66 52 52 51 50 48 44 43 42 42 42 43 43 43 43 45 47 44 41 33 32 32 32 37 45 44 46 52 55 59 63
80 81 82 81 78 81 76 69 65 64 67 74 69 53 52 51 51 52 46 45 45 46 45 44 45 48 48 46 44 36 31 29 30 30 31 38 51 45 47 52 56 61 64 65
76 78 79 83 79 78 72 67 63 65 76 67 53 51 49 49 51 50 48 49 51 52 49 46 46 45 45 44 38 30 27 29 30 32 35 49 45 48 53 56 62 67 68 69
84 81 80 71 70 69 66 62 62 59 56 56 52 54 55 53 50 51 50 53 51 46 44 48 46 47 46 41 32 26 27 29 30 33 44 48 48 56 56 63 72 72 74 78
91 85 88 89 85 74 65 60 60 63 62 68 54 54 55 53 51 50 54 56 49 46 47 47 47 48 47 38 28 28 28 27 30 38 44 49 54 57 63 71 77 80 85 90
77 89 78 87 87 96 90 81 73 82 88 74 55 55 56 57 54 53 52 51 50 51 51 48 50 51 45 32 28 28 26 29 36 45 51 55 60 70 78 82 84 87 90 85
79 76 74 74 82 91 97 96 91 82 69 59 58 57 55 56 55 57 60 51 53 60 52 55 55 62 51 28 27 24 27 35 45 52 56 62 72 74 76 79 85 88 84 84
87 80 77 73 68 68 68 71 79 82 76 60 56 53 53 57 56 53 50 52 57 54 52 58 78 68 26 25 23 26 34 45 52 56 65 73 69 74 79 83 82 84 86 90
91 89 78 75 75 75 67 64 64 61 58 60 56 53 51 51 50 54 54 58 70 50 58 85 70 52 24 23 24 33 44 51 55 67 64 68 75 84 88 89 89 89 89 91
92 92 87 81 76 70 68 65 64 61 60 62 62 56 52 51 49 52 57 61 64 56 72 73 52 28 23 23 32 44 49 52 56 63 70 79 85 86 84 83 85 88 90 90
92 86 82 78 74 71 68 64 63 62 61 63 68 63 59 54 61 59 62 71 66 69 74 56 31 24 22 29 43 48 51 55 62 70 78 82 82 84 90 94 96 96 96 95

GFSNGP_925_rhum_027.txt.gz
RH
80 75 77 78 74 80 88 76 87 63 67 54 48 47 49 63 77 76 73 67 71 69 73 75 89 84 82 83 81 82 83 86 92 90 86 79 70 67 67 66 65 61 57 59
93 80 88 92 82 81 78 74 74 70 74 50 49 64 68 82 82 74 75 64 69 70 81 95 95 94 92 81 74 72 71 70 70 67 65 68 68 72 71 73 69 62 70 77
97 79 88 94 86 80 79 73 70 84 63 63 73 70 80 90 74 76 72 65 62 71 89 99 100 99 99 92 81 74 75 75 80 81 79 78 78 76 76 78 84 85 83 78
96 85 96 60 63 66 71 67 70 67 66 68 72 74 88 73 68 72 77 75 70 71 84 98 100 100 100 96 95 99 98 94 90 92 91 81 84 93 92 89 88 86 88 95
91 90 77 63 74 83 82 75 70 74 71 75 68 88 93 75 67 72 74 74 78 82 92 98 99 100 100 100 100 100 100 100 99 94 100 100 100 97 98 96 97 97 96 97
99 98 98 55 66 66 65 86 64 74 70 72 74 86 84 84 78 76 79 84 88 90 93 95 98 100 99 100 100 100 100 100 100 100 100 100 99 100 100 98 99 100 98 80
99 96 84 60 53 67 79 67 57 61 66 71 80 80 92 81 84 84 88 92 97 99 100 100 100 99 100 100 100 100 100 100 100 100 99 100 100 100 99 95 68 50 45 48
93 100 94 60 73 73 62 64 62 63 64 74 78 92 93 85 88 90 89 93 95 92 97 100 100 98 100 99 100 100 100 99 100 99 100 99 86 63 47 42 39 38 40 42
85 77 54 54 58 57 62 69 64 67 66 76 84 84 93 94 92 92 91 92 92 82 76 93 98 98 99 99 96 86 80 75 72 54 43 39 37 37 36 35 36 40 41 42
77 64 66 59 60 59 58 60 64 70 72 81 81 76 75 81 81 75 82 82 76 59 54 50 62 67 60 56 57 53 43 40 38 37 37 36 36 36 36 37 40 42 42 40
80 68 66 63 59 54 57 63 64 68 73 79 79 69 62 57 54 58 54 54 54 50 48 46 49 48 49 43 38 38 40 42 41 39 38 37 37 33 28 30 29 34 39 42
85 65 71 69 58 56 64 64 63 69 73 76 72 64 57 57 51 55 50 50 49 46 45 44 41 41 40 38 38 40 42 40 40 39 38 40 46 56 58 61 62 61 56 58
73 78 77 65 70 61 62 61 63 70 71 78 67 59 57 58 52 49 48 51 49 49 45 42 41 41 40 40 40 37 39 42 42 39 36 35 35 36 34 46 52 51 55 57
71 70 81 74 72 64 62 63 65 65 68 69 63 56 54 53 53 51 57 56 50 46 43 41 41 41 40 39 36 38 41 42 40 39 34 33 32 32 32 35 34 33 38 61
64 68 71 74 72 67 68 69 67 69 67 64 59 58 56 63 61 58 56 52 47 44 43 43 43 43 40 39 38 42 41 41 39 34 33 32 31 32 38 38 38 42 46 47
82 85 80 76 71 71 70 69 69 69 66 65 64 60 58 55 54 57 50 48 56 48 45 44 44 43 42 40 39 40 40 36 31 33 32 31 32 38 40 40 45 50 53 56
99 93 88 88 90 78 77 70 68 67 68 70 70 69 56 58 55 58 57 65 44 44 44 44 44 43 41 40 39 40 41 39 30 30 31 31 36 43 42 45 50 55 58 62
87 85 83 89 89 86 83 75 70 68 66 60 63 63 63 56 56 56 54 48 46 46 45 44 42 41 41 42 43 42 36 36 31 30 31 37 47 43 46 51 56 61 65 66
81 84 85 88 88 89 87 80 70 65 68 70 75 77 62 52 52 54 52 49 50 52 49 46 43 43 43 44 42 35 29 29 31 32 34 50 44 46 52 56 62 68 70 71
85 89 86 90 75 72 72 67 65 74 76 72 65 55 55 53 52 52 50 53 49 47 46 46 45 43 43 43 38 30 29 29 29 32 39 46 45 54 56 62 71 73 74 76
78 92 90 93 93 80 66 65 63 62 62 68 71 59 56 53 51 49 54 56 50 48 44 45 43 43 44 43 33 28 28 28 29 33 39 45 51 56 62 70 76 78 79 81
81 80 78 82 91 95 93 83 74 67 73 83 83 63 55 56 53 52 50 51 49 47 44 45 44 46 47 42 30 28 27 28 33 40 46 51 57 65 72 75 75 75 80 80
83 84 78 77 78 89 99 99 95 90 92 91 86 61 55 56 56 56 58 50 48 58 46 44 46 49 59 38 28 27 27 31 38 45 50 56 65 69 71 75 77 80 81 83
90 89 89 79 71 70 80 86 97 97 93 88 84 65 62 59 56 52 50 48 48 56 49 47 54 74 72 30 27 25 28 36 44 49 55 66 66 70 78 83 86 87 87 86
94 92 89 87 83 79 71 67 77 86 91 91 88 76 68 54 51 52 50 52 54 62 51 55 77 78 46 26 25 26 34 42 47 53 59 63 70 80 82 83 84 86 88 90
98 99 94 84 82 80 74 71 68 66 66 69 68 66 69 54 52 50 53 55 66 58 52 76 78 72 29 25 25 32 41 45 50 56 63 70 77 80 80 84 90 94 95 94
86 95 97 93 87 83 74 71 68 65 64 61 63 64 59 58 60 58 65 66 67 57 58 74 66 48 25 24 28 39 44 47 52 61 68 74 77 81 92 95 94 96 97 97

GFSNGP_925_rhum_030.txt.gz
RH
78 72 79 77 75 84 84 78 86 69 74 57 52 51 46 54 75 74 76 73 66 68 88 96 98 94 91 80 78 80 74 76 89 95 97 93 85 78 76 73 74 70 72 67
93 77 87 94 84 79 80 73 74 70 74 50 49 51 67 73 86 75 71 73 67 67 84 90 96 97 96 84 73 73 75 75 76 80 79 78 77 78 76 77 78 77 76 78
91 81 88 94 88 82 74 75 69 82 57 51 65 69 75 89 84 74 74 78 78 74 81 96 99 100 100 99 89 81 83 81 79 80 82 83 84 87 92 92 90 92 91 85
96 86 95 58 67 67 70 65 69 64 63 63 66 72 83 77 76 78 76 76 78 82 89 98 100 99 99 100 96 95 93 92 84 87 91 89 89 93 94 95 96 96 97 97
92 90 75 59 77 75 74 68 66 66 62 67 68 78 83 80 75 78 77 80 83 86 93 97 100 99 100 99 99 99 100 100 100 100 100 100 100 100 100 98 99 99 99 100
93 97 97 56 69 68 64 76 58 74 74 70 70 84 83 86 84 84 86 91 94 95 97 99 100 99 99 99 99 99 100 100 100 99 100 100 99 100 100 100 100 100 99 99
91 93 83 61 54 67 80 67 57 65 68 68 80 79 88 87 90 90 90 92 93 96 100 100 100 99 99 99 100 100 100 100 100 100 100 100 100 100 100 100 99 98 97 96
84 99 95 62 74 73 61 62 62 64 63 71 76 91 91 89 92 90 92 92 88 89 96 100 99 98 100 100 100 100 100 99 100 100 100 100 99 99 96 72 55 56 46 47
84 81 56 53 59 56 66 66 61 64 64 74 81 90 94 96 95 88 89 90 82 80 83 93 95 98 96 92 92 90 91 92 96 88 71 52 42 41 40 38 38 42 43 46
80 67 70 64 62 61 62 60 59 67 72 80 80 83 91 96 95 94 92 87 70 65 60 63 76 69 66 68 73 63 45 41 40 39 39 38 38 37 37 39 41 43 43 40
82 72 66 62 61 57 57 60 66 66 71 80 81 80 85 78 68 70 72 69 62 59 54 53 57 56 56 58 43 39 40 41 40 38 37 35 33 30 29 33 31 33 35 36
80 71 75 72 66 60 63 67 66 69 72 75 80 75 69 65 58 57 57 57 52 50 49 47 47 44 41 39 38 39 40 40 40 40 41 42 48 62 66 65 65 55 54 59
85 79 82 80 84 76 70 72 69 69 74 79 72 62 60 60 57 57 54 54 51 48 44 42 41 40 40 40 40 38 40 42 42 40 41 43 47 44 46 58 56 60 63 65
66 70 78 72 80 78 78 66 64 65 69 74 68 58 55 55 56 53 54 52 48 45 42 41 41 41 42 42 39 40 43 41 39 36 33 32 31 32 33 32 31 31 37 64
72 76 77 75 75 80 69 73 70 71 70 69 64 60 54 60 62 56 53 52 52 45 42 42 43 43 42 41 39 41 40 40 37 33 33 30 29 30 33 34 37 42 46 46
89 90 90 90 87 77 72 71 73 72 70 69 67 63 56 53 55 57 53 57 54 50 44 45 45 43 42 41 39 39 40 36 34 32 29 28 30 34 36 39 43 48 52 54
96 94 93 92 92 90 83 76 75 71 70 70 66 62 62 64 66 58 53 52 57 63 44 45 45 44 42 40 39 41 43 39 31 29 29 29 32 40 41 43 48 53 56 59
89 90 92 94 93 92 88 86 78 72 72 65 65 67 64 61 60 59 57 64 68 48 46 46 45 44 42 41 42 42 38 35 30 28 28 32 42 41 44 50 55 59 62 64
75 87 89 86 91 90 88 86 81 72 66 64 65 63 62 68 63 55 56 56 52 54 50 47 45 42 41 43 42 39 33 28 28 29 30 45 43 43 50 54 59 65 69 70
76 84 90 91 93 85 75 70 72 71 68 66 67 72 71 63 56 55 56 56 51 48 47 47 45 43 43 43 41 36 28 27 28 29 32 43 43 49 54 58 66 70 72 72
81 86 92 95 97 97 82 70 69 74 75 71 67 71 70 60 54 55 58 58 50 47 47 47 45 42 41 43 40 33 27 28 28 29 34 40 46 51 56 63 69 72 73 73
84 85 81 80 81 90 98 86 66 64 68 71 78 82 76 63 57 56 53 51 47 48 48 47 44 41 42 44 40 30 28 28 28 32 38 46 51 55 62 67 69 72 76 79
86 87 88 83 81 77 99 99 95 87 89 95 94 95 88 68 60 57 57 50 48 49 47 46 42 41 47 45 38 29 28 27 28 36 45 50 54 62 65 69 78 86 88 87
93 91 91 85 78 74 76 72 96 100 100 99 99 99 97 69 57 51 48 46 48 50 46 46 44 46 56 53 35 28 26 26 32 42 47 52 60 63 71 80 83 84 86 89
97 98 96 92 88 87 82 73 74 88 98 99 99 99 98 98 78 53 51 49 50 54 51 49 46 71 68 57 30 26 24 28 39 46 49 55 62 71 76 79 83 90 95 96
91 95 99 94 92 91 84 75 73 68 69 78 83 93 96 97 63 52 52 52 62 67 54 52 62 80 72 44 26 24 25 36 44 49 52 59 69 74 76 81 94 96 97 96
80 78 82 80 72 73 94 90 80 73 66 65 66 68 75 98 70 69 74 75 76 71 56 56 72 76 68 31 25 24 32 41 45 49 56 65 71 74 82 93 95 94 95 95

GFSNGP_925_rhum_033.txt.gz
RH
75 67 80 77 77 82 84 75 79 61 71 53 50 51 50 49 78 75 70 71 72 68 76 87 93 95 95 91 79 76 76 82 89 93 94 91 91 89 86 86 82 79 76 75
92 77 85 92 82 79 78 71 72 70 71 47 46 53 65 78 84 78 73 75 75 74 82 91 96 98 99 99 88 77 81 80 80 82 84 83 83 84 84 84 84 84 84 84
87 76 85 94 88 80 76 76 68 82 61 52 54 63 73 85 83 79 77 75 76 81 86 94 97 99 100 100 94 90 88 87 87 86 86 89 92 91 92 94 91 98 100 100
90 83 95 57 66 69 71 65 67 62 59 56 58 65 79 79 80 80 79 80 81 84 90 98 100 100 99 99 100 99 100 100 99 100 99 98 98 100 100 100 100 100 100 100
91 93 71 58 75 78 75 67 62 63 57 58 67 71 89 82 77 81 84 87 89 92 95 100 100 99 98 99 99 99 100 100 100 99 100 100 100 100 100 100 100 100 100 99
87 91 96 55 70 67 64 80 62 66 66 73 70 80 78 85 83 87 89 90 94 93 96 100 99 99 100 99 98 99 100 100 100 100 100 99 100 100 100 99 100 100 100 99
88 89 82 60 64 69 91 73 56 67 71 70 79 75 85 88 90 91 86 93 92 100 100 100 99 98 100 99 100 100 100 100 99 100 100 100 100 100 99 99 99 98 98 97
78 93 93 61 71 78 64 61 61 64 64 69 75 91 91 89 92 92 92 90 89 95 100 100 98 98 100 99 100 100 100 99 100 100 100 100 99 100 98 92 77 71 69 67
79 75 58 60 63 57 64 64 61 63 62 68 79 89 92 95 95 91 90 86 82 90 93 95 98 98 94 87 95 98 98 96 92 77 61 48 41 41 42 42 44 47 48 47
80 68 72 65 58 63 61 63 58 62 68 74 78 86 94 94 93 90 93 84 68 70 73 70 74 77 76 80 79 55 42 41 40 39 39 38 38 38 39 40 42 43 43 39
85 76 66 65 63 58 58 59 63 67 69 75 83 85 89 93 89 88 86 78 67 66 64 61 62 66 70 59 42 41 42 40 38 38 36 33 33 32 32 32 31 33 36 41
90 73 73 72 69 71 74 82 78 72 68 73 83 83 85 88 74 74 73 66 65 61 61 56 54 49 47 40 40 38 38 39 40 39 43 52 62 69 69 68 70 53 53 59
81 77 86 83 81 77 75 76 73 73 75 72 76 77 73 69 66 66 65 60 58 56 53 48 44 42 40 40 39 37 37 40 41 42 45 48 50 48 52 58 65 68 70 68
70 70 77 75 76 78 81 82 76 65 69 75 75 68 62 60 63 63 61 60 54 50 44 42 42 42 42 42 40 38 39 39 37 34 31 30 30 31 33 32 32 32 39 65
78 77 76 81 86 82 78 75 73 74 72 73 70 66 59 62 66 60 58 57 50 44 43 43 42 44 44 42 39 40 42 40 36 32 30 30 31 32 32 32 36 41 43 45
85 87 88 88 90 89 86 74 76 76 74 73 72 68 59 54 56 55 55 50 50 50 46 43 43 44 43 41 41 41 41 38 33 33 31 30 30 30 33 37 42 47 51 53
92 91 94 97 96 95 92 88 80 74 74 74 71 65 61 59 60 58 56 54 55 52 51 44 44 44 43 42 39 40 41 41 32 30 28 27 30 37 39 42 47 51 53 56
89 89 86 86 95 96 96 91 89 83 78 68 65 66 64 63 60 60 56 57 60 58 58 48 46 45 44 40 40 42 42 40 29 27 27 30 38 38 40 45 50 54 58 61
76 79 86 87 90 94 92 90 89 83 74 68 68 68 64 63 61 59 56 62 70 68 57 48 46 44 42 42 42 42 38 31 27 27 28 40 39 38 43 50 54 61 66 68
83 84 90 93 95 98 94 87 78 74 73 67 65 66 66 67 61 62 60 63 63 54 46 48 47 44 43 44 42 38 32 27 26 26 27 32 38 41 51 54 63 66 70 71
86 84 84 87 89 90 100 90 70 74 74 67 67 70 70 69 76 68 61 61 58 48 46 48 46 45 45 46 41 36 29 26 26 25 26 32 39 47 53 58 64 67 70 73
86 86 85 83 78 76 91 98 87 67 72 72 71 72 76 82 75 62 64 63 55 49 49 50 48 45 44 45 40 35 28 25 24 24 29 37 45 51 57 63 67 72 80 84
88 88 88 86 85 78 75 80 97 94 87 85 91 90 91 89 86 91 72 55 53 50 49 50 49 44 48 42 40 34 26 24 24 25 33 43 48 54 61 66 74 80 82 84
91 94 94 89 81 81 82 78 74 92 100 100 99 99 98 98 98 97 54 50 48 50 48 51 50 49 61 45 41 34 26 24 23 28 39 46 53 59 64 72 76 78 85 93
95 99 96 94 94 94 91 81 73 70 80 96 98 99 98 98 98 96 54 51 51 56 52 52 52 76 60 49 45 33 24 23 24 34 42 47 54 62 69 73 76 86 92 95
87 88 91 83 83 75 84 99 88 77 70 70 76 90 98 98 98 98 97 67 70 88 60 58 67 76 60 54 48 29 23 22 29 39 44 48 58 66 71 73 84 92 93 95
72 73 75 66 66 69 83 99 100 90 78 71 68 66 78 97 97 88 86 98 96 92 71 59 65 70 66 63 44 26 23 24 34 40 44 52 63 70 73 85 90 91 95 96

GFSNGP_925_rhum_036.txt.gz
RH
60 59 70 68 65 66 80 56 62 41 44 31 32 36 38 44 55 60 59 60 61 62 64 79 80 84 86 86 83 79 77 77 79 81 84 84 86 88 88 86 84 84 83 82
83 68 70 79 65 62 63 58 55 49 50 34 31 35 39 48 61 64 62 62 63 64 72 77 82 88 93 92 86 80 78 81 81 82 86 90 90 93 94 94 94 85 85 90
76 65 67 73 66 62 59 58 54 63 44 36 42 42 46 57 67 65 65 65 67 69 76 86 95 99 100 97 89 89 90 95 92 92 96 100 100 98 95 94 92 96 99 99
82 72 82 52 54 53 55 49 51 47 44 42 41 42 54 65 64 65 67 69 69 76 85 94 99 100 100 100 97 99 99 97 97 98 100 99 99 100 99 99 99 100 100 100
83 69 51 42 59 61 63 64 48 51 44 42 44 59 64 66 62 64 66 69 80 85 89 92 94 99 100 98 98 99 99 100 100 100 99 99 99 99 100 99 100 99 100 100
78 83 71 48 59 51 52 70 54 49 50 51 60 63 58 70 66 69 72 76 84 86 94 96 99 100 99 99 98 99 99 100 100 100 100 100 100 100 100 99 99 99 98 98
71 68 56 42 58 58 83 66 53 56 56 60 63 54 64 67 71 74 74 79 87 91 90 98 100 100 99 99 99 100 99 99 99 99 99 99 98 99 99 98 98 98 98 96
73 80 76 48 61 64 56 54 55 63 57 58 58 67 69 68 72 74 78 80 84 88 90 96 100 100 100 100 100 100 99 99 100 100 100 99 95 99 96 85 71 62 59 61
55 52 40 50 55 53 51 51 57 57 56 58 63 68 70 73 71 70 74 76 80 84 87 93 99 93 89 88 93 86 82 74 63 55 50 44 42 42 42 42 42 41 44 45
65 47 49 48 49 57 56 56 54 54 58 60 62 63 68 71 72 70 75 71 76 77 77 80 77 74 79 76 68 50 43 42 40 39 39 40 41 41 40 39 38 37 36 36
63 58 58 54 52 52 54 56 59 59 60 60 63 64 64 70 72 74 76 75 68 70 70 67 64 64 65 58 43 42 42 41 42 38 35 34 37 35 34 36 33 32 37 39
62 51 48 51 54 64 67 65 59 63 63 61 62 62 65 67 71 79 80 75 69 68 67 60 61 62 55 46 44 39 37 40 41 44 50 54 57 58 71 71 68 52 53 56
55 56 60 62 64 67 65 61 58 61 60 63 60 64 66 66 73 75 75 70 68 67 63 56 50 50 46 44 42 41 41 44 47 47 47 48 51 46 47 61 65 66 65 67
63 59 61 65 65 64 63 63 67 66 61 62 62 68 64 66 68 68 69 67 64 63 58 51 45 45 43 42 41 39 43 43 41 39 35 34 32 32 31 28 26 30 38 59
63 64 64 63 65 66 70 68 68 64 60 60 66 64 62 59 60 63 63 63 60 57 50 46 46 47 42 42 40 39 48 44 40 37 34 32 34 35 34 34 34 37 43 44
69 67 66 71 75 77 77 72 71 66 65 66 61 63 61 57 56 59 61 60 56 51 48 44 44 44 44 43 41 42 43 38 36 38 40 35 36 36 34 35 37 40 43 46
70 79 89 94 87 84 83 78 76 74 70 67 63 63 62 57 56 56 58 58 56 52 45 42 47 45 44 42 41 42 45 47 36 31 34 34 35 37 38 39 40 43 47 55
72 74 74 79 86 89 87 82 77 78 78 75 67 64 60 56 52 54 59 57 53 51 45 47 48 45 44 42 41 40 44 45 36 34 34 34 40 40 41 44 46 49 52 59
71 73 82 85 88 93 94 85 78 72 82 76 70 67 63 60 57 58 57 61 62 62 57 53 56 52 45 42 39 42 42 39 30 30 33 43 51 42 43 48 49 54 60 61
73 76 75 88 95 96 97 96 89 87 72 73 69 67 65 63 62 61 61 62 61 63 60 74 97 51 46 41 41 42 40 34 29 31 32 37 40 41 49 50 56 58 62 65
77 77 78 83 79 76 91 100 78 66 74 69 66 64 65 68 64 64 67 65 61 68 86 99 57 50 45 44 44 41 37 30 28 30 31 45 40 46 50 54 60 65 68 72
78 76 76 78 74 70 79 91 94 81 73 73 72 71 72 73 72 71 69 71 82 59 56 56 54 48 44 46 43 39 34 29 27 27 28 32 42 48 53 61 68 76 84 92
79 81 81 80 78 76 73 74 75 95 97 91 88 86 81 82 90 96 95 97 99 91 71 54 52 48 45 55 42 38 34 28 26 26 26 34 41 48 57 73 79 85 90 91
84 87 88 88 83 80 79 81 80 75 92 100 100 100 100 98 98 98 98 98 98 96 93 58 53 50 72 53 42 38 34 28 26 24 27 36 42 49 57 62 69 74 80 88
85 92 90 83 67 63 75 97 85 76 70 76 90 98 100 100 100 97 98 92 78 96 96 62 56 66 75 52 42 39 35 27 24 23 30 38 43 50 57 63 68 74 86 93
76 74 78 77 74 72 75 91 96 87 80 71 69 73 92 99 100 99 98 97 98 98 92 73 83 82 72 56 46 42 36 25 23 25 34 40 46 52 58 64 70 82 89 92
70 69 66 58 65 75 88 87 93 98 97 85 76 68 69 92 98 99 98 98 98 97 97 86 82 80 70 60 51 47 35 25 23 28 38 41 47 54 61 68 80 88 92 94

GFSNGP_925_rhum_039.txt.gz
RH
50 49 61 64 57 55 72 59 57 36 29 29 26 30 34 35 42 50 52 53 54 56 56 65 71 78 86 86 78 73 71 74 76 77 82 82 81 83 86 86 85 83 85 86
85 56 58 68 56 51 56 53 49 41 40 27 25 26 33 38 49 55 55 56 56 57 64 72 80 85 91 90 82 81 77 80 81 82 87 91 91 92 98 98 98 97 97 96
71 56 60 70 58 53 50 47 46 52 39 32 38 37 40 45 55 57 58 58 59 63 72 82 89 93 96 94 88 88 87 90 89 91 97 100 99 99 98 99 100 100 100 100
82 68 82 53 45 45 47 44 43 40 36 33 35 35 40 53 54 56 58 60 61 69 76 82 86 98 100 99 98 93 89 90 91 94 98 100 99 100 100 100 98 100 100 99
78 64 45 37 45 54 56 56 41 42 39 36 35 47 56 56 53 55 57 60 69 75 80 88 92 96 100 98 98 99 99 100 100 100 100 99 99 100 100 99 99 99 98 98
63 73 62 48 52 42 44 65 48 42 43 44 48 61 62 61 58 60 62 69 74 79 87 88 93 98 98 99 99 99 99 99 100 100 99 99 99 100 100 99 98 96 96 99
65 66 50 33 53 48 73 69 51 49 50 53 58 55 61 60 60 62 65 72 79 78 86 92 94 99 99 99 99 99 99 99 99 100 100 99 99 99 100 97 95 91 82 79
61 69 73 41 59 62 53 48 52 54 53 53 51 57 60 61 64 65 68 75 78 80 86 95 95 97 100 100 99 99 99 99 99 98 99 98 93 90 85 71 54 52 53 59
47 48 38 39 41 48 45 47 51 53 57 58 56 58 61 64 64 64 68 71 74 79 82 89 92 88 89 92 86 84 80 71 62 52 46 41 40 38 38 38 38 38 41 40
50 40 41 39 42 46 49 51 51 50 52 56 62 55 60 62 63 62 65 67 71 74 76 84 82 80 78 82 74 56 42 38 36 36 35 37 39 37 36 34 33 33 32 33
52 45 52 45 40 47 51 51 54 55 56 56 55 56 56 61 63 62 64 66 69 70 71 74 70 69 70 63 43 39 38 39 39 34 31 34 42 40 35 42 38 32 38 39
52 38 40 38 43 49 54 57 54 54 56 56 58 58 56 58 61 64 65 70 67 68 68 66 63 62 62 47 40 38 35 36 38 41 46 48 51 58 60 68 52 41 45 49
43 44 46 49 53 55 57 56 54 54 52 58 55 57 56 58 60 66 69 75 69 70 68 63 62 61 53 43 41 36 37 40 43 43 43 44 47 42 45 59 39 40 37 40
52 54 57 55 57 59 56 54 57 58 56 56 55 56 59 61 63 68 74 73 69 69 66 58 55 52 44 45 43 41 41 41 42 40 37 36 31 29 28 26 25 25 33 36
55 54 56 54 53 54 59 60 62 59 54 54 57 59 60 61 62 67 67 69 67 66 62 56 49 44 45 46 44 43 45 42 39 36 32 30 31 31 30 30 29 30 34 39
61 58 56 58 61 70 71 68 67 63 58 57 57 57 58 58 58 60 62 64 63 62 57 54 49 44 44 45 45 45 46 41 39 35 35 32 30 33 32 31 32 32 35 38
61 73 88 94 81 72 74 72 72 70 68 66 64 62 62 59 56 56 58 60 61 58 58 56 51 46 44 45 47 45 43 42 42 36 32 30 32 33 34 34 34 35 39 44
60 64 65 70 79 83 86 85 79 69 67 73 74 66 62 58 55 54 55 58 59 57 57 55 50 44 52 49 47 44 44 46 45 34 31 30 34 37 36 37 39 41 44 48
63 67 77 82 85 89 92 91 87 83 72 69 74 67 62 60 57 52 57 60 60 58 56 50 46 48 81 65 46 43 45 46 42 32 30 34 44 39 37 40 42 45 49 52
66 70 70 74 85 88 90 97 99 90 87 76 70 70 65 62 60 58 60 62 58 55 52 49 50 68 99 58 46 43 44 42 36 31 30 36 38 35 38 44 49 49 51 54
70 71 72 74 72 70 74 89 89 76 71 72 68 68 68 65 64 62 64 64 62 59 56 57 82 99 99 60 53 44 43 40 36 30 30 40 38 39 42 45 48 53 59 63
70 68 68 70 67 67 72 71 71 87 89 80 77 73 72 71 68 65 64 65 65 68 76 95 99 99 98 59 56 45 42 38 33 30 30 30 32 37 43 47 54 63 74 80
69 72 71 72 73 72 70 72 72 72 87 99 99 97 86 76 75 76 77 80 78 78 97 98 98 98 82 70 53 44 40 37 33 29 28 28 31 40 45 50 68 76 79 84
78 81 77 78 66 56 57 79 90 80 74 76 97 100 100 100 98 96 98 98 99 99 98 98 98 94 76 67 53 44 40 36 33 28 27 27 31 39 44 57 63 66 71 79
70 81 78 68 57 54 59 65 84 81 77 69 68 82 96 100 100 99 99 97 98 98 98 98 98 95 84 69 56 44 39 36 32 27 25 25 33 41 48 55 58 62 70 81
64 59 62 66 59 61 63 73 78 85 90 81 72 70 74 92 99 98 100 99 97 99 98 98 98 97 91 82 62 46 40 38 34 28 25 27 35 39 47 52 58 63 71 82
66 64 52 50 56 61 73 79 75 73 85 89 85 77 75 79 94 100 99 99 98 98 98 98 97 98 97 95 71 50 42 40 34 27 26 29 37 38 46 51 59 66 80 86

GFSNGP_925_rhum_042.txt.gz
RH
58 52 70 69 64 61 76 69 78 47 42 36 36 36 42 42 53 54 56 56 58 62 70 69 76 80 86 85 82 79 76 79 80 84 87 87 89 91 90 90 88 87 85 83
84 55 56 72 64 58 60 61 61 56 50 32 27 28 38 42 55 57 58 59 60 64 72 74 84 85 84 89 85 83 84 85 84 89 94 98 98 98 98 97 97 96 98 97
83 57 61 83 68 62 57 55 56 67 48 36 39 42 44 44 59 60 61 62 65 75 79 80 86 93 99 98 88 86 86 89 91 94 99 100 100 100 100 100 100 99 99 99
92 74 95 55 46 48 53 49 49 46 42 35 41 39 43 57 58 63 63 64 70 76 78 80 88 98 99 99 98 93 95 93 95 98 99 99 100 100 100 100 99 100 100 100
77 88 62 52 58 57 57 57 43 47 44 37 36 50 58 60 55 62 65 71 74 76 82 86 87 97 99 99 99 99 100 100 99 99 99 100 100 100 100 99 99 98 100 100
74 76 80 63 49 40 44 77 50 44 46 46 54 79 82 67 64 67 69 74 78 81 85 86 89 100 99 100 99 99 99 100 100 99 99 99 100 100 100 100 100 99 99 99
80 78 63 46 50 46 84 79 54 47 50 57 68 71 74 68 68 66 71 74 78 84 83 89 96 100 99 99 99 100 100 99 99 99 99 99 100 100 96 89 64 66 71 78
71 81 84 57 62 72 65 60 60 61 57 60 67 70 71 68 72 73 77 80 79 85 88 90 89 94 99 99 94 92 92 92 89 90 90 87 81 68 56 51 50 52 54 61
60 67 48 47 54 53 53 57 59 64 59 59 62 64 68 73 75 74 75 79 79 82 88 91 90 88 92 92 90 86 81 76 62 53 54 54 41 39 38 38 38 39 40 40
52 46 46 46 50 50 51 56 58 58 62 64 66 66 69 71 75 75 73 76 76 81 86 90 91 86 84 85 80 74 46 38 36 36 36 36 37 36 35 33 33 32 31 34
60 52 51 50 48 58 57 58 59 58 57 58 60 62 67 71 73 70 72 70 73 78 80 84 84 81 78 77 66 42 38 38 38 36 33 33 37 41 37 32 38 34 38 41
68 49 52 46 49 55 62 64 59 57 58 58 65 68 63 69 66 68 71 69 72 73 74 78 75 73 72 64 41 39 38 37 35 35 41 48 52 51 43 38 40 36 41 45
52 53 62 66 66 62 60 62 57 58 60 63 62 64 64 68 64 67 68 70 71 73 69 70 67 64 63 53 41 38 34 37 40 42 45 47 47 47 50 48 40 32 28 26
56 63 67 60 74 64 60 59 59 60 61 61 60 60 61 65 63 70 74 73 70 69 70 67 64 63 61 48 41 37 36 39 38 40 41 40 36 30 28 27 27 26 28 31
64 62 64 62 59 62 64 66 71 72 67 64 59 63 64 70 72 72 72 74 75 70 70 65 62 61 54 45 43 40 39 39 40 38 35 30 28 28 27 26 27 28 30 34
68 62 60 66 72 75 76 75 78 79 77 76 70 64 62 62 62 64 68 73 73 73 70 63 60 57 48 46 43 42 40 38 37 36 33 29 28 27 28 29 30 31 33 36
74 87 92 94 83 80 84 85 85 84 79 79 78 72 65 63 61 60 62 68 69 68 67 63 61 54 48 46 49 42 42 41 41 36 33 30 27 28 29 31 30 33 37 41
68 70 73 78 87 88 89 88 87 81 83 78 70 79 70 67 66 59 59 62 64 63 62 62 61 54 47 51 57 45 43 40 45 38 32 28 27 29 31 29 32 37 40 44
66 78 82 83 87 89 91 91 93 92 88 86 74 80 72 66 62 58 56 60 62 62 60 59 60 54 48 54 76 50 43 43 44 40 32 29 33 35 31 30 35 41 44 48
71 72 73 80 77 74 78 85 94 91 82 81 75 71 73 69 63 60 58 60 59 59 57 60 56 53 47 67 97 80 45 44 42 38 31 29 31 35 30 33 43 43 44 48
76 75 77 77 74 70 73 73 74 87 87 78 77 74 73 68 65 66 66 69 60 59 56 55 53 50 52 90 99 94 47 44 41 36 32 34 32 33 32 33 39 42 47 54
73 71 72 72 71 71 72 72 71 70 84 97 98 95 84 74 71 67 65 66 63 64 61 59 57 53 63 99 98 87 48 43 40 37 32 29 31 31 28 34 39 42 50 62
72 71 72 76 77 74 70 78 84 78 77 75 96 100 100 99 92 78 83 71 73 96 87 80 97 90 99 99 97 75 48 42 39 36 32 28 26 25 27 34 39 44 57 62
80 87 92 74 58 50 53 57 73 83 77 70 69 79 96 100 98 95 95 99 99 100 99 98 99 99 99 98 97 89 49 42 38 35 32 28 26 24 28 35 40 49 54 60
76 80 77 65 60 61 58 63 73 81 85 81 75 70 71 83 100 99 99 99 99 100 100 98 99 99 98 97 98 87 49 42 38 35 33 27 24 22 28 37 42 47 54 62
62 61 58 57 54 56 60 72 78 76 83 88 83 81 76 74 81 98 98 99 98 100 100 98 100 99 98 97 98 82 51 43 39 36 34 28 24 23 31 37 42 48 53 61
60 60 54 52 51 52 59 76 78 77 78 81 90 89 80 74 78 99 100 99 98 100 99 98 99 100 98 97 97 96 86 47 40 38 35 28 24 25 34 38 43 49 56 68

GFSNGP_925_rhum_045.txt.gz
RH
61 65 72 71 71 69 96 70 81 59 47 40 38 40 43 56 63 65 64 64 66 74 81 81 82 84 85 84 82 81 81 82 87 88 92 93 95 95 94 94 91 89 88 86
80 61 67 73 70 68 67 62 66 65 65 38 35 37 49 59 63 65 64 64 68 74 79 85 84 85 90 91 84 84 84 88 89 91 97 97 99 99 100 100 100 99 99 99
88 64 66 79 73 66 63 61 59 71 51 40 39 39 54 64 64 66 66 66 72 80 82 84 89 90 98 95 87 87 88 91 94 97 99 100 100 99 98 99 100 99 99 99
93 78 94 52 50 56 56 54 56 54 51 44 44 47 50 55 68 68 67 69 77 85 83 86 91 99 99 94 92 94 96 98 99 99 100 100 99 98 99 100 99 100 99 99
87 82 66 58 59 58 65 63 52 52 50 41 49 53 62 61 63 67 69 74 80 82 84 87 92 100 99 99 100 99 99 99 99 99 99 99 99 100 100 100 100 99 98 99
85 80 90 63 48 44 49 82 51 46 49 50 59 64 65 70 70 75 76 79 86 85 87 88 93 96 98 99 99 99 100 99 98 99 99 99 99 100 100 100 100 99 88 80
87 87 69 48 51 48 84 70 55 50 50 52 63 63 74 74 74 76 78 83 83 86 88 91 94 92 98 98 99 100 99 95 98 100 99 100 100 96 75 65 70 74 81 90
84 83 87 56 61 73 64 60 61 62 64 70 77 77 75 74 78 81 82 86 85 88 90 92 92 91 95 95 91 90 91 89 89 90 91 91 66 57 56 52 52 57 61 62
72 71 50 60 55 54 59 65 60 61 62 67 73 74 74 76 78 81 82 84 86 90 92 90 90 88 90 90 91 89 90 89 86 80 77 65 49 44 47 43 39 40 41 39
56 49 51 49 57 55 52 58 61 62 63 62 64 67 73 78 79 79 82 85 86 89 93 93 90 87 86 90 90 86 77 63 45 40 39 39 38 38 36 35 34 33 32 35
65 57 54 50 57 61 62 63 63 62 63 64 67 72 76 78 79 77 78 81 84 87 92 92 93 89 87 86 84 80 49 37 36 37 36 34 34 32 30 30 35 31 35 39
73 57 54 53 54 64 69 71 69 64 62 60 64 70 68 78 74 76 80 80 81 84 85 87 88 89 84 81 74 67 40 38 38 35 32 40 44 50 43 36 33 33 36 32
56 58 64 75 71 64 72 70 63 62 61 62 63 66 69 76 71 72 74 78 79 81 82 80 83 83 79 76 68 43 38 38 36 34 42 49 53 52 50 54 46 37 32 28
67 70 71 67 75 69 67 64 62 62 64 66 66 62 65 71 68 75 78 73 72 74 76 77 78 76 72 70 57 41 38 34 36 40 42 45 45 40 31 27 26 24 27 30
67 68 72 71 70 72 72 72 75 77 76 75 68 69 68 74 76 72 74 74 72 72 73 72 73 70 67 64 51 41 37 36 38 38 40 39 34 28 27 26 26 26 26 29
78 69 72 74 82 82 79 82 83 86 85 83 83 80 72 67 68 67 70 78 78 79 73 72 69 67 66 62 52 43 38 37 39 38 38 34 29 27 26 26 27 27 29 33
80 87 91 97 87 84 87 89 90 91 86 84 83 77 82 72 68 66 63 71 78 76 74 73 70 67 74 69 57 48 42 42 39 38 35 33 28 26 26 28 28 27 30 35
76 80 83 84 90 91 90 89 88 88 87 89 82 77 86 80 78 70 63 63 74 76 74 71 70 68 66 60 49 45 48 46 46 40 35 34 29 27 27 29 27 28 32 37
77 86 87 85 87 88 88 90 94 94 88 88 84 77 77 74 70 66 61 65 70 72 68 67 65 66 60 52 48 48 56 52 44 44 37 33 31 28 29 29 26 28 35 40
82 78 81 82 76 77 84 86 84 90 84 78 76 72 73 71 72 67 62 64 65 66 61 61 60 64 66 57 50 60 89 85 45 45 40 34 31 30 31 31 28 30 38 40
99 84 78 77 76 75 74 73 72 75 89 94 93 89 85 75 70 66 67 70 62 60 60 58 59 63 62 54 64 91 99 96 77 46 41 37 31 30 31 28 27 31 36 41
86 95 76 74 75 76 75 79 78 76 77 80 94 99 100 96 89 78 70 68 64 65 67 63 59 61 60 63 97 98 99 98 96 46 39 35 33 32 30 30 26 30 36 41
74 74 75 74 71 62 60 54 82 84 80 73 75 87 100 100 100 98 92 89 84 75 88 80 67 70 95 99 98 97 98 98 85 43 39 36 32 29 27 24 24 31 36 42
92 91 92 92 60 48 56 60 76 82 83 79 74 72 78 100 97 100 100 98 98 99 100 100 99 99 99 99 98 98 98 98 87 42 38 35 32 29 26 24 24 31 36 46
98 96 97 83 69 68 56 65 68 71 73 75 78 80 78 77 91 96 100 100 98 99 99 100 99 98 100 99 98 98 98 97 88 42 38 35 32 29 26 23 24 32 40 45
81 65 58 54 51 52 55 67 77 73 76 75 71 83 81 75 76 93 100 100 100 99 99 99 99 100 100 98 98 97 97 97 56 42 38 35 33 29 25 22 25 33 40 46
76 62 56 49 48 49 50 69 77 74 75 73 80 77 76 76 76 80 94 99 100 99 100 99 98 100 100 98 97 98 98 96 91 73 40 37 35 30 24 22 28 35 40 46

GFSNGP_925_rhum_048.txt.gz
RH
64 65 72 74 81 83 93 73 81 59 59 40 40 40 42 46 63 70 69 68 70 81 89 86 84 85 85 84 82 82 83 88 90 92 94 98 98 97 96 93 96 96 93 91
79 60 69 74 72 81 77 78 77 64 67 47 34 35 44 58 70 69 68 68 70 77 83 88 86 85 89 88 84 84 86 91 93 95 98 99 99 99 97 99 99 98 98 98
85 71 66 76 72 71 71 68 75 77 54 43 43 40 51 64 69 69 68 69 74 80 84 87 87 88 93 91 88 88 89 92 94 99 99 99 99 99 99 100 98 99 98 98
93 75 91 54 50 57 58 56 58 58 53 47 45 42 51 62 66 69 68 70 77 84 86 87 89 95 98 94 93 93 97 98 100 100 100 100 100 100 99 99 99 99 100 99
93 96 67 51 60 64 67 62 52 59 56 50 45 54 57 59 63 67 70 74 80 81 83 88 93 98 99 99 96 96 99 99 100 99 100 100 99 99 100 98 98 99 98 99
88 77 93 54 53 50 54 81 56 52 56 52 63 65 62 69 70 73 74 77 84 82 85 89 95 99 100 100 100 99 99 99 98 100 99 99 99 97 100 98 99 84 84 83
88 94 76 52 48 48 77 66 61 52 56 59 64 56 60 77 77 76 79 82 82 85 88 90 94 98 100 100 100 99 98 99 99 96 97 97 99 99 87 75 77 80 78 78
88 94 84 48 60 68 62 62 63 62 58 60 73 82 80 78 83 82 86 88 86 90 91 94 94 91 98 98 94 92 90 92 97 100 100 99 66 57 60 62 61 64 61 57
76 74 47 48 58 58 64 63 60 60 68 77 79 76 77 80 84 84 85 88 88 91 94 95 92 91 94 91 90 89 90 90 91 96 91 58 55 57 59 52 47 45 46 40
63 53 56 51 55 57 58 60 60 59 65 66 66 70 73 78 81 82 84 87 90 93 93 96 94 92 90 89 88 90 90 90 89 83 77 70 55 43 41 39 37 36 33 34
69 60 59 57 56 60 59 63 65 65 65 66 68 73 76 81 79 81 86 86 89 91 93 92 93 92 87 89 92 90 88 80 58 44 43 39 37 36 34 32 32 30 29 32
70 56 54 50 50 62 71 70 71 70 69 66 66 72 71 81 79 83 87 90 91 89 89 91 92 91 88 88 88 86 80 54 38 37 41 38 40 44 40 35 32 28 28 28
85 72 66 69 69 68 72 76 68 67 62 61 62 67 68 77 73 76 80 84 87 89 88 87 88 91 88 87 86 84 76 46 38 38 37 37 45 47 48 52 54 42 35 32
77 80 79 74 74 74 72 70 65 66 68 68 68 66 68 73 72 75 83 78 78 81 85 84 85 86 83 83 83 77 72 47 37 38 34 38 48 50 49 42 33 28 25 53
59 87 82 75 75 78 76 74 77 81 81 80 78 78 75 78 78 74 71 78 78 78 80 81 82 81 79 79 77 75 66 43 39 36 38 41 45 46 38 28 26 24 24 24
92 94 83 81 87 85 83 83 84 86 87 86 85 83 82 83 74 70 69 76 87 89 81 79 78 77 76 77 74 71 58 42 38 37 41 43 42 38 30 27 26 26 26 25
100 97 94 97 89 86 90 92 92 92 88 87 90 84 79 83 82 75 67 68 80 80 76 75 73 73 73 72 74 77 58 48 45 41 41 40 37 32 28 27 27 27 24 26
95 93 87 81 90 94 94 89 90 89 88 89 87 80 84 88 88 81 72 67 69 77 79 77 76 75 73 70 69 75 73 68 48 48 40 38 36 32 28 27 27 28 24 27
82 88 87 86 87 87 87 90 92 91 82 79 78 75 74 77 77 73 68 66 72 77 69 73 73 73 71 70 74 73 70 73 48 51 57 38 37 34 29 28 28 28 25 29
99 98 96 80 78 81 86 78 84 90 93 90 86 85 83 80 72 69 69 68 66 68 66 66 69 75 71 72 72 76 79 77 52 74 97 48 38 34 32 30 30 28 26 30
100 98 99 80 81 77 77 76 74 77 83 90 99 100 100 97 88 78 71 76 66 65 64 63 62 62 64 66 73 81 87 90 98 98 97 86 61 36 33 32 32 29 26 30
97 99 99 90 77 80 77 75 81 79 76 76 82 88 100 100 100 98 90 80 78 70 69 72 78 94 78 76 79 96 98 98 98 98 97 97 67 38 34 32 30 27 24 27
98 99 98 91 82 56 54 55 82 83 83 76 75 82 97 100 100 100 98 97 97 96 94 91 90 74 84 97 96 97 98 98 98 98 98 97 61 37 35 32 28 26 22 26
99 99 98 97 91 53 51 60 74 78 80 82 79 79 78 84 79 97 90 100 99 100 100 99 99 99 100 99 99 98 98 98 98 98 98 96 47 37 34 31 27 24 23 28
99 98 94 97 95 80 54 63 69 72 73 70 77 83 84 80 81 86 100 100 99 98 98 100 99 98 100 99 99 98 98 98 98 98 98 75 40 36 33 31 26 23 24 30
98 92 70 66 59 48 50 60 73 70 75 69 67 74 71 76 77 81 92 97 100 99 100 100 97 99 99 99 99 99 98 98 98 97 97 63 39 36 34 31 26 22 23 30
98 99 84 61 48 49 49 55 75 69 72 68 73 67 68 72 74 78 84 92 100 100 100 100 100 100 99 99 100 99 98 98 98 98 86 54 40 37 35 32 27 23 27 32

GFSNGP_925_rhum_051.txt.gz
RH
69 64 79 86 89 81 98 93 87 64 66 51 38 39 40 46 58 75 76 74 73 82 89 87 86 85 84 84 83 82 86 88 90 92 94 99 100 100 98 97 98 97 99 99
82 61 77 78 77 86 79 79 82 75 76 48 39 37 43 47 61 69 72 70 72 80 87 88 86 85 87 87 84 84 88 91 92 95 97 99 99 99 99 99 99 99 98 99
83 78 66 77 70 72 79 79 78 88 65 49 50 45 44 47 61 68 69 70 73 76 81 84 85 85 90 88 87 87 90 92 95 98 100 100 100 100 100 100 99 98 97 96
92 76 87 54 49 58 65 56 71 74 62 53 49 45 43 51 61 72 73 72 75 79 82 84 86 90 92 92 90 90 93 96 98 99 100 100 100 100 100 98 98 96 97 96
92 97 69 46 62 65 66 61 56 60 59 57 48 48 50 58 66 66 69 74 74 73 79 86 90 93 94 95 93 94 98 98 99 99 100 100 100 100 98 99 96 94 96 91
92 77 92 53 58 52 53 82 56 59 56 65 64 66 59 67 70 72 71 71 79 79 82 87 94 97 98 100 99 100 100 98 99 99 100 100 100 99 98 98 98 97 79 76
86 95 83 55 49 50 78 61 68 64 60 62 65 55 55 78 76 76 78 79 79 80 87 89 94 97 100 99 100 98 97 99 100 100 99 97 97 99 98 93 71 76 73 70
89 95 90 47 59 67 60 66 64 66 57 62 62 80 80 80 84 84 86 87 84 88 89 91 94 96 100 99 96 99 98 99 98 97 99 98 98 82 75 68 70 66 60 52
81 76 50 46 61 55 64 70 60 61 67 66 79 79 81 84 85 85 85 87 85 86 90 92 94 94 96 93 95 94 97 96 100 100 98 89 53 57 60 58 51 46 46 41
67 55 60 54 51 64 58 63 59 59 68 71 73 78 77 81 83 82 84 87 86 89 94 99 94 92 90 90 92 92 91 92 96 98 94 64 60 58 57 51 41 38 37 34
74 62 61 56 59 54 61 61 64 63 63 63 68 73 75 80 80 81 88 92 87 89 91 92 92 92 89 90 90 91 90 91 93 89 85 73 64 44 40 36 33 31 29 29
78 82 89 73 62 64 67 70 72 70 70 68 66 74 74 81 79 80 87 90 95 95 95 92 90 91 89 88 89 90 92 92 88 68 51 43 40 39 35 34 34 31 27 27
87 87 68 65 75 73 73 73 75 74 70 68 66 71 70 78 77 81 85 89 94 94 95 95 92 89 88 87 88 90 90 83 73 47 39 42 42 45 46 48 56 42 35 33
42 57 58 76 87 82 78 74 70 70 70 70 69 70 70 73 73 76 84 83 84 87 89 90 90 89 86 85 85 87 85 78 62 41 38 39 39 40 44 46 46 43 40 43
56 73 90 90 83 79 76 76 78 82 82 82 81 82 80 81 80 76 72 74 82 88 88 90 91 89 88 89 88 86 86 83 74 54 38 38 35 41 50 52 44 29 25 23
84 92 92 96 83 89 84 81 84 88 87 86 85 84 84 81 83 83 74 71 86 91 87 88 87 82 83 84 87 87 84 80 71 58 41 41 40 46 50 46 35 28 25 24
100 97 97 100 98 93 92 92 91 92 89 89 91 89 82 86 89 86 81 75 73 80 84 84 82 82 83 81 82 85 85 83 79 59 44 40 42 46 44 39 31 27 25 25
94 99 100 98 98 96 97 91 92 91 90 86 82 77 76 83 88 83 78 74 70 71 75 78 80 80 80 79 79 81 82 83 89 75 62 87 45 42 40 34 30 28 26 26
97 100 100 96 86 89 89 92 92 87 84 82 79 77 76 76 75 74 74 71 71 76 69 69 74 79 79 78 76 77 79 83 91 91 99 94 96 50 38 34 31 28 27 27
99 97 98 98 91 83 77 76 81 83 93 95 94 97 97 96 85 78 71 71 71 70 67 65 66 71 74 75 75 75 76 81 97 98 93 81 96 94 43 37 32 30 28 28
99 99 98 99 91 80 86 81 76 79 78 81 94 99 100 100 100 99 92 80 75 73 68 71 74 66 65 70 76 86 79 96 98 98 97 98 98 94 89 66 36 33 31 30
97 99 99 99 95 82 66 59 83 80 78 76 78 86 88 93 98 99 96 97 98 95 90 78 76 75 88 76 73 81 74 88 98 98 98 98 98 98 97 89 43 34 31 28
98 99 99 99 98 96 62 54 76 82 82 81 77 79 83 88 99 97 96 96 100 99 99 98 96 95 81 96 96 97 98 98 98 98 98 98 98 98 98 97 63 34 32 28
95 99 99 98 98 97 74 50 65 71 72 77 82 84 86 82 75 94 96 100 100 99 100 100 100 100 99 97 99 99 99 98 98 98 98 98 98 98 98 70 38 34 30 27
98 99 98 93 94 90 80 52 63 67 69 66 69 77 78 80 82 79 90 100 100 100 98 100 100 100 100 100 100 99 100 99 98 98 98 98 97 98 76 40 37 33 29 25
99 99 98 83 82 70 51 53 78 69 70 67 62 70 65 73 77 80 83 91 98 100 100 100 100 100 100 100 100 100 100 100 100 99 98 98 98 98 59 39 36 33 28 26
99 99 98 98 87 55 49 50 66 80 68 70 68 68 61 66 71 75 79 86 98 100 98 99 100 100 100 100 100 100 99 99 99 99 98 98 98 80 43 38 36 34 30 25

GFSNGP_925_rhum_054.txt.gz
RH
69 62 84 89 87 86 96 82 88 62 64 53 46 42 37 42 56 73 78 80 80 87 90 87 86 84 83 82 83 83 86 88 90 92 94 98 100 100 100 98 98 100 98 97
82 68 83 85 83 89 83 81 84 81 84 59 47 44 40 44 58 70 72 72 78 82 88 89 86 85 84 84 84 86 88 92 93 95 98 100 100 100 100 100 99 99 99 99
80 76 71 84 76 80 81 82 72 85 63 58 59 58 50 46 49 60 65 70 74 79 84 83 83 82 86 87 85 86 90 92 94 97 100 100 100 100 100 100 99 99 100 98
88 76 74 46 47 58 68 63 73 76 67 66 61 56 54 47 49 65 71 74 76 78 78 78 79 82 87 89 88 89 92 94 96 99 100 100 100 100 100 100 97 97 98 98
90 95 67 44 62 65 66 62 57 63 60 60 64 49 56 49 54 56 67 73 72 69 72 79 82 85 91 93 92 92 94 97 99 100 100 100 100 100 100 98 96 92 88 77
92 86 85 49 58 54 54 78 54 63 68 67 64 79 59 54 64 70 72 68 73 73 76 81 86 89 94 96 95 96 97 98 99 100 100 100 99 99 99 96 95 96 77 73
89 89 82 59 52 51 76 58 63 67 72 66 74 62 55 72 76 77 79 79 77 79 84 84 88 94 98 99 99 97 98 99 100 100 100 100 99 98 99 99 99 77 73 72
91 93 92 50 59 67 56 65 67 70 67 61 66 67 75 79 84 86 88 89 83 85 87 87 91 96 100 100 97 98 98 100 100 100 100 99 97 99 96 72 66 65 66 57
81 77 52 46 59 55 65 73 68 66 66 59 72 74 78 84 86 87 86 87 83 83 88 90 94 94 98 96 97 98 100 100 100 100 98 98 100 80 70 64 58 54 49 43
69 56 59 60 59 59 68 71 70 63 65 71 69 79 76 82 84 86 86 86 83 85 90 95 92 93 92 91 94 97 99 98 99 99 99 100 71 58 56 56 51 46 42 37
80 65 78 61 67 72 57 71 75 70 63 65 71 75 73 77 81 80 82 84 84 86 87 87 88 89 89 90 92 96 96 94 100 100 100 83 63 58 55 49 42 36 32 30
90 94 87 74 53 44 76 82 75 79 70 68 67 72 75 84 81 81 85 88 92 94 95 91 89 88 84 86 89 92 94 94 96 97 97 88 76 66 45 40 37 33 33 26
60 52 57 54 52 54 88 73 80 82 77 73 70 74 72 79 79 83 84 88 90 90 90 92 96 99 94 86 87 90 91 90 91 92 89 70 51 43 44 41 45 57 38 36
75 62 64 53 62 81 85 76 78 73 73 73 71 72 72 74 74 76 82 83 86 90 92 92 96 97 95 94 89 87 86 86 85 87 79 53 43 42 44 46 45 46 50 58
78 70 78 80 84 78 86 82 81 82 82 84 83 83 81 82 82 81 77 74 78 88 92 93 94 91 90 89 92 90 89 90 88 80 71 49 38 40 42 44 46 46 40 27
96 96 94 97 97 93 88 88 92 90 87 87 86 87 87 83 81 80 83 81 82 85 83 93 94 89 90 91 92 94 92 90 90 83 75 59 45 43 42 45 51 51 41 27
98 97 97 97 97 96 90 95 96 95 90 90 90 87 82 84 87 86 84 81 78 76 79 87 86 88 91 92 93 94 96 95 96 94 86 74 55 45 44 43 47 46 38 28
99 98 100 100 99 100 99 99 99 96 90 85 81 77 76 78 83 82 79 76 72 71 74 76 81 85 87 91 92 91 92 92 93 96 90 79 82 61 49 54 45 42 35 28
97 99 98 98 97 100 100 100 98 100 94 90 84 86 86 88 81 77 72 74 76 76 74 69 71 79 84 84 87 89 89 88 89 94 93 88 96 98 98 95 79 41 33 30
96 98 98 97 99 99 91 86 78 80 84 91 98 98 99 100 100 98 86 77 79 81 75 70 67 68 74 77 79 80 81 83 88 93 97 99 99 99 98 98 97 48 34 31
95 98 99 98 98 96 80 83 90 85 83 80 84 90 98 99 99 100 98 92 98 99 95 78 72 77 80 70 73 81 83 81 84 93 98 98 98 98 98 98 97 91 96 37
90 98 99 98 98 91 79 72 96 93 85 77 77 81 83 87 92 98 100 100 99 100 100 98 96 91 85 83 83 76 85 87 95 98 98 98 98 98 97 98 97 97 97 78
77 94 100 99 99 98 94 56 73 77 79 84 82 82 84 86 86 99 97 92 99 98 99 100 99 100 99 93 89 93 92 93 97 98 98 98 98 98 98 97 97 98 98 90
74 86 99 99 98 98 97 92 80 87 72 74 76 83 86 84 78 95 86 100 100 100 99 98 100 99 100 100 98 98 99 99 99 98 98 98 98 98 97 97 98 98 81 40
86 96 99 99 98 96 97 85 53 60 75 64 62 70 74 79 84 80 82 88 100 100 99 98 99 96 96 97 100 99 100 99 99 99 98 98 98 98 97 98 98 87 41 36
96 99 99 99 99 98 88 83 76 69 74 72 61 64 65 67 73 77 79 83 94 100 99 99 99 99 100 100 100 99 98 97 99 100 99 98 98 97 97 98 86 40 37 35
95 99 100 99 98 98 88 57 67 70 77 77 70 65 66 59 61 66 72 79 86 100 100 100 98 100 100 98 99 99 99 98 99 99 99 98 98 98 98 95 49 39 37 35

GFSNGP_925_rhum_060.txt.gz
RH
56 64 71 70 62 59 76 61 70 52 48 38 35 37 38 36 36 36 35 46 53 55 53 58 65 70 70 70 73 76 79 82 84 87 92 97 98 97 96 96 97 99 99 99
77 61 64 70 61 61 60 57 55 53 56 41 39 38 39 37 36 38 38 38 46 52 54 57 62 68 71 73 74 77 77 80 85 91 93 96 99 99 99 100 99 99 99 100
75 62 59 64 54 54 56 58 56 63 48 39 44 43 44 42 40 40 39 36 38 44 52 57 60 67 72 76 76 78 76 79 85 90 95 100 100 99 100 100 100 100 99 100
76 63 68 45 41 46 49 46 46 51 48 43 46 46 46 42 43 43 37 37 36 39 47 54 61 71 77 80 78 79 80 82 88 94 99 100 100 100 100 100 100 100 99 99
74 64 48 54 56 52 53 56 48 52 52 52 52 55 42 41 43 43 40 35 34 39 45 56 67 78 81 84 82 84 84 85 91 98 100 99 100 100 100 100 100 100 99 99
66 72 59 46 49 48 48 60 54 55 54 60 61 64 45 46 47 49 45 42 47 53 54 62 69 76 79 82 86 87 87 90 94 100 99 99 99 100 99 100 97 92 84 73
66 68 50 42 48 47 66 65 56 58 62 62 66 60 54 46 52 60 65 64 68 66 64 67 76 81 81 84 90 89 90 96 100 99 100 100 100 100 100 100 95 89 77 74
66 71 72 50 54 59 63 47 47 45 51 63 62 61 57 54 58 63 67 74 74 72 77 82 85 83 84 85 89 93 95 100 100 100 100 100 100 100 100 98 97 91 78 75
62 57 56 50 55 57 44 44 42 43 44 56 54 59 60 59 59 61 68 72 75 74 79 83 86 82 81 83 93 94 99 100 100 100 100 100 100 100 100 100 97 78 71 63
65 63 56 42 57 41 45 52 51 44 52 57 51 48 63 60 60 62 69 71 75 75 74 79 85 85 82 88 94 96 96 100 100 100 100 100 100 100 100 97 85 65 63 53
55 50 47 55 43 48 57 55 50 49 59 61 57 48 56 64 62 66 71 74 75 73 73 75 83 86 88 94 98 98 97 100 100 100 100 100 100 99 98 75 64 56 50 45
60 55 64 61 59 63 66 62 60 70 72 67 65 58 55 66 65 68 69 79 80 79 82 89 92 93 92 92 91 96 99 100 100 100 100 100 100 100 95 70 50 46 46 40
74 66 73 74 70 67 67 74 74 74 76 80 74 71 67 67 68 76 77 76 76 79 83 82 89 93 91 91 95 99 100 99 99 100 100 100 100 93 65 68 64 62 50 44
73 76 88 81 86 80 85 80 78 79 75 76 78 77 73 69 71 77 85 85 85 85 85 86 88 90 96 92 95 97 98 100 94 99 100 100 100 93 69 60 58 63 60 65
73 77 86 83 84 80 77 79 88 94 85 73 72 77 76 72 69 72 78 79 79 81 84 90 92 90 94 100 99 98 100 100 100 99 97 94 94 90 86 80 57 47 47 52
78 83 84 87 93 86 86 88 97 96 92 86 83 84 85 87 85 83 84 86 84 76 79 84 88 92 100 100 100 100 100 100 100 100 97 95 89 81 74 67 58 52 49 41
87 91 90 92 96 95 91 89 97 97 97 97 98 100 100 96 95 83 79 81 81 81 85 83 85 85 91 100 100 100 100 100 100 100 99 95 93 88 82 73 65 52 45 40
68 71 78 85 96 92 90 85 89 94 98 98 99 99 99 99 99 88 78 77 80 84 78 75 73 79 87 95 100 100 100 100 100 100 100 99 94 91 86 76 80 73 56 48
69 68 74 81 85 87 92 94 87 92 98 100 99 98 99 100 99 99 94 75 76 77 95 83 74 73 85 91 99 100 100 100 100 100 100 100 99 98 93 87 87 95 94 93
69 70 73 81 85 90 91 90 70 74 79 84 89 87 94 95 94 95 99 90 100 99 99 100 90 79 77 76 84 97 100 100 100 100 100 100 100 100 99 98 98 99 99 98
77 82 87 93 90 89 93 94 90 80 80 84 80 76 78 88 87 91 95 91 100 99 99 99 100 100 98 87 84 81 88 93 95 96 96 100 100 100 100 100 99 99 100 100
75 83 88 96 91 88 92 100 98 75 82 84 89 88 84 79 82 96 99 96 99 99 100 100 99 98 100 99 93 89 91 89 89 90 95 96 100 100 100 100 100 100 100 100
77 83 88 96 92 94 98 100 100 92 88 91 94 95 98 98 96 90 79 88 100 100 100 100 99 100 99 97 98 98 96 94 94 96 100 100 100 100 100 100 100 100 100 100
80 82 86 88 94 99 96 92 99 98 97 97 94 90 94 95 96 94 89 84 95 100 99 100 99 99 97 99 100 99 99 98 100 100 99 99 100 100 100 100 100 100 100 100
79 83 86 94 91 89 94 99 99 98 97 97 97 94 91 94 94 92 92 86 89 100 100 99 99 99 100 99 100 100 99 99 99 99 97 100 100 100 100 100 100 100 100 100
73 69 72 83 91 96 99 100 97 98 98 98 86 86 82 82 80 79 82 92 85 93 94 100 100 100 100 99 100 99 98 98 97 97 97 100 100 99 99 99 100 99 100 99
65 64 67 67 67 82 92 99 99 98 98 97 89 85 89 88 78 78 69 66 69 79 85 91 96 100 99 97 96 97 97 98 99 100 100 99 99 98 98 97 97 97 99 92

GFSNGP_925_rhum_066.txt.gz
RH
54 58 68 60 58 55 69 66 72 59 53 41 39 39 38 38 38 40 40 38 37 45 57 53 56 57 58 61 62 63 64 66 67 68 70 72 75 79 82 82 84 85 88 90
82 53 55 64 56 54 52 56 54 52 55 41 40 46 47 49 50 50 47 44 43 38 50 52 54 56 58 60 62 65 68 70 71 72 74 77 81 85 87 89 90 90 92 94
82 53 53 69 58 55 53 49 49 62 48 45 54 55 57 57 52 49 48 46 46 46 43 45 50 54 58 61 63 65 67 69 72 75 79 84 86 88 94 94 94 95 97 97
88 69 86 50 37 42 42 45 43 40 48 52 56 56 55 57 64 59 51 50 51 48 44 37 43 51 57 62 64 65 67 67 70 75 80 84 89 95 100 97 98 99 99 100
93 85 53 60 52 52 55 69 57 59 58 60 58 61 58 51 52 61 54 55 54 53 52 42 42 48 57 65 66 67 70 69 72 77 82 87 95 100 99 100 100 100 100 100
67 79 65 60 46 41 42 83 54 51 53 56 57 77 65 55 48 56 54 55 58 60 59 52 45 52 61 69 69 70 72 72 75 80 84 88 98 99 97 99 99 99 99 100
75 81 64 52 47 42 71 77 47 46 47 50 56 56 50 49 48 44 57 55 60 63 62 59 57 61 70 75 76 75 75 76 79 84 88 97 99 100 99 99 100 100 100 99
68 80 78 50 53 67 60 48 53 56 57 58 54 48 46 49 48 46 47 58 59 66 67 68 66 66 72 75 77 78 79 81 85 88 94 98 99 100 100 100 100 99 94 83
63 73 55 42 55 48 49 55 62 66 63 57 56 56 60 61 57 50 44 59 60 65 69 73 74 73 75 76 79 82 83 86 89 91 96 100 100 100 100 100 100 99 93 81
69 61 54 44 48 49 61 67 66 63 64 63 72 71 73 70 67 59 53 50 62 64 69 72 74 76 73 75 78 82 85 89 91 95 98 99 100 100 100 100 100 98 89 77
60 51 47 52 58 67 68 65 67 66 69 71 70 70 69 72 73 71 65 56 66 67 67 67 69 73 72 73 77 81 84 87 90 97 100 100 100 98 99 99 98 96 90 80
72 69 69 63 69 68 73 72 72 75 77 72 70 71 66 67 70 72 70 66 67 72 72 70 69 71 73 74 79 82 87 91 97 100 100 99 100 100 99 99 98 100 90 76
64 61 70 71 66 69 74 75 76 75 73 77 74 80 84 82 69 67 70 71 68 74 74 76 76 81 79 76 83 86 88 94 98 99 100 99 100 100 100 99 99 91 83 65
58 67 72 69 79 73 72 73 76 78 79 78 80 82 80 82 86 76 74 78 76 73 80 80 85 88 86 86 91 94 96 95 95 98 99 100 100 99 99 98 97 99 97 84
54 55 62 63 64 70 68 76 77 78 77 78 80 84 84 91 92 95 93 88 87 82 80 76 78 80 80 83 87 93 100 99 97 97 98 100 100 100 99 99 93 74 66 70
58 63 68 66 68 71 71 76 75 73 75 76 78 82 87 92 95 98 100 97 95 88 86 86 83 82 83 90 88 86 98 100 100 100 100 100 100 100 100 100 98 92 64 57
82 82 78 84 82 77 76 74 73 74 76 78 80 84 83 95 96 97 97 100 100 99 100 97 94 92 85 85 99 97 93 99 100 100 100 100 100 100 100 100 99 94 86 73
50 55 62 68 80 80 74 70 73 74 78 85 95 92 86 86 86 93 98 100 100 99 100 100 98 99 99 94 91 98 100 99 100 100 100 100 100 100 100 100 100 98 90 91
50 55 60 64 65 69 72 77 80 76 77 81 92 88 86 83 87 90 99 100 99 99 100 99 99 99 98 99 98 100 100 100 100 100 100 100 100 100 100 100 100 100 100 100
63 63 68 73 73 77 78 76 81 77 76 78 87 89 84 76 73 75 88 98 95 97 97 97 98 99 98 99 94 94 100 100 100 100 100 100 100 100 100 100 99 99 99 98
77 72 79 83 85 80 80 77 83 85 83 88 100 97 92 90 84 77 79 89 98 97 98 99 99 99 98 98 100 96 91 98 100 100 100 100 100 100 100 100 99 99 99 99
63 71 71 73 84 83 76 74 84 89 87 83 99 99 98 97 92 95 96 90 92 87 90 95 97 98 98 99 99 97 96 97 95 96 99 100 100 100 100 100 100 100 100 99
60 58 62 67 75 75 76 78 85 87 87 95 99 99 98 97 98 98 95 97 94 88 97 96 97 98 98 99 98 100 98 96 98 98 98 96 98 98 98 99 99 100 100 100
63 64 68 67 68 78 90 73 69 80 89 100 100 99 99 98 98 97 98 98 97 94 97 98 100 99 98 98 99 99 98 99 99 98 98 95 98 99 100 100 100 100 100 99
74 74 76 74 71 73 64 63 73 81 81 90 99 97 98 97 98 97 97 96 97 98 94 95 100 100 98 98 98 98 98 98 99 99 98 99 99 97 99 100 100 100 100 100
79 83 77 64 59 59 69 62 65 70 78 85 95 99 98 97 97 97 97 96 96 97 95 96 96 95 97 99 99 98 98 98 98 98 99 99 97 99 100 100 100 100 99 100
76 72 73 71 56 61 68 69 61 67 74 88 95 100 98 97 97 97 97 92 92 91 90 93 92 92 95 97 96 97 98 98 99 100 98 100 100 100 100 100 99 100 100 100

GFSNGP_925_rhum_069.txt.gz
RH
62 62 66 64 66 67 74 68 74 58 54 48 50 51 46 48 52 53 51 50 52 53 58 62 59 58 60 60 61 61 62 63 64 66 68 69 71 73 75 78 80 82 83 86
83 56 58 65 61 59 62 62 64 59 61 44 49 57 62 64 57 55 54 52 51 52 52 52 64 60 59 60 62 62 63 64 66 68 70 71 73 76 80 82 84 86 87 88
85 56 54 68 62 61 57 51 56 68 54 57 66 64 67 71 70 68 62 55 56 58 57 53 49 60 60 60 61 64 64 66 68 69 70 73 77 82 84 89 89 89 91 93
91 71 76 51 41 45 58 64 57 62 66 66 63 62 68 62 62 68 69 60 63 62 61 58 56 55 60 59 62 64 65 67 71 73 74 78 82 86 88 94 93 94 96 98
92 90 59 60 52 52 61 74 63 67 62 60 53 61 67 56 48 56 62 63 63 60 62 63 59 54 66 65 64 65 66 68 71 73 77 83 86 88 98 100 99 99 99 100
80 84 78 62 48 44 45 84 58 56 55 56 56 75 69 51 48 52 48 47 54 62 61 65 63 58 69 71 69 69 67 67 69 72 75 81 84 89 100 100 99 100 99 99
79 88 70 59 54 45 62 66 57 60 61 64 66 62 56 50 54 54 55 53 47 61 65 67 69 67 78 77 74 69 69 69 71 74 78 82 88 97 100 100 100 100 100 100
81 90 90 53 60 65 65 61 66 67 67 70 65 61 59 67 70 67 64 58 54 63 66 66 71 74 78 78 74 74 73 74 76 79 84 89 95 100 100 100 100 100 100 100
72 75 57 52 64 67 68 73 74 74 73 74 77 78 75 75 74 73 74 72 68 63 69 65 70 75 78 76 77 78 78 79 81 84 89 90 98 99 100 100 100 100 100 95
68 63 57 74 76 74 72 74 71 73 75 76 78 73 71 68 67 67 71 76 75 71 75 73 68 72 78 78 79 80 82 84 87 91 92 92 98 100 100 100 100 100 99 95
67 62 69 80 79 76 74 73 75 73 74 73 74 76 72 73 72 68 67 71 75 76 76 76 70 68 72 75 79 81 84 87 92 93 95 93 98 98 99 99 99 98 98 93
73 72 70 70 76 76 78 79 77 81 80 74 75 76 72 74 75 80 78 72 72 80 83 82 76 71 70 75 78 78 84 87 92 95 95 99 100 100 100 99 100 99 98 94
77 67 76 72 70 72 77 80 79 82 83 88 75 78 81 80 76 78 87 81 82 80 80 80 84 82 84 78 83 87 83 86 90 98 99 100 100 100 100 100 99 100 100 96
69 66 74 73 76 74 77 77 76 78 75 74 74 76 79 83 81 84 87 94 97 90 88 85 81 80 86 92 91 90 87 88 90 95 100 100 100 100 100 100 100 100 99 96
62 61 65 66 65 69 67 71 83 85 79 75 71 73 77 78 78 83 87 89 96 95 94 87 86 84 86 95 94 92 93 96 98 99 99 100 100 100 100 100 100 100 97 95
61 68 71 73 79 80 81 81 82 80 80 80 75 70 78 88 85 84 87 87 94 93 97 96 94 93 90 96 96 100 98 97 97 100 100 100 100 100 100 100 100 99 90 85
82 73 75 79 78 79 80 78 84 81 78 79 71 74 90 94 85 81 78 83 95 98 100 100 100 100 97 96 97 98 100 100 100 100 100 100 100 100 100 100 100 100 97 92
54 58 64 71 82 81 77 72 73 76 83 81 78 76 82 92 93 92 88 82 94 97 97 100 100 100 97 97 97 99 100 100 100 100 99 100 100 100 100 100 100 100 100 99
56 61 63 67 69 78 82 83 82 78 82 88 86 82 80 92 93 93 84 92 95 92 91 99 100 99 97 98 100 97 99 100 100 100 100 100 100 100 100 100 100 100 100 100
67 64 66 71 70 76 83 78 79 83 82 90 88 78 79 94 95 97 96 89 82 86 100 98 99 98 98 99 99 100 100 99 100 100 100 100 100 100 100 100 100 100 100 100
76 70 75 76 74 70 70 68 77 82 80 92 93 83 83 97 99 98 99 94 87 96 100 94 96 98 97 99 100 100 99 98 99 100 100 100 100 100 100 100 100 99 99 99
66 72 71 67 73 74 62 62 69 71 78 91 93 92 96 97 99 98 96 98 95 98 92 94 91 94 99 98 98 98 99 97 98 99 99 99 100 100 100 99 99 99 99 99
66 68 69 71 74 73 68 59 55 65 75 87 93 94 99 99 99 98 95 94 97 97 98 96 94 97 99 98 98 99 99 99 98 98 99 99 99 99 99 99 99 99 100 99
63 65 72 72 76 83 87 51 55 66 68 69 79 84 100 99 97 96 96 98 97 97 98 97 97 98 100 95 98 98 98 98 99 99 99 98 98 98 98 98 99 99 99 100
61 64 67 78 88 82 66 53 60 70 67 64 70 82 92 98 99 97 98 97 97 97 97 96 96 99 96 97 98 97 97 98 98 98 98 98 98 98 98 98 98 98 97 97
65 75 77 78 83 82 79 72 79 70 74 73 72 80 88 93 100 98 97 97 97 96 96 93 95 97 97 97 98 97 98 97 96 97 97 98 97 96 97 97 98 99 98 99
74 74 78 78 72 71 72 76 78 84 72 64 80 80 88 90 99 97 97 97 90 96 95 93 92 94 96 98 96 96 96 96 99 97 96 96 96 97 97 97 98 99 99 100

GFSNGP_925_rhum_072.txt.gz
RH
65 64 68 68 69 71 76 66 67 55 53 55 52 54 59 61 57 55 56 55 56 59 62 55 54 58 63 64 61 63 64 64 64 65 66 66 67 69 71 72 73 76 78 80
82 59 61 64 62 65 71 64 63 60 60 54 58 67 69 68 69 70 67 62 61 62 63 62 60 58 59 65 65 62 63 63 65 67 67 68 70 73 75 76 78 80 83 86
88 68 58 68 57 62 60 58 61 73 62 67 70 72 73 69 66 66 64 60 64 66 69 65 63 62 60 59 64 66 64 65 65 67 69 71 73 75 77 79 82 86 88 89
90 69 81 54 46 51 68 73 68 75 73 67 61 60 65 59 60 60 61 56 56 57 62 69 66 62 63 58 71 67 67 66 66 68 71 73 76 78 80 83 88 90 91 92
87 90 61 57 54 53 60 79 66 67 61 57 55 70 68 55 52 57 60 58 57 54 57 65 66 66 69 67 75 72 67 66 66 67 71 75 78 82 86 88 93 93 94 96
86 85 80 62 51 48 49 85 58 59 67 67 60 69 71 60 58 66 66 65 64 62 60 62 66 70 72 75 84 78 70 66 66 68 71 75 78 84 88 96 100 100 100 99
83 89 75 61 58 51 62 61 68 66 68 70 70 66 60 63 74 73 74 73 73 71 70 66 66 74 75 81 88 80 77 71 69 69 71 73 78 86 90 98 100 100 100 100
86 93 93 54 60 65 66 70 71 70 72 77 75 73 74 78 78 77 77 77 76 80 80 72 66 74 76 79 81 83 79 73 72 73 75 78 82 89 94 99 99 100 100 100
76 78 64 77 71 73 66 76 74 74 75 79 83 82 80 76 73 69 67 69 73 79 80 76 70 73 80 73 78 81 79 76 76 78 80 83 87 94 99 100 100 100 100 100
74 65 82 85 79 75 72 73 73 74 78 80 85 80 73 68 75 71 73 72 68 72 81 83 79 78 73 74 77 84 83 83 84 85 89 91 94 93 99 99 100 100 100 100
73 83 84 83 79 78 77 75 76 77 79 82 84 81 76 72 68 70 73 77 82 75 81 86 82 83 79 73 76 83 86 86 88 89 93 94 91 90 97 98 99 99 99 99
79 72 73 78 79 76 75 79 82 87 90 86 86 78 74 78 78 77 75 79 87 86 86 85 82 83 77 81 76 81 87 89 92 95 98 98 96 97 98 99 100 100 100 100
79 69 75 73 80 73 76 78 80 84 86 90 81 70 70 73 78 81 82 83 81 87 96 98 91 86 82 82 88 86 92 88 93 96 98 100 100 100 100 99 99 100 100 100
70 73 77 72 73 69 70 74 73 76 78 78 77 76 72 68 72 76 81 81 84 85 91 92 96 93 86 86 98 97 90 91 97 94 98 100 100 100 100 100 100 100 100 100
62 62 63 64 65 70 70 74 82 84 82 81 74 77 77 67 70 79 84 83 82 84 88 92 95 96 94 92 90 100 100 100 98 97 96 99 100 100 100 100 100 100 99 100
61 63 65 67 73 74 76 78 82 86 84 83 84 82 74 76 83 88 82 82 80 80 84 92 99 98 100 99 99 96 100 100 100 100 100 100 100 100 100 100 100 100 100 99
80 66 71 84 75 76 76 82 84 85 81 84 81 82 87 81 83 86 89 85 87 80 86 89 96 99 100 100 100 100 100 100 100 100 100 100 100 100 100 100 100 100 99 98
55 59 64 72 84 82 80 77 78 77 78 73 78 89 96 92 90 87 91 93 96 92 89 82 84 100 99 99 99 100 99 100 100 100 100 100 100 99 100 100 100 100 100 99
59 65 66 69 71 80 84 84 77 72 74 75 87 93 95 95 89 86 94 100 100 98 88 79 83 91 97 96 99 99 99 99 99 100 100 100 100 100 100 100 100 100 100 100
67 65 66 69 66 72 78 70 71 75 72 75 79 93 95 91 87 89 99 99 97 93 91 93 96 97 94 95 98 100 100 99 99 100 100 100 100 100 100 100 100 100 100 100
76 68 74 74 74 68 68 67 71 74 64 73 86 92 92 94 86 93 98 96 87 88 94 100 98 95 91 95 100 100 100 99 99 99 99 100 100 100 100 100 100 100 100 100
69 73 67 65 75 76 67 68 71 68 66 66 73 81 93 89 89 94 98 98 96 97 99 98 97 93 96 99 100 97 96 98 98 99 99 99 100 100 100 100 100 99 99 99
57 59 62 67 72 77 78 74 70 62 63 68 78 80 89 92 94 97 93 90 98 98 98 97 97 97 98 99 91 95 98 98 98 99 99 99 99 99 99 99 99 99 99 99
57 58 61 59 67 79 88 71 72 70 62 61 72 63 74 98 92 97 97 97 97 97 97 97 97 96 98 92 97 98 98 98 98 98 99 99 98 98 98 98 98 98 98 99
56 62 64 72 83 85 82 81 84 82 75 67 71 65 56 70 95 99 100 98 97 97 96 96 96 96 94 96 98 96 97 98 99 99 99 98 98 97 98 98 97 97 96 96
65 70 75 76 82 83 80 82 91 88 88 89 80 76 58 67 83 95 99 99 97 97 96 96 96 97 94 95 97 96 97 97 97 97 97 97 97 97 98 97 97 98 96 96
71 73 79 81 75 73 77 83 84 89 90 96 94 79 70 75 71 88 100 100 97 96 96 96 92 94 96 95 95 96 96 95 97 96 97 96 97 97 96 96 97 96 96 96

GFSNGP_925_rhum_075.txt.gz
RH
71 69 70 70 69 72 77 64 64 55 53 53 57 64 67 64 66 70 70 69 70 73 75 68 65 61 58 56 64 68 69 69 68 68 69 69 70 72 72 71 70 71 72 75
83 66 62 66 64 72 72 68 62 62 63 56 69 72 79 81 73 67 66 63 63 64 65 70 71 68 65 61 58 67 70 68 68 69 69 69 70 73 74 74 75 77 77 79
84 70 56 69 57 65 67 66 66 79 65 75 75 79 72 65 60 61 63 59 60 62 61 59 63 71 70 69 66 64 72 69 69 70 70 70 71 74 75 75 76 79 82 85
89 69 79 53 49 53 68 74 75 81 77 69 67 74 64 57 55 58 63 63 65 64 62 61 60 66 72 72 69 70 73 72 69 70 71 72 73 76 77 79 80 82 86 89
87 88 65 56 56 70 65 74 65 72 62 57 56 75 68 57 53 58 64 67 69 69 70 68 65 64 74 75 72 77 76 75 70 69 71 74 75 78 80 81 84 84 88 91
84 88 84 56 53 52 53 75 60 61 63 62 61 91 76 64 66 76 76 76 78 78 79 78 72 69 75 77 77 78 83 81 77 72 72 73 74 78 81 84 84 89 94 94
84 90 74 56 56 54 68 63 65 65 67 69 67 64 66 71 76 73 74 73 73 74 80 79 75 77 80 80 77 74 82 88 83 75 72 71 75 79 83 87 93 99 98 99
83 86 92 63 59 61 65 73 71 70 71 76 78 82 80 81 82 79 77 74 73 75 78 74 74 82 87 88 75 77 83 88 85 79 75 76 79 83 88 94 97 99 99 100
78 78 72 82 72 74 68 75 74 74 78 82 87 84 85 84 80 79 76 74 79 80 79 72 72 82 92 86 81 80 85 85 85 83 82 81 84 87 96 98 100 99 100 99
74 71 80 82 78 75 74 76 77 79 83 86 92 90 89 84 79 74 71 72 73 79 81 81 87 87 84 86 84 82 87 87 87 86 86 88 89 90 95 100 100 100 100 100
77 83 82 81 79 77 78 76 79 80 82 88 91 91 90 79 75 76 80 82 81 85 88 89 95 98 91 86 87 87 87 89 88 89 93 92 93 92 93 91 90 99 99 99
84 73 74 75 79 78 72 74 78 85 87 84 85 90 79 74 69 69 73 74 83 82 82 82 88 96 99 90 90 94 90 90 90 91 94 97 98 99 97 94 92 97 100 100
74 72 75 77 81 74 68 70 75 82 83 88 82 81 81 79 73 67 68 72 80 88 87 84 86 91 93 94 97 97 100 98 94 98 95 98 100 100 100 97 100 100 100 100
70 74 77 72 70 71 68 71 74 75 74 75 77 75 79 83 77 73 70 71 76 80 83 84 85 87 94 98 99 99 98 100 100 99 100 100 100 100 100 100 100 99 99 99
59 59 58 66 63 69 71 73 79 79 78 80 71 79 80 86 84 76 71 73 76 81 80 82 81 83 90 97 100 100 100 100 100 100 100 100 100 100 100 100 100 100 99 100
60 61 64 63 66 69 71 73 77 82 80 78 78 77 76 83 86 86 84 84 90 86 85 88 80 86 87 95 100 100 100 100 100 100 100 100 100 100 100 100 100 100 100 99
75 58 65 83 74 72 74 78 85 87 82 82 78 72 80 89 96 97 91 87 88 88 92 94 89 84 85 93 100 100 100 100 100 100 100 100 100 100 100 100 100 100 99 99
55 57 62 69 84 81 80 77 78 80 82 69 71 78 87 91 92 90 90 90 92 95 100 93 89 88 83 99 92 100 99 100 100 100 100 100 100 100 100 100 100 100 100 99
58 65 67 70 72 79 83 83 78 71 71 69 76 85 82 85 88 91 92 92 89 89 90 93 90 91 97 96 99 100 100 99 100 100 99 99 100 100 100 100 100 100 100 100
63 63 64 65 62 68 76 68 70 76 72 71 72 81 86 81 82 88 93 84 86 93 93 96 96 100 100 98 97 100 100 100 100 100 100 100 100 100 100 100 100 100 100 100
76 68 70 69 67 59 59 62 73 82 72 73 76 80 82 77 80 89 89 85 87 93 99 99 99 99 98 96 91 100 100 100 100 100 100 99 100 100 100 100 100 100 100 100
68 72 67 62 66 65 57 64 71 76 81 81 70 73 82 82 77 89 86 88 92 95 98 99 98 97 98 99 99 99 97 94 100 100 100 100 100 100 100 100 100 100 100 100
60 61 60 58 63 66 71 68 66 74 80 80 79 73 78 80 77 100 92 85 98 100 99 97 97 97 98 98 98 96 93 98 100 99 99 99 100 100 100 99 99 99 100 99
57 55 58 59 66 76 86 71 72 74 79 78 81 78 81 87 75 64 83 98 100 100 99 98 97 98 98 96 95 97 98 98 98 98 98 99 99 98 98 98 98 99 99 99
67 68 70 72 82 83 82 82 85 85 85 88 87 86 85 83 85 75 81 98 99 100 95 96 99 98 97 96 97 97 97 97 98 97 98 98 98 97 98 98 98 98 98 98
75 79 78 77 83 88 89 89 96 93 97 97 94 93 88 84 80 81 77 82 99 99 97 96 96 97 96 96 96 97 97 96 96 97 97 98 98 97 97 97 98 97 97 97
80 81 87 88 85 88 91 92 93 96 97 99 97 96 95 84 76 78 79 82 99 99 96 96 96 96 96 97 96 96 96 96 99 96 96 97 96 96 96 97 97 97 97 97

GFSNGP_925_rhum_078.txt.gz
RH
76 73 72 71 72 70 76 64 60 62 64 62 59 68 74 72 77 70 66 63 64 66 69 62 60 62 66 63 62 60 63 67 68 71 72 72 70 70 73 74 73 72 70 71
82 67 62 69 69 74 71 65 62 62 58 55 69 79 84 78 65 64 61 60 60 63 64 63 62 62 68 70 68 68 65 64 69 72 71 71 73 75 76 75 73 72 73 73
85 72 61 66 57 67 70 68 67 73 59 78 77 82 75 63 59 61 65 65 68 70 69 67 68 67 69 72 73 71 71 68 72 72 73 73 74 76 76 75 75 76 76 78
87 71 76 52 52 55 66 74 77 76 78 72 78 73 64 60 65 69 71 73 75 75 75 76 74 71 72 72 74 75 72 75 74 77 76 77 77 78 79 79 78 78 79 81
87 90 62 59 59 68 65 65 68 76 61 63 70 64 63 58 62 66 74 78 77 76 78 77 77 75 78 76 77 79 74 76 81 80 78 78 78 80 80 80 81 81 80 84
83 88 80 58 56 57 55 73 62 61 61 62 78 81 82 67 73 79 78 77 77 76 75 75 74 78 86 87 87 86 80 79 86 87 82 78 76 79 80 82 82 83 85 86
80 91 74 58 59 55 68 62 62 63 66 67 66 68 73 80 80 77 78 76 76 78 81 79 76 80 88 88 92 90 85 82 86 90 89 81 77 80 80 84 87 90 94 98
80 79 90 74 61 58 64 73 70 70 72 74 77 83 83 84 87 84 83 77 75 77 79 84 79 87 93 92 83 86 88 84 88 90 91 90 84 82 86 89 94 98 100 99
80 74 72 80 74 74 72 76 74 72 78 81 87 84 90 91 89 86 79 77 78 77 83 81 82 94 100 95 89 88 86 86 88 90 91 91 90 88 94 96 100 100 100 99
74 71 74 79 77 75 73 76 78 79 82 85 91 90 90 90 88 84 79 78 84 83 86 87 82 84 96 100 100 92 92 90 88 93 93 94 96 95 96 100 100 100 100 100
81 73 82 83 81 76 79 75 78 79 83 87 85 82 87 87 80 76 73 72 75 82 88 89 88 86 85 90 97 100 100 96 94 92 94 97 96 94 97 96 96 96 98 98
82 70 74 70 78 79 69 67 74 83 81 79 82 86 84 87 80 78 76 73 73 72 75 84 90 88 86 86 91 99 98 98 100 100 96 98 100 100 100 97 95 95 90 91
68 73 74 79 80 75 67 68 73 79 79 84 81 80 82 86 80 78 78 75 73 72 74 77 80 82 83 86 90 96 98 99 99 100 100 100 100 100 100 99 100 96 95 100
74 75 75 75 72 75 66 70 74 72 72 72 74 72 76 81 79 81 84 78 76 74 77 80 83 84 84 82 86 90 90 99 100 100 100 100 100 100 100 100 100 99 99 99
58 59 58 69 64 63 66 70 72 75 76 76 68 72 71 80 82 80 75 77 83 85 88 88 81 83 85 84 84 87 95 98 100 100 100 100 100 100 100 100 100 100 98 99
62 62 64 58 59 61 65 67 72 77 77 77 76 69 64 70 76 77 74 75 94 91 90 92 89 91 94 92 92 93 97 99 100 100 100 100 100 100 100 100 100 100 100 99
69 50 61 76 64 66 69 76 82 85 82 82 77 66 70 77 81 78 68 74 86 94 96 94 90 97 98 98 98 99 100 99 100 100 100 100 100 100 100 100 100 100 99 99
51 54 58 67 84 79 78 75 76 78 85 76 74 78 83 86 88 80 73 73 84 84 86 81 85 90 97 97 96 100 100 100 99 100 100 100 100 100 100 100 100 100 99 99
56 60 63 68 71 76 80 79 72 67 67 71 81 86 78 77 78 75 71 87 95 90 77 84 92 99 98 95 100 99 98 100 97 100 100 99 100 100 100 100 100 100 100 100
60 61 63 65 61 66 69 62 64 71 65 73 78 86 85 76 70 78 77 93 87 84 81 89 98 100 100 100 100 98 98 100 100 100 100 100 100 100 100 100 100 100 100 100
76 71 72 70 64 55 61 60 68 78 71 72 84 85 83 78 72 81 89 92 76 79 88 96 97 100 100 99 98 97 98 98 100 100 100 100 99 99 100 100 100 100 100 100
71 75 68 64 70 66 58 60 66 70 73 75 76 83 87 87 85 83 78 85 70 83 90 99 100 95 100 100 98 98 98 98 97 100 100 100 100 99 99 99 100 100 100 100
68 68 67 67 71 69 69 68 65 70 79 78 84 88 92 92 91 88 89 79 74 92 94 99 99 99 97 97 98 97 97 97 97 98 99 99 98 99 99 99 100 100 100 100
72 69 73 69 75 80 87 75 80 84 84 82 83 85 93 100 96 90 86 84 88 97 92 98 100 99 98 98 96 96 97 97 97 97 97 98 98 98 98 100 100 100 100 100
77 79 80 82 90 90 90 94 96 92 90 91 89 88 90 90 100 96 92 86 80 94 100 100 100 98 98 96 96 96 97 97 97 97 97 97 98 98 98 99 100 100 99 98
86 91 90 92 95 95 98 99 97 97 97 96 96 90 91 96 97 92 88 86 88 93 100 99 97 97 96 96 97 97 96 96 96 96 97 97 97 98 98 98 98 98 97 98
89 88 88 92 85 91 95 85 90 91 92 94 93 91 98 99 95 97 92 89 90 97 100 97 97 96 96 96 96 96 96 96 97 96 96 96 97 97 97 97 97 97 97 97

GFSNGP_925_rhum_081.txt.gz
RH
74 70 72 74 74 71 75 62 59 56 66 63 62 74 74 77 72 63 58 58 61 63 64 66 67 63 59 59 65 72 68 63 61 72 76 76 75 75 74 74 74 73 72 72
80 67 62 73 74 76 70 63 64 63 55 57 72 79 82 72 62 61 62 65 66 67 70 72 74 72 67 62 56 65 71 70 68 65 74 77 78 79 79 78 77 74 72 70
84 71 61 65 64 66 71 71 66 65 63 75 80 84 72 62 63 66 70 71 73 74 77 79 78 76 77 75 66 64 71 71 70 73 74 78 78 78 78 80 78 77 75 74
86 69 75 53 54 58 63 72 75 77 75 74 83 73 64 64 68 73 75 76 76 78 80 78 76 76 79 80 78 77 77 78 74 77 79 81 84 81 81 81 80 79 78 77
86 88 58 57 60 67 66 65 72 74 65 69 71 65 66 64 70 76 78 80 81 79 80 80 79 82 83 82 84 89 92 89 84 84 89 86 84 82 83 83 81 78 78 79
81 86 72 56 57 60 58 65 64 64 64 71 80 73 76 72 77 78 81 79 80 79 78 80 85 82 86 89 86 87 90 91 86 86 92 93 88 84 83 83 81 82 82 83
77 90 74 58 59 59 66 56 62 62 66 66 65 67 72 80 81 82 81 79 78 78 80 86 80 83 96 97 96 92 88 86 85 85 92 94 96 91 84 85 86 85 86 85
81 85 87 71 63 60 63 72 68 70 72 71 76 80 81 85 87 86 86 81 82 82 86 83 78 88 91 95 99 99 96 94 89 86 88 94 99 96 92 90 92 94 97 99
76 72 68 74 72 73 74 74 73 70 78 80 82 82 86 86 85 86 81 78 77 76 83 76 82 82 88 86 89 97 99 99 100 94 89 93 98 100 99 98 100 100 100 100
73 70 74 76 78 74 72 73 78 78 79 83 86 86 84 83 85 82 77 75 73 77 81 78 76 78 79 82 87 86 93 94 97 99 97 94 98 100 100 100 100 100 100 100
81 72 76 79 79 77 79 75 78 78 81 83 85 78 80 84 82 78 77 75 74 78 77 75 72 74 74 79 81 82 90 93 95 97 100 99 96 98 100 99 98 100 100 99
80 70 72 69 76 80 75 65 71 78 75 73 80 83 82 82 77 79 80 80 80 75 75 74 75 78 79 80 82 85 89 84 88 98 98 100 100 99 99 99 100 100 99 95
69 72 73 81 81 75 66 66 70 76 76 78 75 76 76 79 73 71 71 68 73 78 78 78 77 74 71 81 84 85 85 89 84 89 96 99 100 100 100 97 100 100 100 99
75 78 76 80 79 80 66 68 70 69 68 69 70 70 74 75 68 65 67 58 62 71 81 79 80 85 78 79 85 91 90 92 92 89 98 100 100 100 100 100 100 100 99 100
64 59 55 74 66 64 63 66 63 66 68 71 66 72 70 71 70 65 59 62 67 76 73 75 83 85 89 93 99 99 98 97 96 88 90 99 100 100 100 100 100 100 100 100
66 65 68 61 55 56 58 60 66 71 72 75 78 75 69 69 70 70 65 64 80 80 76 86 94 91 90 93 94 100 99 99 94 86 89 96 100 100 100 100 100 100 100 100
73 53 57 74 65 53 61 70 78 80 79 79 74 70 73 77 80 76 59 58 66 73 78 79 73 81 83 86 95 100 100 99 94 85 87 96 100 100 100 100 100 100 100 100
45 45 51 58 79 72 72 70 72 73 78 64 68 74 84 89 87 79 68 63 71 73 64 58 70 80 87 99 100 100 100 100 100 96 92 97 99 99 100 100 100 100 100 100
51 54 58 62 67 75 78 76 66 58 58 61 71 78 76 82 84 81 77 79 87 89 54 58 76 90 98 100 100 100 100 100 96 93 91 94 98 99 99 99 100 100 100 100
58 58 61 64 63 68 72 59 60 66 60 67 74 84 86 79 77 81 83 90 84 78 62 66 84 92 98 99 100 100 100 100 100 100 99 99 99 99 98 99 100 100 100 100
76 69 74 75 72 63 62 58 64 72 67 73 82 83 82 81 82 85 91 89 78 75 90 85 90 95 99 100 100 100 100 100 99 100 99 98 96 99 100 99 99 100 100 100
73 77 75 72 76 73 64 68 72 75 80 82 84 86 90 90 91 92 91 91 87 87 90 87 92 94 98 99 99 99 100 99 98 98 99 100 98 98 100 99 100 99 99 100
71 73 75 75 81 82 81 80 84 88 91 91 94 94 95 96 99 96 90 84 94 96 99 99 94 88 96 97 97 98 96 96 97 98 98 98 98 99 99 99 99 99 99 99
78 80 83 86 90 92 96 94 91 90 90 91 91 90 98 96 92 88 91 100 100 100 99 98 97 99 98 97 96 97 96 97 97 97 97 98 97 98 98 98 98 98 99 99
87 87 91 98 96 96 98 94 98 93 95 96 95 95 94 91 97 95 98 99 98 100 99 99 98 98 96 96 96 97 97 96 96 97 96 96 97 97 97 98 98 98 98 99
91 94 94 85 87 88 94 97 92 89 89 88 87 86 91 98 97 97 98 100 100 99 99 97 97 97 97 96 96 96 96 96 96 96 96 96 96 97 97 97 97 97 98 98
89 85 86 86 84 91 96 90 91 93 92 94 95 95 97 98 98 98 100 98 98 100 99 97 97 96 96 96 96 96 95 96 96 96 96 96 96 96 96 97 97 97 97 97

GFSNGP_925_rhum_084.txt.gz
RH
58 57 63 64 62 55 60 50 48 48 46 50 48 51 53 56 49 44 45 46 49 50 48 50 52 54 57 59 60 62 65 70 70 70 72 78 79 81 78 77 78 81 81 80
73 49 54 62 59 60 56 53 48 44 51 41 46 53 58 53 48 48 51 51 51 50 51 53 55 60 62 66 67 68 63 67 75 74 75 80 82 81 78 77 79 78 77 76
72 54 49 51 50 56 61 59 53 48 54 51 58 61 58 51 49 53 55 56 55 53 55 58 60 66 69 73 74 73 73 74 79 79 81 83 85 87 85 85 82 81 83 83
71 54 65 48 44 52 52 60 59 61 61 59 55 58 50 48 50 55 57 57 56 56 60 64 67 71 74 76 75 76 78 80 83 85 84 88 89 90 90 92 91 87 88 87
67 57 50 53 53 56 56 56 60 59 57 62 57 52 55 52 55 58 58 59 61 64 66 68 72 73 74 76 77 77 74 79 85 89 89 89 92 91 91 95 95 93 89 86
61 65 52 50 52 52 54 49 56 55 54 57 57 63 53 56 59 58 62 63 64 67 66 66 72 68 77 76 76 77 80 82 85 90 93 94 98 99 100 98 92 96 89 87
61 64 53 46 47 51 56 46 54 51 50 56 56 52 57 61 62 66 66 66 68 68 65 73 70 72 70 69 73 81 92 88 86 90 93 94 99 100 100 100 97 90 88 86
60 63 54 54 57 53 49 55 53 54 55 57 58 61 63 61 56 57 60 58 60 59 60 68 65 72 64 64 69 74 78 88 91 95 94 97 98 100 100 100 100 99 99 98
53 46 51 55 58 58 55 53 58 57 62 63 63 61 60 53 50 51 54 53 54 57 59 58 58 65 64 61 68 69 69 73 81 76 82 93 98 97 100 100 97 98 100 100
58 56 55 56 61 60 59 58 62 63 64 65 60 58 50 50 49 50 50 51 54 57 56 54 54 60 62 65 68 68 66 65 71 78 91 85 97 100 100 100 100 100 100 100
58 56 59 58 58 57 64 64 64 63 62 60 61 54 53 49 48 49 51 56 59 62 59 56 57 60 60 65 69 70 68 68 68 69 74 88 93 99 100 100 100 100 100 100
46 54 54 55 58 61 65 58 56 56 56 56 60 54 53 47 45 51 50 52 52 51 54 58 64 64 64 66 71 73 73 70 71 74 72 78 89 95 100 99 100 100 100 100
52 57 56 66 67 66 61 56 57 58 59 55 50 53 52 52 53 50 45 46 46 47 52 54 58 64 64 66 72 74 76 76 77 79 76 75 80 89 97 98 100 100 100 100
58 63 68 71 64 67 62 58 62 57 55 53 52 57 60 57 52 47 43 43 48 50 52 54 58 58 59 70 79 80 82 85 89 86 83 80 87 88 97 99 98 99 99 100
66 60 48 61 62 59 55 52 46 43 41 46 54 55 55 54 51 50 51 54 55 56 58 60 60 57 62 74 81 81 83 90 93 92 88 89 90 86 92 100 100 100 100 100
54 54 58 53 50 46 45 43 46 42 45 47 50 49 50 55 56 57 57 60 62 52 51 59 63 63 71 80 79 79 84 91 94 86 87 95 86 90 92 93 99 100 100 100
73 61 58 61 56 41 41 41 47 50 52 51 49 52 56 57 58 56 50 53 57 61 61 68 69 70 79 86 83 85 94 96 96 93 91 95 81 89 92 94 98 99 100 100
41 36 41 44 57 53 49 52 57 62 64 62 67 71 73 74 71 69 68 70 71 70 68 73 76 75 82 86 90 97 97 94 94 91 95 94 87 89 90 96 99 100 99 99
44 46 51 51 56 60 66 73 71 69 66 68 77 77 74 76 75 75 76 78 76 72 65 66 72 75 88 91 92 99 96 96 94 96 93 87 86 84 86 89 97 99 100 100
53 54 57 60 62 64 61 58 58 58 58 61 63 65 65 66 68 71 73 76 77 77 77 82 85 93 96 94 96 99 99 95 90 91 93 92 94 90 96 90 88 93 98 100
70 72 70 69 66 65 65 67 68 66 67 70 72 72 74 78 79 81 83 76 72 77 86 90 88 93 91 90 94 95 95 98 97 93 95 95 93 90 85 84 90 92 95 100
72 75 77 79 75 71 76 84 84 84 82 82 83 85 85 83 81 87 81 84 83 88 95 95 97 98 98 96 95 99 99 96 95 96 96 94 90 90 89 88 93 94 96 99
73 78 84 87 88 90 90 85 80 82 84 89 92 90 91 90 90 87 81 79 93 96 97 96 97 98 95 93 98 99 98 95 93 94 98 98 98 98 96 96 98 99 98 100
81 84 90 94 82 89 83 82 90 90 91 88 85 93 92 87 83 79 86 92 92 96 96 100 100 95 92 98 98 100 99 97 96 98 98 99 99 99 99 99 98 98 99 99
85 89 92 90 78 73 82 84 83 76 79 78 78 78 84 87 94 95 98 99 100 100 99 100 100 100 98 99 100 100 100 99 98 98 98 99 99 99 98 97 98 97 98 98
85 81 82 81 80 80 83 84 78 78 81 79 78 80 87 89 92 97 96 99 100 100 100 100 100 98 99 99 99 99 99 99 97 97 98 99 99 98 98 96 96 97 97 97
85 82 77 72 75 85 86 84 82 82 83 86 87 84 87 91 94 95 96 95 95 99 99 99 99 98 97 97 99 98 97 96 96 97 97 100 98 96 96 96 96 97 97 97

GFSNGP_925_rhum_087.txt.gz
RH
49 48 54 54 52 45 54 37 42 40 43 45 43 45 47 43 40 41 43 44 45 45 43 44 47 49 52 55 56 58 53 53 61 67 66 67 74 79 79 76 78 84 87 89
75 44 48 51 46 46 49 44 38 39 45 35 37 42 48 44 43 44 45 46 46 45 45 47 49 53 56 61 62 62 61 59 64 67 69 73 72 76 79 82 82 79 80 82
68 46 45 49 46 48 51 49 51 42 47 40 47 50 51 46 44 46 48 49 49 47 48 50 53 57 64 66 65 65 65 66 70 72 76 76 78 76 79 81 83 82 81 80
74 52 66 47 40 48 47 50 50 51 52 48 44 49 46 42 44 47 49 49 47 48 51 53 55 61 62 64 66 67 67 66 69 76 81 82 81 83 83 84 85 87 85 82
70 45 43 48 46 48 51 46 49 52 50 55 52 49 51 46 48 51 50 49 51 53 54 53 56 59 56 61 63 64 67 70 74 76 80 84 86 89 91 89 91 92 90 88
49 60 43 46 46 45 46 47 45 49 50 54 53 60 57 51 51 49 50 51 54 54 53 50 54 56 59 57 57 62 66 74 79 79 79 86 90 93 97 98 93 98 97 93
48 53 45 42 44 44 52 51 48 47 46 50 55 52 52 51 50 52 49 50 49 47 44 47 57 53 56 54 53 59 65 65 71 77 83 86 90 94 98 98 99 98 100 98
46 51 48 44 49 50 46 45 45 47 46 49 48 51 53 51 44 40 41 42 41 43 45 48 52 51 51 50 49 54 56 57 57 64 67 68 78 88 90 96 100 100 100 100
43 42 42 44 48 48 46 45 49 49 52 52 54 52 51 46 38 36 38 38 38 40 42 44 44 44 48 46 48 53 53 53 52 55 59 67 76 79 93 99 99 99 97 95
50 39 45 43 46 48 48 49 52 53 53 55 53 46 44 38 36 35 34 36 40 43 42 41 38 39 42 45 49 52 54 54 54 56 57 59 62 76 85 99 100 100 100 100
47 40 47 46 46 46 52 54 56 55 51 48 48 43 40 38 35 34 36 40 44 43 45 43 40 42 45 47 49 51 53 54 54 56 59 61 62 71 80 86 99 100 100 100
35 40 42 47 48 48 54 56 50 49 49 47 47 43 38 37 35 35 39 38 37 39 39 39 40 44 46 50 52 54 57 59 61 64 66 68 68 69 76 84 93 95 99 100
42 45 47 54 55 54 56 53 49 49 46 46 38 37 38 39 39 41 44 39 36 35 36 36 38 41 44 49 53 58 61 64 68 71 74 75 74 76 79 82 83 86 95 98
48 52 59 60 54 58 55 53 54 50 44 40 37 39 42 44 42 40 38 37 38 40 42 42 40 40 44 48 53 61 68 72 77 82 85 84 83 81 78 84 89 84 89 100
53 52 45 51 55 58 54 45 42 37 32 32 35 40 41 40 39 37 38 42 44 46 47 47 45 45 48 50 58 64 69 71 74 80 85 88 83 80 84 80 86 91 91 97
57 48 47 46 44 43 41 37 37 34 32 34 36 36 36 38 42 45 46 45 45 45 47 49 50 50 53 58 65 71 70 70 76 82 84 87 84 87 86 77 83 90 90 92
72 66 58 62 55 39 39 33 34 39 41 42 42 40 42 45 49 52 51 51 55 56 56 58 59 59 63 68 70 76 75 82 87 86 88 90 85 92 88 79 85 87 84 87
41 39 41 45 56 46 44 45 49 56 64 66 67 65 67 70 72 70 69 71 72 71 68 67 66 66 71 75 77 81 84 91 89 90 87 83 85 90 79 84 86 88 88 84
38 46 46 44 49 53 62 74 73 71 72 72 74 75 74 74 72 70 67 70 72 70 65 66 73 80 82 84 87 93 89 95 97 92 88 83 83 85 82 82 85 87 91 83
47 49 52 52 54 55 54 51 53 54 54 57 60 62 64 67 72 76 82 84 79 76 84 87 94 96 93 94 97 98 97 97 97 91 86 85 85 90 89 86 87 97 81 79
76 70 67 65 60 57 59 66 69 67 68 67 68 68 69 71 70 76 81 78 72 76 95 96 96 98 97 98 97 97 98 97 93 98 97 91 94 91 87 82 81 80 80 85
69 74 76 78 72 65 71 75 70 67 69 72 75 74 74 75 76 80 78 78 82 83 94 98 97 94 97 97 99 98 97 96 98 97 96 92 91 90 88 86 86 84 85 89
71 76 82 84 82 78 80 74 75 77 79 82 85 82 85 84 82 83 82 83 90 93 97 96 92 94 95 95 96 94 98 97 98 96 96 96 96 96 98 98 97 98 99 99
68 77 85 90 80 80 74 77 86 83 78 80 76 80 84 87 85 81 90 90 92 93 94 96 97 97 97 98 97 96 96 97 96 96 95 95 97 96 97 98 98 98 97 97
81 84 87 83 69 61 71 75 75 66 71 71 70 71 78 82 89 90 93 93 94 93 94 97 96 97 96 97 96 96 96 96 96 96 97 95 95 95 95 96 96 96 97 98
75 67 67 71 70 71 73 74 70 70 73 72 72 76 78 82 86 88 89 89 90 90 93 97 98 97 96 96 97 97 96 96 97 96 96 95 95 95 96 97 98 97 97 97
84 77 68 62 66 73 76 78 75 73 76 75 81 83 81 83 85 86 87 90 91 94 96 98 97 97 97 96 96 96 96 96 98 96 96 96 96 96 96 98 98 96 96 96

GFSNGP_925_rhum_090.txt.gz
RH
50 47 54 56 55 54 61 48 64 64 63 58 59 61 54 50 48 50 52 53 53 54 53 49 51 53 58 61 62 61 62 61 64 66 67 68 70 71 77 78 75 78 81 91
82 44 47 52 51 54 58 56 46 50 59 45 46 56 52 50 49 52 54 54 52 52 52 53 54 57 62 65 65 64 65 65 68 71 74 74 73 74 74 78 80 79 79 82
86 54 48 64 52 53 53 57 60 69 58 51 57 56 55 53 51 55 55 54 53 54 54 54 55 60 64 64 66 67 68 66 68 72 77 81 82 81 82 82 82 83 81 81
94 65 81 51 44 48 51 50 54 57 58 60 61 59 53 51 53 56 55 53 53 54 54 53 54 60 56 60 66 65 67 70 73 76 77 79 84 88 89 90 90 86 87 84
87 82 49 50 50 54 61 57 52 54 57 59 55 55 59 55 56 58 53 52 53 53 54 53 51 57 56 59 58 58 65 67 73 79 80 80 84 88 92 94 95 89 89 91
70 77 58 54 50 46 47 68 52 51 56 60 56 77 76 61 54 54 52 51 54 52 52 49 49 56 52 58 56 56 62 64 65 68 76 82 81 87 90 93 94 93 96 92
67 70 55 48 47 46 61 65 52 50 52 52 64 67 62 55 52 50 45 46 45 46 44 44 51 55 52 53 51 50 51 54 56 57 60 67 68 72 79 85 88 95 99 96
54 60 67 47 51 57 55 47 48 49 53 55 58 56 56 52 46 40 41 40 39 41 43 44 46 50 49 51 49 47 50 52 53 53 54 57 61 69 76 80 89 96 100 100
53 59 47 44 52 52 50 54 50 53 58 58 56 55 52 51 42 40 37 36 36 40 43 43 43 42 42 42 44 46 51 52 54 54 55 56 59 60 70 78 80 90 99 100
55 44 49 50 50 49 49 51 57 57 60 58 58 52 48 46 44 43 38 38 41 44 46 44 44 43 41 41 44 47 50 52 53 55 56 57 60 62 67 76 82 81 89 96
57 48 47 50 46 55 58 56 59 58 52 52 52 52 46 47 45 40 37 39 41 41 42 44 42 40 40 43 46 50 51 53 55 57 59 64 67 69 70 73 81 80 83 96
63 49 52 59 52 53 62 61 55 52 51 50 49 54 48 48 40 39 41 42 43 42 39 38 37 38 38 40 43 47 54 57 60 64 66 70 75 76 77 77 76 83 82 86
50 51 61 61 57 55 57 57 53 51 49 52 48 40 39 44 42 44 45 43 42 40 39 39 40 43 43 40 40 45 52 57 63 71 77 82 86 90 93 86 84 77 81 79
55 61 64 63 68 61 58 55 56 53 49 45 42 39 40 44 44 45 43 40 38 40 43 45 47 49 48 47 44 46 51 58 67 73 75 78 81 81 80 80 83 78 81 90
59 54 59 64 65 66 59 53 49 48 42 38 34 38 40 48 48 44 41 42 45 46 47 47 48 48 48 49 50 52 55 62 68 72 74 78 80 87 93 85 72 74 76 81
69 57 56 59 60 57 51 43 42 43 42 44 46 45 44 42 42 44 47 49 52 56 59 60 60 60 61 62 63 64 66 70 73 72 77 78 83 90 90 92 88 75 78 78
74 70 60 67 55 46 46 42 44 51 56 61 64 67 67 66 68 68 66 67 70 72 73 74 74 72 79 77 72 72 75 75 80 79 81 83 86 92 95 91 98 74 81 81
58 60 60 62 70 51 53 56 64 67 73 68 64 71 78 80 86 81 78 78 79 79 78 74 82 96 95 90 91 97 96 98 98 97 97 96 94 95 97 99 93 72 79 85
48 55 53 56 57 61 68 72 64 60 57 59 65 70 69 70 73 75 74 80 85 82 79 92 94 94 92 96 99 98 98 98 98 98 98 98 93 88 87 87 87 85 86 90
61 56 56 57 55 56 61 60 65 66 67 67 66 70 74 74 73 74 77 82 78 77 77 87 90 93 95 95 97 98 98 98 97 98 99 98 98 98 95 93 93 93 92 94
82 72 71 67 63 61 68 71 72 70 66 69 75 78 78 78 79 78 83 82 79 82 84 86 95 96 97 97 98 99 99 99 100 99 99 98 98 94 91 89 89 88 85 78
77 79 80 77 75 72 71 72 71 72 76 81 84 84 86 86 86 87 84 82 84 88 92 99 98 97 97 96 99 99 94 95 98 98 97 92 95 97 96 94 94 97 96 95
74 77 78 82 84 77 77 76 77 81 84 82 80 82 82 83 86 94 90 87 93 95 97 98 94 95 97 97 99 98 98 98 97 96 97 96 97 98 98 98 99 99 99 99
73 77 86 80 71 78 81 77 77 76 75 72 74 72 73 78 89 86 89 92 90 90 93 92 93 93 92 94 98 97 97 97 97 96 97 97 96 95 95 97 98 97 97 97
74 80 80 74 79 71 68 72 75 68 70 74 72 72 77 82 83 86 90 90 90 92 98 95 95 94 97 98 97 97 97 96 96 97 95 96 97 96 96 96 96 97 97 96
79 75 70 67 67 70 74 75 75 74 73 76 76 76 87 83 83 86 88 89 92 90 97 99 97 98 98 96 97 96 96 96 95 95 96 96 96 96 97 96 96 96 96 96
77 76 71 68 66 69 74 79 79 75 78 79 81 88 88 82 84 87 87 89 97 90 96 98 97 98 98 97 96 96 96 96 97 96 95 95 96 96 96 95 96 96 96 96

GFSNGP_925_rhum_093.txt.gz
RH
64 52 54 57 61 67 73 63 74 75 78 76 74 69 62 59 57 57 58 58 58 60 61 58 57 59 62 62 62 64 63 65 69 71 69 69 68 67 69 72 77 81 79 78
89 48 49 53 56 60 65 66 63 64 70 60 66 61 58 60 58 62 62 60 58 59 59 60 59 62 62 60 64 68 67 69 69 68 70 73 73 77 78 78 81 81 84 82
90 71 60 70 53 56 60 64 62 72 60 61 66 62 60 61 60 63 62 60 59 60 60 57 56 63 59 56 65 65 65 71 68 68 71 73 77 78 84 89 89 89 88 89
92 70 79 56 46 50 54 58 62 63 70 68 64 62 64 60 63 65 60 58 58 59 58 54 53 59 56 53 61 56 63 61 54 55 63 72 79 82 85 91 94 93 89 88
81 90 56 53 51 57 60 64 57 64 68 64 61 62 65 60 61 60 56 57 57 57 56 55 53 59 55 48 56 54 60 59 54 61 61 63 62 71 78 85 85 87 87 86
75 81 65 53 52 48 48 74 53 57 67 65 66 85 82 60 56 56 55 55 54 51 48 49 47 56 55 52 51 51 53 52 50 54 54 62 59 61 63 77 82 79 86 93
75 82 63 50 52 48 61 51 54 53 55 61 71 74 70 63 58 55 50 46 46 43 44 43 44 46 47 49 50 45 49 50 50 52 53 54 60 58 64 62 77 78 85 95
67 65 62 50 54 57 54 51 54 53 55 64 67 65 63 58 54 47 44 43 41 43 44 44 45 47 50 50 43 44 44 46 49 51 54 56 57 58 60 64 69 77 74 83
56 58 49 56 53 54 57 58 56 59 62 64 65 63 63 59 50 44 40 39 39 42 45 43 43 44 46 43 42 43 47 48 48 50 52 55 58 62 64 67 70 75 81 79
55 44 53 53 53 59 55 56 62 63 65 62 63 53 49 50 48 46 42 40 42 44 44 43 40 45 44 39 40 42 46 49 51 52 54 59 60 66 69 72 75 82 83 79
67 57 51 51 58 61 63 67 67 60 58 56 54 53 48 51 49 45 43 42 43 45 46 45 41 39 38 39 40 41 43 45 49 54 58 61 66 73 78 78 81 82 77 77
62 53 52 59 58 63 69 69 68 62 57 52 51 54 51 53 46 45 46 48 48 45 44 43 42 41 41 42 45 47 50 53 52 56 62 67 78 78 76 89 90 88 82 75
53 55 60 63 63 58 67 66 58 56 52 53 52 45 42 46 44 47 45 46 45 44 44 44 45 46 46 46 48 50 53 52 55 63 67 74 78 79 84 81 83 79 82 78
60 67 67 66 69 65 64 60 57 54 49 45 44 41 43 46 47 48 48 45 45 47 49 50 52 55 57 59 58 58 58 62 66 69 66 75 77 77 79 85 91 90 77 78
68 59 63 73 74 71 64 58 50 47 44 43 44 49 52 58 59 59 59 60 61 63 64 69 71 72 72 75 78 78 75 73 73 69 69 67 78 81 80 85 97 94 89 77
69 70 71 73 78 70 54 49 43 44 52 57 64 69 71 68 70 69 70 74 80 82 82 82 80 80 83 94 96 90 90 84 80 79 79 92 96 84 86 94 94 99 91 90
76 73 66 71 65 55 48 49 57 67 67 69 74 73 73 76 76 80 80 73 74 79 79 83 84 88 98 97 92 96 95 98 92 91 98 98 98 97 97 98 98 97 96 81
61 63 61 62 71 56 62 69 66 64 70 73 70 70 73 78 88 79 75 75 77 80 81 79 83 91 89 86 97 99 100 100 100 99 99 98 98 100 99 99 95 98 96 90
60 65 62 61 58 64 70 73 65 63 67 68 68 74 74 75 77 77 77 81 83 87 82 88 92 89 88 94 93 97 100 99 98 99 98 94 95 98 98 98 96 94 94 94
63 61 59 62 56 56 65 67 67 70 67 66 72 77 81 80 80 81 82 87 83 82 87 92 89 92 94 90 97 97 100 100 99 98 98 98 99 99 99 98 96 93 95 97
80 70 68 63 64 67 69 68 68 69 70 74 81 83 84 80 79 83 91 90 85 91 90 90 96 94 98 100 99 99 100 100 99 98 98 98 98 96 97 97 96 98 96 95
77 78 78 71 70 75 69 71 70 71 77 81 78 79 82 82 81 88 90 89 92 93 94 99 98 97 95 96 95 98 99 98 99 98 97 98 98 98 97 98 100 99 99 100
72 72 77 78 76 72 77 75 73 76 79 75 75 76 77 75 79 96 91 90 96 93 96 97 94 92 93 97 93 98 98 98 99 98 98 98 98 98 98 99 100 99 100 100
75 76 76 75 73 81 82 75 74 73 74 71 73 72 74 78 87 85 86 92 93 90 91 97 97 94 91 94 98 97 97 98 97 97 97 96 94 97 96 97 98 97 96 98
71 77 81 80 83 79 71 73 74 72 71 74 73 72 78 88 87 84 87 87 91 94 93 90 100 100 97 97 98 97 97 97 96 96 96 96 96 96 96 96 96 96 98 95
77 77 79 76 68 68 70 74 79 78 75 78 76 75 88 88 80 86 85 91 90 98 85 86 97 100 99 98 98 95 96 96 96 96 96 95 96 96 95 95 96 96 96 96
75 78 75 73 68 67 70 75 84 77 77 82 83 85 92 80 80 86 86 87 97 95 83 84 88 99 100 99 94 96 96 96 97 96 95 96 96 96 96 96 96 96 96 96

GFSNGP_925_rhum_096.txt.gz
RH
68 67 59 60 60 70 78 70 71 78 82 78 76 72 70 64 61 61 62 62 63 66 68 64 63 64 59 56 64 67 66 70 71 68 67 68 69 69 69 70 73 78 81 84
90 56 57 58 54 62 68 67 67 70 70 63 65 64 64 64 64 64 64 63 61 62 63 64 62 66 58 53 62 57 57 65 56 47 47 55 65 75 75 73 78 84 85 88
75 72 66 71 52 57 63 64 66 70 66 70 66 62 63 66 63 65 62 59 59 63 64 60 59 64 58 54 57 54 53 56 49 43 46 49 52 52 64 76 79 82 86 87
89 70 72 56 47 51 55 62 63 69 69 66 67 68 65 60 68 67 62 58 60 63 61 57 56 56 57 52 42 43 43 49 46 43 45 42 46 51 55 60 69 82 78 81
84 88 59 53 53 60 64 65 59 65 71 66 66 64 64 62 64 65 59 60 61 60 58 53 52 53 53 50 46 45 45 48 49 47 46 47 50 55 59 58 65 65 83 83
84 84 67 47 53 51 48 62 58 62 70 68 66 80 80 66 61 60 57 57 55 51 47 47 46 51 53 51 52 48 48 48 49 50 50 51 52 55 58 56 60 68 81 76
79 88 71 52 55 49 56 35 61 64 68 72 76 75 68 62 58 57 52 44 44 43 45 44 45 48 51 54 56 53 47 45 48 51 53 52 54 58 59 60 61 63 63 67
73 74 69 56 57 54 44 57 58 58 58 63 63 65 67 61 57 51 48 42 40 42 41 41 42 43 44 44 43 41 38 40 44 47 50 52 52 54 57 64 66 67 71 74
60 58 43 58 45 52 56 57 55 60 60 64 68 68 65 64 54 48 44 42 39 41 43 41 40 41 46 44 43 39 40 41 40 37 40 47 56 58 63 67 71 75 79 86
52 41 57 54 55 57 59 57 59 62 66 67 66 62 54 54 52 51 45 43 43 46 48 46 43 42 41 41 41 43 45 46 46 47 48 51 56 61 66 73 77 82 88 76
70 61 58 56 62 62 62 68 68 66 65 62 61 55 50 53 51 48 46 44 46 49 51 48 44 43 41 42 44 48 49 50 52 56 57 53 52 63 73 80 85 89 93 88
55 52 48 50 56 65 72 72 72 65 61 56 54 58 51 53 48 46 48 50 48 47 47 45 46 47 50 53 57 59 61 61 61 62 64 69 71 69 72 81 83 88 85 83
51 53 59 59 65 67 70 73 69 63 60 60 52 46 42 46 46 53 50 52 54 56 54 57 60 63 66 67 70 73 72 72 71 72 74 77 84 78 88 77 86 86 88 84
58 69 66 69 70 71 69 65 60 58 51 46 44 46 48 53 55 59 62 64 68 69 70 74 76 76 75 78 84 90 89 87 84 84 84 86 84 77 79 80 80 86 90 91
69 64 60 74 77 74 68 63 54 48 46 51 54 61 64 67 69 71 73 78 78 77 76 77 81 83 83 88 97 93 97 95 94 93 90 91 90 95 85 87 77 81 91 90
75 79 82 80 82 77 65 53 49 51 57 63 66 70 71 72 74 78 75 71 80 85 79 82 84 84 89 97 92 96 99 96 93 97 98 99 100 98 98 98 96 97 97 96
80 80 75 89 83 66 54 51 52 63 65 65 73 74 71 75 77 75 74 74 74 76 79 83 86 86 98 89 87 100 97 96 91 99 98 99 99 100 99 98 97 99 97 89
64 65 66 69 73 63 68 68 64 62 71 72 71 71 75 79 86 80 78 76 73 74 75 83 90 92 86 80 97 95 96 100 100 97 94 96 98 100 100 100 99 99 98 96
63 69 66 63 58 64 71 74 69 67 70 66 68 76 78 78 78 78 77 79 82 87 82 92 94 90 81 82 97 94 96 98 97 99 100 95 95 97 100 98 98 98 99 99
64 62 61 65 59 58 67 64 66 70 65 66 72 76 77 78 77 79 80 85 82 86 93 93 91 89 88 88 100 98 96 98 97 98 99 96 98 98 99 96 96 95 93 95
80 70 66 63 63 60 61 63 65 65 69 73 76 77 79 76 76 82 90 91 85 92 91 89 96 90 94 100 99 85 92 100 100 99 99 98 97 98 97 96 98 100 100 98
79 79 73 68 69 72 67 67 65 70 74 78 73 75 79 77 78 83 81 90 89 96 94 98 92 96 96 95 92 92 100 100 100 100 99 98 98 98 98 98 99 97 100 100
71 68 70 72 72 69 72 72 73 74 76 72 73 75 77 76 82 92 92 86 96 97 95 92 94 94 94 97 90 95 99 99 100 100 100 98 98 99 100 99 98 99 99 100
65 69 70 72 67 78 88 79 75 74 73 70 73 74 75 80 84 79 83 85 91 96 96 96 95 95 97 94 94 100 97 99 100 99 100 96 100 98 98 100 100 100 97 96
68 70 74 78 84 84 74 73 73 72 71 72 74 72 77 90 89 82 88 82 88 96 96 82 95 100 96 98 99 99 95 98 98 97 96 98 97 98 96 96 97 97 98 97
77 79 76 68 69 75 73 73 76 75 76 78 75 74 86 86 77 78 77 80 87 93 87 82 85 95 95 96 99 94 95 97 97 99 98 95 96 96 96 95 95 95 95 96
72 71 76 80 75 74 71 72 78 80 77 77 80 81 91 79 76 78 79 83 89 88 87 86 86 93 99 100 96 99 97 96 100 99 96 96 96 96 95 96 96 95 95 96

GFSNGP_925_rhum_099.txt.gz
RH
76 72 71 70 67 62 77 70 71 71 82 69 77 80 78 72 65 65 65 64 65 69 71 68 68 66 56 60 59 53 57 50 49 46 42 39 40 45 48 54 59 64 72 72
85 69 66 68 62 59 68 67 67 75 76 62 68 67 68 68 68 67 66 64 62 63 65 65 64 67 59 54 52 48 49 53 46 37 38 43 44 49 44 48 49 56 61 70
80 67 73 75 65 58 64 67 65 79 64 72 69 66 66 68 69 68 67 63 60 66 68 64 61 63 59 53 46 45 44 49 52 50 47 45 43 45 53 58 55 57 60 73
93 68 63 49 47 51 59 62 69 71 69 72 65 64 61 62 67 69 63 59 64 67 65 59 54 53 52 48 44 43 41 42 42 44 43 42 41 42 45 56 56 61 60 74
90 91 59 52 53 61 67 60 68 69 71 67 68 62 62 62 64 64 60 64 64 60 55 49 46 48 50 48 48 49 50 47 46 47 49 50 51 50 50 60 58 59 60 60
85 88 64 41 53 52 46 61 60 66 78 75 74 87 83 66 63 61 59 58 55 50 48 47 47 50 51 52 55 56 49 43 41 45 49 52 52 54 53 54 56 58 63 61
86 91 76 54 55 49 48 36 60 65 71 77 78 75 69 70 64 60 55 46 48 46 47 49 50 48 47 45 43 44 36 33 33 37 43 45 45 44 54 57 59 65 69 63
79 83 75 58 57 52 46 58 57 59 62 74 68 70 73 66 60 52 47 44 42 42 42 43 42 42 44 44 46 44 43 42 43 43 44 48 52 52 50 60 65 66 71 71
65 64 45 57 50 51 57 59 59 58 58 60 65 68 66 66 55 49 47 44 42 45 48 45 44 44 45 43 42 43 44 45 47 47 46 46 51 53 58 57 69 76 82 86
57 47 56 55 57 59 62 58 57 59 67 71 67 70 65 58 56 53 48 47 47 47 50 48 41 43 46 48 53 55 57 57 58 58 60 61 60 62 69 69 72 86 93 95
74 62 60 58 60 59 62 63 66 67 68 68 69 59 56 56 52 50 48 48 49 51 52 52 51 52 54 58 63 66 67 69 69 69 70 70 71 73 76 79 81 87 94 90
57 50 44 42 46 62 71 74 74 69 65 59 59 61 55 54 49 49 56 53 54 56 58 60 62 65 67 70 72 76 83 85 85 83 83 82 82 83 74 88 91 90 86 86
49 49 56 55 59 67 70 75 76 69 66 63 53 47 43 48 52 58 56 60 65 69 70 72 74 73 70 76 80 86 94 94 93 89 90 89 90 94 96 89 83 87 85 90
64 62 63 67 62 73 72 74 65 62 58 53 48 47 50 54 57 61 68 74 75 74 73 70 74 78 79 79 88 90 80 91 96 98 99 99 98 99 100 99 94 85 79 81
71 71 61 68 78 77 73 66 62 54 52 57 53 58 58 61 65 72 76 72 65 68 69 74 80 78 78 87 93 90 93 100 95 94 99 95 96 98 98 94 89 92 94 85
72 72 76 77 84 80 73 62 54 52 57 63 64 64 65 68 71 75 68 66 76 79 75 81 83 80 82 94 90 90 95 88 85 87 97 98 97 95 96 96 98 99 98 98
85 85 83 90 84 77 69 54 50 57 64 64 63 69 70 70 72 70 68 70 71 71 74 78 83 83 94 97 83 93 96 98 96 95 99 98 99 96 95 96 95 89 90 97
71 64 75 77 83 67 59 58 60 62 65 62 68 69 73 74 76 74 74 74 74 74 74 78 86 93 97 80 88 99 99 100 100 98 93 94 96 99 98 96 94 92 92 96
62 65 64 74 66 62 70 72 66 62 65 67 70 72 72 72 73 74 75 78 80 84 76 87 91 94 85 81 99 99 99 100 96 89 90 88 97 98 97 98 98 98 98 98
65 64 62 64 58 60 69 63 61 67 67 65 68 75 76 73 73 75 77 82 77 80 87 89 92 90 84 81 86 98 93 100 98 97 97 92 96 97 97 92 92 97 96 98
83 72 69 64 59 56 54 57 62 67 63 65 70 71 70 71 74 78 87 88 72 82 93 92 96 90 86 93 99 94 93 100 99 98 98 98 97 96 95 96 97 96 97 96
81 82 74 65 65 66 61 59 59 60 65 71 73 70 74 76 75 77 79 86 81 97 96 98 96 90 95 96 97 89 100 100 100 100 100 100 97 97 96 96 97 97 98 100
76 70 67 70 70 65 64 66 64 64 68 72 71 72 75 73 76 89 90 75 91 95 96 96 95 92 92 97 93 96 100 100 100 100 100 99 100 98 98 99 99 99 100 100
69 68 66 66 68 72 91 75 70 70 71 72 69 71 71 73 75 79 80 86 90 97 96 96 96 92 93 95 99 100 100 100 98 97 98 95 98 98 97 98 99 100 100 98
66 64 70 79 82 78 66 67 74 75 74 77 73 71 70 75 87 79 79 79 80 91 92 85 94 96 90 92 96 100 100 98 98 98 96 100 98 96 96 96 96 97 98 97
77 75 73 68 65 60 64 70 78 74 74 77 74 73 71 81 86 81 79 82 84 88 84 80 79 89 88 95 100 95 99 100 99 99 100 96 96 95 96 96 96 96 96 96
74 75 76 76 68 65 69 73 78 76 74 77 74 71 75 85 79 82 81 76 83 84 82 80 82 85 92 100 96 95 96 96 99 100 98 95 97 96 97 96 96 96 96 96

GFSNGP_925_rhum_105.txt.gz
RH
86 80 78 76 73 75 82 73 82 66 80 66 75 83 83 83 87 75 68 67 68 68 68 68 72 63 56 50 47 47 50 48 49 45 43 42 41 40 37 36 40 39 38 35
94 75 78 89 80 80 74 72 81 80 77 65 64 77 82 79 77 71 70 68 68 67 67 68 67 67 59 53 50 44 43 43 42 39 38 41 43 43 39 38 37 37 39 41
89 72 75 64 59 76 70 69 68 80 66 72 76 76 74 74 73 69 69 69 69 67 68 65 60 62 55 50 48 47 46 43 39 37 37 39 35 32 30 31 32 35 39 42
95 74 43 31 51 58 65 63 71 70 65 69 70 70 67 67 66 69 69 71 68 68 68 61 55 56 55 52 48 45 40 33 29 29 31 33 36 38 40 42 43 45 49 54
91 96 55 27 53 57 54 53 56 66 69 68 68 65 69 66 67 65 70 68 66 64 60 53 52 53 50 44 41 39 42 39 39 41 43 45 46 48 50 52 52 50 50 54
92 88 54 27 48 56 47 52 36 70 71 75 73 80 74 67 70 71 68 65 65 57 53 51 51 46 40 39 38 43 45 44 44 47 50 52 54 55 57 59 58 58 56 53
94 94 80 56 54 51 52 29 47 69 70 78 78 71 67 74 72 69 66 58 54 52 49 50 47 43 41 44 47 50 50 52 54 57 60 60 63 65 67 67 69 65 64 58
92 96 85 57 60 50 43 46 50 64 66 78 74 70 73 75 75 69 55 52 47 47 50 53 50 45 48 52 54 56 58 58 57 58 61 64 68 64 63 68 78 82 84 80
67 66 47 58 54 51 50 53 52 60 63 74 77 77 76 77 76 61 51 49 47 47 49 49 49 53 55 56 61 64 63 61 61 62 60 70 73 71 77 80 83 85 84 87
58 47 54 54 52 55 57 60 57 60 59 74 74 76 79 78 69 57 51 50 51 50 49 50 52 56 63 68 70 70 68 68 68 65 77 70 73 85 88 89 91 88 88 88
73 60 56 50 58 54 52 61 67 63 64 70 72 78 78 73 64 56 52 54 51 51 55 58 63 68 69 70 72 72 73 75 74 85 86 86 88 94 95 94 93 90 93 92
62 54 52 52 49 47 54 58 63 73 74 73 74 75 70 66 56 52 56 54 55 57 62 66 67 62 66 73 72 76 87 89 92 90 90 94 94 88 86 82 80 79 79 84
54 56 64 65 66 60 62 60 68 77 75 74 67 62 61 55 53 58 55 56 58 64 66 64 61 64 70 69 69 78 92 92 92 90 92 93 86 83 87 84 88 82 79 78
68 68 71 66 66 69 73 76 71 73 71 66 60 53 50 54 65 56 56 58 65 62 58 61 62 64 68 69 74 84 85 90 90 92 95 92 96 94 90 89 90 85 77 76
76 78 72 76 81 80 75 81 78 76 68 60 52 51 50 57 57 57 62 65 59 57 62 62 65 67 68 70 82 91 93 90 93 100 99 91 83 87 86 84 85 87 88 84
69 79 80 82 81 84 83 81 80 74 64 60 59 57 52 49 52 60 65 59 59 62 62 66 67 69 70 80 92 95 91 95 98 97 98 97 93 89 84 84 90 89 87 84
86 75 74 89 85 82 86 82 78 68 60 61 59 56 58 60 66 69 63 59 61 63 64 67 69 69 75 92 92 93 95 100 98 100 92 95 92 90 95 91 87 88 87 92
79 77 81 79 88 82 84 77 69 62 63 54 56 60 65 69 70 62 60 62 65 64 63 65 68 79 90 90 86 98 100 99 100 100 98 95 89 86 93 91 90 91 86 87
80 85 85 86 80 86 86 81 63 56 55 55 63 68 59 62 64 61 64 67 69 71 60 66 72 86 85 82 95 96 94 99 100 98 91 87 95 93 93 92 92 91 88 86
69 66 66 69 75 80 76 64 59 62 60 60 61 68 72 66 64 65 67 70 65 65 68 70 85 85 84 80 82 96 100 96 97 99 97 92 97 95 95 91 88 90 91 90
79 82 79 75 74 67 65 60 60 66 63 59 61 62 63 61 64 66 70 76 62 68 78 88 81 86 87 85 99 99 95 91 98 100 100 100 100 97 94 92 92 93 95 95
89 86 82 76 70 66 61 59 56 55 57 59 59 59 63 65 65 66 64 66 62 76 85 82 90 97 93 89 95 94 86 93 98 98 100 100 100 99 96 97 97 98 98 99
77 74 70 74 72 63 59 58 56 53 53 54 56 60 64 59 59 72 83 62 68 74 94 91 96 94 90 94 93 83 86 91 95 100 99 99 100 100 100 100 99 98 99 99
70 69 68 62 64 65 82 63 57 52 48 48 51 54 62 71 69 64 63 64 89 89 86 92 94 94 91 92 81 84 89 93 95 96 98 100 91 93 99 100 100 97 97 96
74 69 70 73 82 73 65 55 59 62 62 61 60 60 64 63 61 62 64 70 76 82 78 80 96 95 83 81 84 90 92 94 98 100 97 96 93 96 96 95 96 96 97 97
81 76 73 70 65 64 64 63 69 66 67 75 67 64 66 63 64 67 66 75 79 77 81 78 80 85 83 84 89 91 93 94 95 94 100 95 94 96 97 95 96 96 96 96
80 78 78 76 72 68 66 67 74 71 68 68 64 55 60 64 66 68 70 80 78 73 74 81 81 81 84 87 89 91 93 93 96 100 98 96 92 96 97 96 97 97 97 97

GFSNGP_925_rhum_108.txt.gz
RH
65 56 56 60 59 54 65 59 56 38 48 35 40 52 55 56 57 62 60 53 49 50 46 48 52 52 48 47 48 48 51 52 55 52 52 50 50 49 44 43 45 47 45 42
83 49 54 66 56 56 56 54 53 48 48 32 34 39 50 54 57 62 51 48 48 50 50 49 49 53 53 49 48 48 44 45 45 41 42 45 46 47 44 48 47 47 45 48
68 53 54 50 41 46 52 52 51 57 39 31 52 55 53 53 55 55 47 46 49 50 50 51 49 55 51 52 52 49 45 42 42 42 41 43 43 41 42 44 46 47 46 46
82 60 43 31 39 42 47 43 45 42 45 47 47 49 49 45 46 46 45 47 48 50 52 53 51 52 57 57 50 49 45 40 42 44 43 46 47 48 48 51 53 54 55 54
82 66 38 29 46 49 50 37 37 42 39 46 51 55 50 46 44 42 41 44 48 51 53 50 46 52 53 49 48 46 44 44 46 49 50 51 52 55 58 58 61 61 61 62
70 76 42 23 40 45 45 37 30 40 43 48 57 56 34 50 47 48 50 52 55 57 52 46 48 49 46 44 44 42 49 53 53 55 56 56 59 61 66 66 66 67 67 66
75 78 56 37 44 45 43 24 33 49 47 53 57 42 50 53 56 54 56 58 57 51 46 45 49 48 43 43 42 52 55 57 58 59 58 59 62 67 68 66 66 67 62 59
73 81 80 42 54 41 29 34 37 43 45 54 51 52 56 54 55 58 57 54 49 46 49 53 54 47 42 43 52 58 62 63 59 59 61 60 62 60 60 59 58 57 57 57
43 41 34 41 36 38 39 41 42 44 39 46 50 53 54 60 58 57 51 47 46 46 50 50 52 49 46 48 59 63 61 57 58 60 60 64 62 60 59 62 64 64 62 62
46 30 35 31 32 34 35 39 38 40 45 45 49 46 56 59 60 54 49 47 48 46 42 43 53 56 58 64 67 68 63 61 62 60 67 63 65 67 70 69 70 72 69 68
46 39 37 37 36 36 39 41 45 46 48 48 50 52 54 58 60 52 48 49 49 45 44 47 56 61 67 69 73 70 67 67 66 67 68 68 70 72 76 74 76 77 75 75
46 34 35 32 34 42 46 47 47 50 51 54 56 55 57 57 56 51 48 52 50 51 50 56 64 66 67 76 77 76 72 66 68 71 68 73 73 70 70 77 81 84 83 80
38 33 37 37 46 48 51 51 50 57 54 55 59 58 58 54 51 50 48 48 47 47 54 60 62 64 72 77 79 77 79 75 70 71 72 73 76 74 76 76 78 77 77 77
44 48 55 56 50 52 57 54 57 65 66 63 57 57 54 49 53 49 46 47 51 57 57 57 60 61 71 78 79 80 83 82 79 78 80 79 78 74 74 76 79 75 70 76
50 52 49 56 63 60 57 60 67 65 60 57 54 51 48 49 51 47 49 57 60 57 56 60 61 63 70 77 80 83 83 77 78 82 82 82 81 79 78 77 74 78 77 72
60 62 62 65 62 55 61 67 71 67 60 53 49 47 45 44 45 50 58 60 53 47 52 59 62 66 74 79 86 85 78 85 91 84 82 82 81 80 77 77 81 76 72 71
80 75 66 72 68 64 68 66 67 64 59 54 50 49 48 49 52 56 59 58 56 57 60 63 64 71 74 86 94 82 82 85 83 83 86 83 82 84 81 84 84 73 72 73
63 59 59 63 75 71 68 72 72 69 64 58 56 57 61 64 55 57 59 60 63 64 64 65 70 74 89 92 89 86 86 86 87 87 83 83 82 85 85 82 76 75 74 74
63 62 68 70 74 73 76 82 74 70 64 58 63 70 65 66 65 65 67 68 66 61 57 64 64 84 91 91 94 89 91 92 89 83 81 83 84 84 80 79 79 77 77 76
61 67 66 66 68 74 74 74 68 65 63 63 64 65 64 64 63 63 65 64 57 56 62 65 72 94 90 90 87 98 95 94 86 83 86 85 85 84 84 83 79 76 76 78
79 80 75 72 68 69 73 67 64 59 63 62 59 54 53 56 62 66 67 57 56 59 68 71 88 86 92 93 99 100 97 93 90 91 92 92 89 86 83 82 81 82 83 86
74 80 82 74 71 66 66 66 62 59 63 64 60 56 59 61 64 69 66 59 65 66 81 84 86 94 95 89 100 98 94 91 94 95 93 91 90 89 87 86 88 93 95 98
72 72 72 74 73 68 63 64 61 57 59 58 58 57 62 58 63 65 60 58 68 70 83 89 87 96 92 97 96 93 90 96 96 95 96 96 96 93 94 98 98 99 100 100
65 68 71 65 67 70 74 68 61 57 53 50 46 43 51 71 71 59 63 61 65 85 90 89 95 94 92 98 88 86 87 99 100 100 100 100 99 100 100 100 100 100 100 100
70 71 72 77 78 70 66 61 60 63 61 56 50 48 50 54 58 61 57 62 71 89 90 73 87 96 91 88 87 86 93 100 100 100 100 100 100 100 100 100 100 100 100 99
74 69 66 69 63 60 65 65 61 64 70 67 65 57 56 57 59 63 62 65 70 80 87 81 72 78 91 86 87 96 97 95 97 96 100 100 100 100 100 100 100 99 98 97
73 71 73 74 74 70 71 68 66 64 68 63 58 59 53 59 63 73 73 75 91 84 78 72 75 77 80 88 92 88 88 91 90 100 100 100 100 98 100 100 99 97 98 97

GFSNGP_925_rhum_111.txt.gz
RH
53 47 46 47 46 43 48 51 61 43 31 24 22 27 36 43 49 51 50 48 48 45 41 40 41 44 41 40 40 39 40 41 43 42 40 40 39 40 40 40 40 40 39 38
79 46 39 46 42 41 43 44 44 42 42 28 25 23 28 30 43 47 48 47 42 41 44 43 42 42 45 42 40 41 36 36 35 34 35 37 37 35 36 38 39 40 41 41
66 39 46 48 35 36 38 37 39 46 33 25 30 35 40 37 40 43 44 43 40 41 44 45 43 42 44 45 44 40 39 37 36 35 37 38 39 39 41 42 44 47 48 50
76 56 60 32 30 30 32 32 32 34 34 32 33 35 39 38 39 40 41 41 38 40 44 46 46 45 48 51 41 41 40 37 36 39 40 42 45 46 47 49 50 52 54 54
74 56 38 29 40 43 44 30 27 32 28 27 29 37 43 36 38 38 36 36 38 41 45 48 45 43 47 45 44 42 38 39 43 45 46 48 49 51 54 57 59 60 60 61
52 68 49 23 36 36 40 42 28 31 31 35 42 42 33 43 40 40 40 40 42 47 48 45 41 42 41 39 41 38 42 47 49 50 51 51 54 57 63 62 62 61 63 60
74 67 50 30 38 39 40 27 29 33 33 36 45 34 40 43 47 46 45 48 50 52 47 42 42 42 42 40 38 46 51 53 55 54 52 53 54 60 62 61 59 58 53 50
61 64 73 34 46 39 26 28 30 34 34 35 34 33 37 44 46 51 52 53 53 48 45 47 48 47 42 39 45 50 55 55 50 50 51 51 54 54 51 50 51 52 53 53
39 44 29 35 26 29 33 35 33 34 33 34 37 39 38 44 49 50 52 51 47 45 46 47 48 44 38 38 50 54 53 50 50 52 53 52 54 55 55 56 58 59 60 61
31 26 27 25 28 28 29 31 32 33 36 38 42 39 39 39 49 51 50 47 44 43 43 42 42 45 44 51 58 57 54 52 52 55 56 60 57 58 61 63 63 63 64 68
38 32 29 28 28 27 27 30 36 38 40 43 44 43 42 43 51 53 50 47 45 42 39 36 42 45 50 55 56 56 54 54 55 56 57 58 59 62 64 66 68 75 79 81
43 28 29 27 28 34 36 40 40 43 45 44 44 48 45 47 49 52 48 48 47 44 41 42 46 51 53 56 63 61 60 59 58 63 62 61 63 66 66 69 75 79 80 79
33 28 29 28 38 34 40 42 42 45 43 48 48 48 48 50 52 51 48 48 45 45 44 44 52 52 54 63 67 66 66 65 66 67 62 63 70 70 71 70 70 73 74 73
32 33 39 39 44 42 42 46 48 49 50 52 54 53 53 52 51 49 46 44 43 42 44 46 46 47 54 64 68 69 69 74 74 69 70 72 74 78 79 77 76 74 71 72
38 38 41 40 50 52 51 52 53 50 51 56 56 54 52 49 51 47 43 45 48 48 46 46 47 48 56 65 68 68 72 72 70 74 76 75 77 79 78 78 76 74 77 73
46 45 46 55 56 53 50 50 58 58 57 56 52 51 49 48 48 44 47 50 48 45 44 47 48 51 61 66 70 75 74 71 80 81 76 75 76 80 83 81 80 82 77 76
82 77 71 74 70 51 58 56 57 59 62 58 52 48 45 44 44 47 49 49 48 43 45 50 53 57 67 71 76 79 71 73 77 79 77 78 78 81 83 86 88 80 75 76
54 56 54 54 66 66 62 66 70 69 70 60 53 50 50 53 53 49 50 51 49 50 53 55 57 63 70 79 83 78 78 79 80 78 77 76 76 82 90 86 82 78 79 77
54 60 63 56 60 68 72 80 76 76 73 64 63 67 65 64 62 58 59 59 59 56 51 55 63 64 79 83 88 84 83 83 82 83 78 75 78 81 82 81 85 82 81 78
57 54 56 60 68 72 73 72 72 73 71 69 67 69 67 64 60 59 62 63 53 48 50 57 62 72 86 86 90 91 86 88 83 80 78 80 83 85 87 83 81 81 78 79
76 78 76 74 68 64 70 68 66 62 60 60 59 56 55 55 56 56 59 55 50 55 60 68 73 81 82 86 89 90 90 88 87 85 87 87 87 84 83 83 84 83 84 88
73 80 82 79 71 62 64 67 65 60 59 59 57 52 53 52 53 58 57 54 48 63 67 73 78 82 86 89 90 92 92 90 86 90 91 88 87 86 87 89 91 92 95 98
72 74 75 77 75 68 62 65 67 63 62 61 60 57 57 52 55 64 65 52 59 71 72 75 78 88 95 92 91 94 92 90 91 90 91 93 91 94 94 95 95 96 99 99
55 62 72 69 69 72 75 70 65 62 60 59 56 53 55 64 62 58 60 57 58 71 78 79 87 94 92 90 96 95 91 92 95 96 97 96 94 95 98 96 99 100 100 100
63 67 69 78 80 71 68 66 69 72 72 67 61 55 52 50 52 56 53 64 78 82 85 88 93 92 93 92 90 92 91 94 97 99 98 98 100 100 100 100 100 100 99 98
66 62 60 66 61 61 64 69 69 66 69 69 70 65 56 51 51 62 59 68 67 82 85 82 87 92 86 88 90 89 93 94 95 96 100 100 100 100 100 100 100 100 99 97
69 65 63 66 67 63 62 67 73 66 64 65 61 61 60 59 58 68 68 68 73 78 81 82 84 87 88 84 87 89 91 90 95 96 100 100 100 100 100 100 96 97 98 98

GFSNGP_925_rhum_117.txt.gz
RH
74 72 69 68 68 64 66 60 76 47 56 42 43 44 43 54 65 76 84 84 81 81 82 77 74 55 42 40 40 39 39 38 36 34 33 35 36 40 41 43 44 45 47 47
89 70 71 77 65 63 63 60 56 53 54 38 36 42 43 45 49 72 71 73 71 68 67 59 52 48 45 41 41 40 39 37 37 35 35 38 42 44 47 49 50 51 54 58
89 72 73 77 57 53 55 56 55 66 48 40 43 41 42 43 50 54 67 65 64 63 61 54 46 45 45 43 42 41 41 39 37 37 39 43 46 47 49 50 53 55 56 58
91 78 85 40 38 32 48 47 45 43 42 41 41 38 42 45 52 54 52 55 61 61 54 49 47 45 45 45 45 41 40 40 38 40 41 46 47 48 49 53 54 54 53 54
88 94 64 59 40 39 40 42 41 45 41 40 37 42 38 43 48 50 48 49 52 50 48 49 48 45 46 48 45 42 42 41 41 42 46 49 48 49 49 53 53 53 53 53
83 96 83 43 40 41 36 47 34 39 40 40 50 50 48 45 45 45 46 47 48 49 50 50 47 46 47 48 46 43 42 42 42 43 48 46 48 48 51 54 54 53 54 55
76 79 74 53 42 39 46 34 34 38 38 46 52 48 39 48 53 48 50 51 50 52 52 50 47 46 46 46 44 42 42 42 39 44 46 48 50 50 55 55 55 57 59 61
81 79 89 49 49 44 39 34 34 35 37 42 44 44 44 46 56 61 58 58 55 54 52 47 44 43 44 44 42 42 42 38 43 45 48 50 51 53 57 57 60 62 65 65
70 67 47 51 44 42 39 36 36 38 42 44 46 46 46 51 52 64 62 59 57 56 51 46 44 43 45 45 43 41 40 44 46 49 50 52 56 58 59 60 64 66 68 70
47 43 46 39 42 44 44 45 42 43 43 45 47 49 53 56 58 63 65 65 58 56 53 52 49 47 43 40 41 42 44 45 50 50 55 58 56 60 61 63 67 70 73 80
47 36 34 32 33 33 34 40 44 45 46 48 51 54 57 61 62 61 66 64 57 54 54 52 49 46 41 40 41 43 46 50 51 54 58 58 59 62 66 69 75 76 75 76
54 34 36 33 34 33 36 37 41 47 48 50 55 60 59 65 62 60 70 62 56 53 51 50 46 43 42 43 44 45 50 53 57 63 63 66 65 65 66 76 78 79 80 79
40 35 38 40 42 37 40 45 48 52 57 57 56 55 58 65 61 60 66 59 54 50 48 46 42 42 44 46 46 48 53 56 59 66 68 70 70 72 79 77 84 84 81 80
49 52 52 50 46 47 49 46 50 50 52 56 57 56 59 67 64 70 65 56 51 50 47 43 43 44 46 47 49 54 56 59 68 70 71 71 72 78 82 85 88 85 78 81
51 50 46 48 51 56 56 59 60 65 67 68 59 64 66 75 72 68 58 54 52 51 48 46 46 46 44 46 50 54 56 56 60 67 70 74 80 80 81 80 84 86 86 88
53 59 61 61 64 63 64 64 71 74 73 69 70 70 66 65 62 60 54 52 51 52 47 45 44 39 41 46 50 55 57 59 77 77 75 77 81 82 80 82 84 89 94 95
73 68 69 69 68 66 69 70 72 69 67 73 74 65 63 61 61 58 52 49 47 46 45 43 39 38 42 46 49 53 58 64 76 75 78 80 81 83 83 82 87 98 95 90
67 66 67 63 63 70 69 69 72 73 77 69 69 65 64 68 68 59 51 48 49 48 42 38 38 42 44 48 52 56 62 70 74 75 78 83 85 86 83 79 87 93 91 89
71 74 74 67 63 68 72 77 74 69 68 70 74 74 63 60 60 56 52 53 54 55 44 41 41 45 47 51 56 60 70 77 78 82 87 88 88 82 82 88 88 90 92 91
69 67 65 69 65 66 71 65 69 74 72 75 74 72 71 63 56 55 55 60 52 47 40 34 40 46 50 53 72 76 79 80 80 88 88 92 89 84 86 89 89 91 92 94
72 77 74 70 70 61 63 65 70 78 69 75 79 74 70 64 60 58 66 65 53 45 44 39 42 45 50 57 63 81 84 84 85 90 92 94 87 86 90 93 93 92 96 96
70 74 74 67 69 63 56 56 65 68 69 72 74 75 72 71 66 65 60 59 52 46 43 44 46 46 48 60 66 78 82 82 90 92 96 91 86 91 93 94 94 96 95 96
55 61 63 70 72 63 52 57 61 64 69 69 70 73 74 69 66 73 72 57 53 49 44 41 43 49 66 77 81 80 80 88 91 94 94 86 88 92 92 93 95 97 95 99
55 53 58 51 54 74 81 61 64 62 62 63 63 63 68 75 71 59 58 54 45 41 50 43 46 60 77 82 84 84 87 93 92 93 87 90 94 95 95 94 94 97 97 95
56 59 58 66 83 73 64 64 69 64 65 69 64 61 60 64 70 62 58 59 51 42 50 56 58 75 79 82 83 87 87 91 93 88 81 86 89 95 98 95 98 100 99 98
60 58 55 57 59 57 61 65 75 65 73 74 70 67 69 70 73 70 66 86 59 57 57 59 76 79 81 83 87 90 86 88 88 86 94 96 94 92 96 97 100 98 97 95
68 71 72 75 66 66 68 67 72 66 66 69 63 61 71 74 75 76 89 98 91 78 85 73 66 80 81 83 88 87 84 78 76 77 85 85 84 88 93 95 93 95 96 97

GFSNGP_925_rhum_120.txt.gz
RH
80 74 73 71 70 66 72 69 78 43 53 36 39 42 44 44 49 64 81 88 85 85 87 85 84 78 69 57 43 40 39 40 38 35 34 34 36 40 42 44 45 47 48 50
94 77 77 82 70 72 69 66 63 59 60 41 38 38 48 46 48 51 64 77 79 80 80 82 82 80 74 56 42 40 39 39 37 36 36 36 39 41 42 43 46 48 49 52
89 74 78 77 56 54 63 68 63 71 51 41 47 46 46 44 45 52 57 67 76 79 76 73 70 64 64 49 42 41 41 40 39 38 39 38 41 41 43 46 50 50 52 54
94 79 65 36 47 42 52 49 56 52 49 46 46 44 41 45 48 53 57 59 68 72 69 64 59 57 51 47 43 43 42 41 40 40 41 41 44 45 46 50 52 53 54 55
92 96 63 50 40 39 43 38 40 44 41 45 42 42 44 43 53 48 50 56 53 49 53 59 57 53 48 47 45 45 43 41 41 42 40 44 44 46 47 54 54 55 56 56
89 97 65 33 39 40 35 44 29 42 39 40 49 51 46 33 47 48 49 50 48 46 53 57 55 50 48 49 48 46 43 42 42 43 41 42 44 48 50 56 54 54 56 59
85 92 76 52 46 38 45 26 28 36 37 43 55 45 36 44 49 49 50 50 49 51 53 53 54 51 50 51 52 47 43 42 43 40 40 41 47 50 52 55 55 58 60 63
87 88 89 50 50 47 38 33 31 34 36 44 49 44 44 48 50 54 64 57 56 57 57 55 51 50 52 53 48 44 43 43 41 39 41 48 50 50 56 58 59 61 64 66
72 68 45 51 45 42 40 38 33 36 39 44 45 45 46 50 52 54 59 61 60 58 57 54 51 50 50 47 44 44 44 42 39 40 45 50 54 56 58 59 63 67 71 74
60 50 47 44 46 49 47 45 44 43 42 44 49 50 51 53 58 60 58 66 62 64 60 55 49 47 46 46 45 44 42 41 40 45 49 56 58 58 62 64 70 74 78 80
52 39 37 37 36 34 37 40 49 50 49 50 54 54 55 58 61 64 60 59 66 66 62 55 50 48 47 45 43 43 43 40 45 51 53 58 59 61 66 70 75 80 81 83
60 42 45 40 40 38 42 42 41 47 46 52 56 55 57 63 62 61 61 60 70 67 63 58 53 52 48 43 42 42 43 45 50 53 60 62 65 64 63 72 82 83 85 83
45 43 48 45 51 47 45 42 44 48 53 50 55 61 60 66 60 58 62 66 69 66 60 57 54 50 46 43 43 43 42 47 52 64 63 66 69 71 78 74 78 85 82 82
55 60 53 48 53 50 55 54 49 54 53 58 60 58 59 66 63 66 68 60 62 63 58 54 51 49 44 44 45 45 47 50 53 57 66 70 70 72 82 85 88 81 76 86
59 57 58 56 58 57 61 64 65 66 66 68 63 69 68 76 77 71 64 66 63 59 54 51 48 45 44 46 46 47 52 54 60 59 64 68 76 80 81 83 83 84 84 84
58 59 61 70 68 68 71 70 72 73 73 76 78 70 63 66 70 68 65 62 60 62 55 51 48 46 47 46 44 50 53 54 60 61 71 76 75 80 83 83 84 85 90 94
82 72 66 73 75 73 71 74 75 78 79 76 72 66 69 70 69 68 63 58 56 53 52 51 48 46 43 40 42 48 51 54 70 76 75 74 79 80 85 87 86 87 92 91
74 75 78 82 85 82 74 68 72 72 75 65 68 72 75 76 78 68 61 56 53 52 49 48 46 44 39 39 43 47 52 55 59 69 72 75 79 84 89 86 81 88 90 89
58 71 74 78 74 75 78 79 72 63 64 67 75 82 74 73 72 64 60 58 56 58 49 47 41 39 38 39 45 49 54 58 65 73 75 84 90 90 87 84 87 89 93 90
57 53 55 58 53 64 71 60 60 64 60 66 74 81 83 78 69 64 61 63 56 52 49 46 42 39 38 41 52 56 58 61 72 77 78 86 88 92 91 87 92 91 92 90
60 59 64 64 61 52 53 50 56 64 61 63 79 80 76 71 69 65 68 67 54 50 50 47 40 38 38 44 51 71 70 72 79 81 80 88 91 95 86 83 89 96 94 94
55 61 60 61 63 60 54 49 52 58 63 70 71 77 79 78 76 71 63 62 57 58 54 53 47 41 38 49 54 62 71 78 82 83 87 90 95 93 82 86 91 94 94 94
52 56 57 62 62 57 57 56 58 61 64 66 71 72 78 73 76 81 80 62 58 70 68 52 45 43 43 60 66 62 65 72 80 80 87 89 94 88 82 88 90 98 98 93
54 56 59 62 63 73 77 60 56 57 61 60 64 68 73 80 80 71 67 64 61 72 79 58 49 42 69 75 71 74 71 74 76 79 90 92 92 79 88 92 94 95 94 96
56 61 66 72 76 70 64 64 64 65 67 71 68 63 62 71 74 63 69 72 70 63 64 69 46 45 79 79 80 82 76 76 78 83 90 91 80 78 86 91 94 95 100 96
65 64 61 61 64 64 64 67 76 67 71 78 71 67 65 64 66 75 74 68 64 70 74 80 78 78 85 80 81 83 78 80 84 91 89 81 74 81 91 92 91 95 93 93
60 59 63 70 75 77 77 76 81 78 73 74 73 68 64 63 68 78 81 80 74 74 94 97 92 95 91 86 93 83 80 82 83 83 82 72 76 82 86 87 89 93 92 93

GFSNGP_925_rhum_123.txt.gz
RH
80 77 71 65 64 71 88 76 83 42 57 38 36 41 42 43 46 50 53 67 84 84 85 84 81 76 76 74 66 53 43 42 40 38 35 34 34 37 40 41 44 50 52 51
98 80 82 86 78 77 71 65 67 64 63 42 40 40 51 53 53 50 49 52 67 84 85 86 82 79 75 71 70 60 43 41 41 38 37 37 36 39 40 40 43 43 45 50
88 76 79 72 61 64 72 75 69 77 54 41 48 49 51 48 47 48 48 50 58 72 82 82 80 72 73 66 68 64 44 42 41 39 38 39 38 40 39 41 45 48 51 53
96 78 49 31 44 48 57 57 63 57 53 46 45 47 48 48 44 45 50 54 59 65 67 66 69 72 66 66 68 64 44 43 42 40 39 41 39 39 38 42 47 49 51 55
92 97 61 41 39 53 50 40 45 49 45 45 47 49 51 47 49 50 52 53 52 48 49 50 56 63 67 65 61 50 45 45 43 41 41 41 39 39 43 45 50 50 54 57
90 93 58 27 38 40 33 46 29 43 41 34 46 51 42 36 45 55 53 50 49 45 48 52 50 64 66 62 54 48 45 46 43 42 43 38 38 42 45 48 53 54 55 59
87 91 76 55 42 36 39 25 25 36 39 35 49 43 35 39 45 47 50 47 45 49 52 50 54 62 63 60 53 47 47 46 44 44 42 38 40 45 46 50 54 54 58 60
88 96 89 51 51 45 36 33 30 33 36 42 49 48 48 49 53 54 57 49 49 57 54 53 56 60 60 57 50 49 49 46 45 44 39 40 43 46 49 55 58 58 63 65
78 71 48 50 49 44 44 46 45 40 38 42 46 46 45 48 51 54 52 52 52 60 58 57 57 58 58 53 52 52 49 46 45 41 39 42 46 50 55 58 60 62 70 74
54 42 49 45 45 47 44 49 45 45 49 47 46 44 52 50 54 58 54 56 55 65 68 62 57 56 54 53 51 48 47 46 44 40 41 46 50 57 56 58 62 69 74 83
62 44 44 39 37 40 41 43 46 45 50 53 54 54 54 52 59 61 58 55 58 67 70 64 59 54 54 50 48 48 47 45 43 40 50 53 57 56 57 58 66 70 84 84
65 50 54 50 45 46 52 52 51 53 49 47 56 57 57 63 61 60 62 59 61 64 71 67 62 56 51 49 48 47 47 46 41 43 49 54 59 60 59 75 82 84 85 85
58 57 60 56 54 54 58 53 53 56 58 58 53 58 60 66 62 63 62 64 67 65 64 69 66 58 52 50 47 45 44 42 42 53 53 62 66 68 69 59 70 85 85 83
60 65 59 56 56 54 58 60 61 64 62 64 63 61 63 67 65 67 69 61 62 65 67 68 66 60 54 51 47 45 44 42 42 49 58 61 67 68 71 83 86 78 70 85
65 63 65 60 64 66 67 74 78 75 76 74 64 70 72 81 80 70 64 68 69 69 67 64 61 57 54 50 47 46 47 46 54 51 54 62 67 69 78 82 85 82 82 75
64 66 68 75 75 80 81 76 76 77 76 76 79 72 66 68 72 71 68 68 68 67 62 59 55 52 50 48 46 49 49 45 51 58 60 68 73 79 79 83 84 85 85 80
82 56 57 66 67 76 79 77 79 79 79 79 71 64 70 74 74 71 65 63 62 60 57 57 54 52 49 47 48 50 48 51 74 69 63 71 76 76 79 83 87 89 82 81
65 68 72 78 84 78 70 66 71 75 77 65 65 71 77 82 83 74 68 67 60 57 55 52 51 52 50 49 48 46 46 48 54 71 73 76 75 75 79 86 90 84 84 83
58 56 48 52 57 65 71 70 64 59 62 62 69 75 72 72 73 71 70 71 66 65 56 52 50 49 48 45 43 42 47 51 56 59 63 74 79 83 89 91 86 83 83 90
58 52 52 56 56 63 62 58 58 60 55 57 62 72 77 71 73 72 72 74 65 60 56 57 51 49 46 42 45 47 47 54 58 63 68 73 77 83 85 91 93 87 84 90
74 62 62 65 61 60 61 63 63 63 57 56 66 70 68 64 70 72 77 79 63 61 57 56 53 49 47 42 47 61 60 59 64 69 71 79 83 91 92 92 86 80 84 89
69 68 58 64 67 60 59 60 62 67 66 68 66 68 75 76 75 79 72 69 63 63 60 58 58 56 49 45 46 53 64 67 70 71 74 77 79 84 88 90 80 80 85 88
47 49 46 53 57 59 62 67 70 68 68 69 71 71 71 69 69 84 83 62 61 64 65 59 59 67 68 54 47 50 67 70 75 78 77 78 78 82 86 88 77 82 86 92
51 48 51 53 61 73 81 69 68 69 69 70 72 70 74 78 77 75 71 72 70 66 66 67 61 66 78 84 74 69 73 71 73 71 70 75 77 83 87 84 79 86 92 91
55 55 60 69 74 68 64 67 72 75 76 78 73 70 69 73 81 70 68 67 68 73 70 67 72 78 93 95 87 83 77 73 70 65 68 74 80 87 87 76 80 84 88 88
58 61 59 61 66 69 71 72 77 76 79 81 79 78 74 70 70 71 73 76 78 76 82 79 77 83 96 97 92 83 81 94 80 78 72 74 81 85 79 73 80 87 90 94
60 61 64 64 63 65 71 82 85 83 82 83 84 81 80 75 71 70 70 73 76 79 82 83 82 90 99 97 97 94 97 96 78 76 77 76 79 78 69 75 82 83 86 88

GFSNGP_925_rhum_126.txt.gz
RH
78 75 67 63 63 80 91 74 76 40 56 37 35 38 39 44 46 52 52 51 56 61 79 79 80 77 72 69 70 71 66 54 44 41 40 36 36 35 35 36 37 39 42 44
97 81 86 90 81 77 69 69 78 71 70 46 43 44 50 52 55 53 52 51 50 55 71 78 77 77 78 74 68 72 71 58 45 43 41 37 38 36 35 36 41 43 44 47
85 76 80 70 64 67 77 78 69 76 55 46 50 48 48 51 51 52 50 48 48 50 58 61 64 68 75 73 72 72 74 65 47 43 41 39 39 38 34 36 40 43 47 50
96 78 51 29 41 54 68 62 71 64 59 52 48 51 48 51 52 50 48 47 50 55 52 51 53 61 68 76 77 74 73 72 49 43 41 40 41 38 36 38 41 44 46 51
91 98 61 28 44 54 53 41 44 54 53 53 50 52 43 35 47 51 48 48 48 45 47 48 48 51 63 75 80 78 74 70 49 44 42 42 43 39 38 40 43 47 49 52
92 93 54 26 38 41 34 38 28 50 44 44 42 45 37 33 37 47 49 47 49 46 47 48 43 51 61 69 76 74 70 66 47 44 43 42 43 38 38 42 45 51 50 54
92 90 78 56 45 40 39 33 28 33 35 41 46 43 35 43 44 41 42 42 43 48 51 45 50 56 61 69 71 65 64 55 47 46 44 43 41 36 39 45 50 53 52 54
86 90 85 55 51 42 35 39 35 44 45 49 47 46 47 45 48 52 55 45 41 52 50 45 53 57 61 68 62 64 57 49 48 46 45 44 38 39 46 49 53 55 56 57
78 71 49 50 46 43 48 54 52 54 47 50 54 52 48 51 49 48 48 48 46 53 56 50 55 58 62 58 62 58 53 51 49 47 46 42 40 44 49 53 56 58 63 68
53 41 50 48 45 45 46 50 47 47 49 52 55 52 53 53 52 54 53 55 52 58 66 62 53 59 58 60 60 56 54 53 50 48 46 42 43 47 50 55 58 62 66 71
67 49 50 44 48 48 49 51 56 58 59 57 57 57 56 56 56 60 60 56 57 61 65 62 57 60 60 59 58 57 55 52 50 48 50 42 44 47 54 52 53 57 64 78
71 60 62 61 52 51 58 59 57 61 65 64 67 66 62 63 61 64 66 61 64 63 66 61 61 62 64 59 56 53 53 52 49 46 43 48 52 56 56 61 72 85 85 85
58 58 65 64 61 57 60 63 65 69 70 76 68 68 70 74 66 68 67 66 67 66 64 65 65 68 67 59 54 52 51 50 48 50 44 49 58 64 63 56 59 76 87 87
62 63 55 52 57 56 63 67 70 72 70 71 71 66 69 75 70 69 70 64 66 70 73 75 74 71 68 60 53 52 51 48 46 44 46 49 58 61 63 67 68 64 62 71
55 61 61 62 66 66 68 76 76 67 72 68 64 73 70 74 74 69 63 64 68 68 66 68 69 67 65 60 54 52 50 48 48 43 44 52 61 64 68 70 79 79 74 70
67 65 59 68 69 71 74 68 70 62 61 61 66 64 65 67 69 70 67 65 74 72 63 62 60 59 60 58 56 53 50 47 47 51 51 60 69 72 72 78 81 82 82 79
73 53 52 54 54 58 62 63 75 76 70 70 69 66 68 70 72 71 62 60 64 64 61 56 57 58 55 54 54 53 52 51 64 63 60 66 69 73 76 78 80 81 79 78
63 63 65 71 71 68 67 59 60 65 73 64 69 73 76 78 76 70 65 60 65 69 64 61 59 58 56 54 52 52 51 53 63 78 68 67 65 69 76 78 79 81 81 77
57 65 63 62 58 66 67 66 65 61 63 66 70 67 66 70 70 69 66 73 78 80 62 62 57 55 54 53 52 52 54 57 57 68 80 79 81 81 78 78 80 84 84 80
66 59 58 60 56 58 55 50 55 61 61 65 66 66 67 65 66 66 71 80 67 60 59 58 58 56 54 52 53 54 56 55 57 71 68 71 78 80 82 86 85 85 85 81
75 69 68 63 60 59 62 60 62 62 61 69 73 72 71 70 70 71 81 84 66 60 60 58 63 60 57 53 55 68 56 52 64 69 67 77 80 85 83 78 79 86 88 78
66 74 68 64 70 65 51 51 57 63 68 70 72 75 77 78 76 77 76 77 68 66 70 67 62 63 60 55 55 64 69 60 65 69 72 73 83 86 85 80 82 85 84 75
43 43 47 54 58 57 58 60 63 67 73 74 76 77 78 77 77 82 82 69 68 66 65 69 69 64 64 72 64 65 71 76 78 69 73 76 74 76 76 75 74 80 79 74
45 48 54 56 61 67 72 64 66 70 73 75 78 81 82 82 82 81 78 76 74 73 81 78 71 71 79 81 80 74 90 87 80 75 78 80 75 73 73 71 79 80 74 77
54 58 62 66 69 66 61 61 65 70 72 75 83 83 82 82 95 88 84 82 79 80 80 75 82 86 87 90 84 86 97 97 84 72 72 76 77 72 72 72 77 81 72 77
58 57 57 59 62 65 68 72 75 73 74 96 97 90 88 88 86 86 86 84 83 79 78 77 84 86 92 94 98 96 98 97 96 94 81 90 74 69 70 74 80 74 72 78
63 65 66 66 65 66 69 71 73 75 96 98 94 85 85 91 91 91 92 94 91 86 82 77 79 83 91 98 100 100 100 97 97 97 96 93 72 71 71 76 77 67 74 81

GFSNGP_925_rhum_129.txt.gz
RH
74 72 63 60 62 86 89 71 63 46 55 38 38 42 44 45 44 45 45 47 47 49 49 49 53 58 67 71 71 68 76 77 61 48 43 40 36 35 34 31 31 35 38 41
96 77 82 89 79 73 69 74 77 68 68 46 44 49 48 43 45 44 43 45 46 48 48 47 47 52 59 64 70 77 76 76 71 57 46 42 38 37 37 32 31 36 39 43
82 73 76 60 66 71 78 76 66 74 54 46 51 50 47 46 44 44 40 45 46 45 44 40 42 49 56 60 69 80 81 76 74 64 48 43 40 40 39 34 33 37 39 42
94 73 47 28 45 55 69 65 70 64 61 55 54 49 52 42 46 45 37 47 46 44 42 40 42 48 53 60 70 80 83 80 77 70 51 45 41 41 41 36 34 39 42 45
89 95 58 33 52 59 53 37 51 64 56 53 48 51 48 39 34 37 40 43 46 41 42 44 46 46 51 56 66 82 85 82 78 74 55 45 43 42 42 36 35 39 44 47
92 92 48 25 36 44 38 42 30 49 43 46 47 53 42 40 40 42 40 41 42 37 44 48 44 50 54 55 64 72 73 78 79 74 57 45 43 43 42 36 35 43 48 48
90 93 77 55 42 44 42 40 36 35 45 49 51 48 41 45 47 44 46 45 44 48 50 43 47 54 58 60 61 53 64 73 77 73 54 45 44 44 41 37 42 49 51 49
76 86 86 53 48 40 42 51 47 52 53 56 52 52 52 52 52 51 51 50 47 51 48 42 49 58 59 63 51 58 64 69 69 64 48 46 45 45 40 42 47 50 54 51
79 73 52 51 50 44 51 54 55 57 54 58 61 60 55 56 54 54 54 55 52 55 56 46 50 59 65 53 58 60 64 65 61 52 50 47 47 44 44 46 53 54 61 63
55 48 58 51 44 46 52 57 57 60 63 63 65 63 64 61 60 59 57 60 57 60 63 61 52 58 60 61 63 63 64 62 56 54 52 50 47 42 41 47 56 57 64 65
65 51 49 51 51 58 58 60 64 63 65 65 68 69 70 68 65 62 64 63 63 68 70 68 59 59 58 61 65 65 64 60 58 54 57 51 47 41 40 39 43 50 50 54
67 62 61 61 60 59 58 58 63 69 69 64 70 73 70 68 64 68 70 71 70 67 67 61 61 60 58 63 67 65 65 62 59 56 54 53 47 46 46 47 51 58 71 78
61 58 64 62 63 53 61 60 61 69 68 73 64 67 68 68 64 65 65 65 68 70 69 70 70 69 65 67 69 65 62 60 57 59 53 52 57 58 74 59 78 83 84 83
60 60 48 47 51 57 59 59 63 69 70 68 64 64 67 70 67 65 66 62 64 67 67 65 67 66 65 68 70 64 60 58 55 56 54 50 49 51 57 63 67 59 67 80
57 59 58 61 64 61 58 68 76 66 62 60 57 68 68 75 68 64 61 57 60 65 60 60 62 62 60 65 67 62 59 57 59 54 51 47 82 65 68 66 67 67 60 66
57 53 50 59 61 63 61 61 63 55 56 55 61 62 64 67 70 68 61 57 66 65 58 60 62 56 63 65 66 62 57 54 55 54 54 79 89 76 78 75 76 76 76 68
77 64 57 63 64 61 59 61 62 61 59 63 63 62 66 70 72 71 62 58 60 61 57 59 60 60 59 60 62 63 62 59 64 58 76 94 69 72 73 74 78 79 74 67
58 63 65 70 73 67 62 57 59 60 65 62 64 71 80 82 79 70 67 68 69 73 61 52 50 53 60 61 60 59 61 61 62 79 74 69 69 70 72 76 77 79 75 69
59 65 59 61 60 66 69 67 64 62 65 64 70 71 68 72 73 76 75 78 81 81 71 54 55 57 57 60 61 59 60 63 62 69 73 74 74 75 75 76 80 78 73 73
69 64 65 67 62 65 63 54 54 58 59 60 65 72 70 66 68 73 75 78 76 75 70 64 67 66 65 61 62 64 64 64 67 67 71 76 80 80 83 81 79 81 75 77
68 66 69 69 65 62 62 63 64 66 61 59 63 65 67 70 73 76 82 83 75 74 73 72 72 71 70 70 68 74 70 70 69 69 71 76 78 83 82 82 82 84 80 77
65 68 61 60 66 56 50 52 56 60 62 64 66 70 74 78 78 81 82 85 81 77 76 78 74 72 72 76 77 74 77 73 78 76 73 74 79 78 81 83 80 81 81 77
55 56 54 55 54 54 57 61 64 66 67 68 70 72 75 76 79 95 95 85 84 82 85 88 81 79 82 89 84 80 81 78 81 80 73 82 75 77 78 81 76 78 78 78
55 52 55 54 60 67 72 67 67 68 69 71 73 76 80 83 94 96 100 98 99 94 94 94 91 89 94 92 90 86 84 84 81 80 86 98 88 75 78 75 79 77 73 76
57 58 61 67 71 68 64 66 69 70 72 74 75 76 77 89 100 98 97 95 93 94 97 94 91 94 92 94 95 92 90 87 86 93 98 97 96 93 76 70 74 72 69 73
60 60 55 58 65 70 74 74 91 88 84 85 86 87 94 100 98 95 94 93 95 96 98 99 98 96 90 84 94 98 95 93 99 98 97 96 96 96 92 92 73 73 70 73
60 62 64 68 71 74 74 95 98 95 96 94 93 97 99 97 91 89 92 96 99 100 99 100 99 98 98 92 91 98 99 100 100 98 97 97 97 96 96 95 70 69 75 68